[[{"header":{"parameterUnit":"m.s-1","parameterCategory":1,"la1":31.0,"la2":29.5877,"lo1":-88.7671,"lo2":-86.6584,"dy":0.0162,"dx":0.0185,"nx":115,"ny":88,"refTime":"2024-03-13T12:00:00:Z","depth":0,"parameterNumber":2,"parameterNumberName":"U-component_of_WINDS"},"data":[0.0,0.0,0.0,0.0,0.0,0.0,0.0,0.0,0.0,0.0,0.0,0.0,0.0,0.0,0.0,0.0,0.0,0.0,0.0,0.0,0.0,0.0,0.0,0.0,0.0,0.0,0.0,0.0,0.0,0.0,0.0,0.0,0.0,0.0,0.0,0.0,0.0,0.0,0.0,0.0,0.0,0.0,0.0,0.0,0.0,0.0,0.0,0.0,0.0,0.0,0.0,0.0,0.0,0.0,0.0,0.0,0.0,0.0,0.0,0.0,0.0,0.0,0.0,0.0,0.0,0.0,0.0,0.0,0.0,0.0,0.0,0.0,0.0,0.0,0.0,0.0,0.0,0.0,0.0,0.0,0.0,0.0,0.0,0.0,0.0,0.0,0.0,0.0,0.0,0.0,0.0,0.0,0.0,0.0,0.0,0.0,0.0,0.0,0.0,0.0,0.0,0.0,0.0,0.0,0.0,0.0,0.0,0.0,0.0,0.0,0.0,0.0,0.0,0.0,0.0,0.0,0.0,0.0,0.0,0.0,0.0,0.0,0.0,0.0,0.0,0.0,0.0,0.0,0.0,0.0,0.0,0.0,0.0,0.0,0.0,0.0,0.0,0.0,0.0,0.0,0.0,0.0,0.0,0.0,0.0,0.0,0.0,0.0,0.0,0.0,0.0,0.0,0.0,0.0,0.0,0.0,0.0,0.0,0.0,0.0,0.0,0.0,0.0,0.0,0.0,0.0,0.0,0.0,0.0,0.0,0.0,0.0,0.0,0.0,0.0,0.0,0.0,0.0,0.0,0.0,0.0,0.0,0.0,0.0,0.0,0.0,0.0,0.0,0.0,0.0,0.0,0.0,0.0,0.0,0.0,0.0,0.0,0.0,0.0,0.0,0.0,0.0,0.0,0.0,0.0,0.0,0.0,0.0,0.0,0.0,0.0,0.0,0.0,0.0,0.0,0.0,0.0,0.0,0.0,0.0,0.0,0.0,0.0,0.0,0.0,0.0,0.0,0.0,0.0,0.0,0.0,0.0,0.0,0.0,0.0,0.0,0.0,0.0,0.0,0.0,0.0,0.0,0.0,0.0,0.0,0.0,0.0,0.0,0.0,0.0,0.0,0.0,0.0,0.0,0.0,0.0,0.0,0.0,0.0,0.0,0.0,0.0,0.0,0.0,0.0,0.0,0.0,0.0,0.0,0.0,0.0,0.0,0.0,0.0,0.0,0.0,0.0,0.0,0.0,0.0,0.0,0.0,0.0,0.0,0.0,0.0,0.0,0.0,0.0,0.0,0.0,0.0,0.0,0.0,0.0,0.0,0.0,0.0,0.0,0.0,0.0,0.0,0.0,0.0,0.0,0.0,0.0,0.0,0.0,0.0,0.0,0.0,0.0,0.0,0.0,0.0,0.0,0.0,0.0,0.0,0.0,0.0,0.0,0.0,0.0,0.0,0.0,0.0,0.0,0.0,0.0,0.0,0.0,0.0,0.0,0.0,0.0,0.0,0.0,0.0,0.0,0.0,0.0,0.0,0.0,0.0,0.0,0.0,0.0,0.0,0.0,0.0,0.0,0.0,0.0,0.0,0.0,0.0,0.0,0.0,0.0,0.0,0.0,0.0,0.0,0.0,0.0,0.0,0.0,0.0,0.0,0.0,0.0,0.0,0.0,0.0,0.0,0.0,0.0,0.0,0.0,0.0,0.0,0.0,0.0,0.0,0.0,0.0,0.0,0.0,0.0,0.0,0.0,0.0,0.0,0.0,0.0,0.0,0.0,0.0,0.0,0.0,0.0,0.0,0.0,0.0,0.0,0.0,0.0,0.0,0.0,0.0,0.0,0.0,0.0,0.0,0.0,0.0,0.0,0.0,0.0,0.0,0.0,0.0,0.0,0.0,0.0,0.0,0.0,0.0,0.0,0.0,0.0,0.0,0.0,0.0,0.0,0.0,0.0,0.0,0.0,0.0,0.0,0.0,0.0,0.0,0.0,0.0,0.0,0.0,0.0,0.0,0.0,0.0,0.0,0.0,0.0,0.0,0.0,0.0,0.0,0.0,0.0,0.0,0.0,0.0,0.0,0.0,0.0,0.0,0.0,0.0,0.0,0.0,0.0,0.0,0.0,0.0,0.0,0.0,0.0,0.0,0.0,0.0,0.0,0.0,0.0,0.0,0.0,0.0,0.0,0.0,0.0,0.0,0.0,0.0,0.0,0.0,0.0,0.0,0.0,0.0,0.0,0.0,0.0,0.0,0.0,0.0,0.0,0.0,0.0,0.0,0.0,0.0,0.0,0.0,0.0,0.0,0.0,0.0,0.0,0.0,0.0,0.0,0.0,0.0,0.0,0.0,0.0,0.0,0.0,0.0,0.0,0.0,0.0,0.0,0.0,0.0,0.0,0.0,0.0,0.0,0.0,0.0,0.0,0.0,0.0,0.0,0.0,0.0,0.0,0.0,0.0,0.0,0.0,0.0,0.0,0.0,0.0,0.0,0.0,0.0,0.0,0.0,0.0,0.0,0.0,0.0,0.0,0.0,0.0,0.0,0.0,0.0,0.0,0.0,0.0,0.0,0.0,0.0,0.0,0.0,0.0,0.0,0.0,0.0,0.0,0.0,0.0,0.0,0.0,0.0,0.0,0.0,0.0,0.0,0.0,0.0,0.0,0.0,0.0,0.0,0.0,0.0,0.0,0.0,0.0,0.0,0.0,0.0,0.0,0.0,0.0,0.0,0.0,0.0,0.0,0.0,0.0,0.0,0.0,0.0,0.0,0.0,0.0,0.0,0.0,0.0,0.0,0.0,0.0,0.0,0.0,0.0,0.0,0.0,0.0,0.0,0.0,0.0,0.0,0.0,0.0,0.0,0.0,0.0,0.0,0.0,0.0,0.0,0.0,0.0,0.0,0.0,0.0,0.0,0.0,0.0,0.0,0.0,0.0,0.0,0.0,0.0,0.0,0.0,0.0,0.0,0.0,0.0,0.0,0.0,0.0,0.0,0.0,0.0,0.0,0.0,0.0,0.0,0.0,0.0,0.0,0.0,0.0,0.0,0.0,0.0,0.0,0.0,0.0,0.0,0.0,0.0,0.0,0.0,0.0,0.0,0.0,0.0,0.0,0.0,0.0,0.0,0.0,0.0,0.0,0.0,0.0,0.0,0.0,0.0,0.0,0.0,0.0,0.0,0.0,0.0,0.0,0.0,0.0,0.0,0.0,0.0,0.0,0.0,0.0,0.0,0.0,0.0,0.0,0.0,0.0,0.0,0.0,0.0,0.0,0.0,0.0,0.0,0.0,0.0,0.0,0.0,0.0,0.0,0.0,0.0,0.0,0.0,0.0,0.0,0.0,0.0,0.0,0.0,0.0,0.0,0.0,0.0,0.0,0.0,0.0,0.0,0.0,0.0,0.0,0.0,0.0,0.0,0.0,0.0,0.0,0.0,0.0,0.0,0.0,0.0,0.0,0.0,0.0,0.0,0.0,0.0,0.0,0.0,0.0,0.0,0.0,0.0,0.0,0.0,0.0,0.0,0.0,0.0,0.0,0.0,0.0,0.0,0.0,0.0,0.0,0.0,0.0,0.0,0.0,0.0,0.0,0.0,0.0,0.0,0.0,0.0,0.0,0.0,0.0,0.0,0.0,0.0,0.0,0.0,0.0,0.0,0.0,0.0,0.0,0.0,0.0,0.0,0.0,0.0,0.0,0.0,0.0,0.0,0.0,0.0,0.0,0.0,0.0,0.0,0.0,0.0,0.0,0.0,0.0,0.0,0.0,0.0,0.0,0.0,0.0,0.0,0.0,0.0,0.0,0.0,0.0,0.0,0.0,0.0,0.0,0.0,0.0,0.0,0.0,0.0,0.0,0.0,0.0,0.0,0.0,0.0,0.0,0.0,0.0,0.0,0.0,0.0,0.0,0.0,0.0,0.0,0.0,0.0,0.0,0.0,0.0,0.0,0.0,0.0,0.0,0.0,0.0,0.0,0.0,0.0,0.0,0.0,0.0,0.0,0.0,0.0,0.0,0.0,0.0,0.0,0.0,0.0,0.0,0.0,0.0,0.0,0.0,0.0,0.0,0.0,0.0,0.0,0.0,0.0,0.0,0.0,0.0,0.0,0.0,0.0,0.0,0.0,0.0,0.0,0.0,0.0,0.0,0.0,0.0,0.0,0.0,0.0,0.0,0.0,0.0,0.0,0.0,0.0,0.0,0.0,0.0,0.0,0.0,0.0,0.0,0.0,0.0,0.0,0.0,0.0,0.0,0.0,0.0,0.0,0.0,0.0,0.0,0.0,-1.8946,0.0,0.0,0.0,0.0,0.0,0.0,0.0,0.0,0.0,0.0,0.0,0.0,0.0,0.0,0.0,0.0,0.0,0.0,0.0,0.0,0.0,0.0,0.0,0.0,0.0,0.0,0.0,0.0,0.0,0.0,0.0,0.0,0.0,0.0,0.0,0.0,0.0,0.0,0.0,0.0,0.0,0.0,0.0,0.0,0.0,0.0,0.0,0.0,0.0,0.0,0.0,0.0,0.0,0.0,0.0,0.0,0.0,0.0,0.0,0.0,0.0,0.0,0.0,0.0,0.0,0.0,0.0,0.0,0.0,0.0,0.0,0.0,0.0,0.0,0.0,0.0,0.0,0.0,0.0,0.0,0.0,0.0,0.0,0.0,0.0,0.0,0.0,0.0,0.0,0.0,0.0,0.0,0.0,0.0,0.0,0.0,0.0,0.0,0.0,0.0,0.0,0.0,0.0,0.0,0.0,0.0,0.0,0.0,0.0,0.0,-2.1018,-2.0339,-2.1191,-2.0836,-1.9112,0.0,0.0,0.0,0.0,0.0,0.0,0.0,0.0,0.0,0.0,0.0,0.0,0.0,0.0,0.0,0.0,0.0,0.0,0.0,0.0,0.0,0.0,0.0,0.0,0.0,0.0,0.0,0.0,0.0,0.0,0.0,0.0,0.0,0.0,0.0,0.0,0.0,0.0,0.0,0.0,0.0,0.0,0.0,0.0,0.0,0.0,0.0,0.0,0.0,0.0,0.0,0.0,0.0,0.0,0.0,0.0,0.0,0.0,0.0,0.0,0.0,0.0,0.0,0.0,0.0,0.0,0.0,0.0,0.0,0.0,0.0,0.0,0.0,0.0,0.0,0.0,0.0,0.0,0.0,0.0,0.0,0.0,0.0,0.0,0.0,0.0,0.0,0.0,0.0,0.0,0.0,0.0,0.0,0.0,0.0,0.0,0.0,0.0,0.0,0.0,0.0,0.0,0.0,0.0,0.0,0.0,0.0,0.0,0.0,0.0,0.0,0.0,-2.1162,-2.0829,-2.0319,0.0,0.0,0.0,0.0,0.0,0.0,0.0,0.0,0.0,0.0,0.0,0.0,0.0,0.0,0.0,0.0,0.0,0.0,0.0,0.0,0.0,0.0,0.0,0.0,0.0,0.0,0.0,0.0,0.0,0.0,0.0,0.0,0.0,0.0,0.0,0.0,0.0,0.0,0.0,0.0,0.0,0.0,0.0,0.0,0.0,0.0,0.0,0.0,0.0,0.0,0.0,0.0,0.0,0.0,0.0,0.0,0.0,0.0,0.0,0.0,0.0,0.0,0.0,0.0,0.0,0.0,0.0,0.0,0.0,0.0,0.0,0.0,0.0,0.0,0.0,0.0,0.0,0.0,0.0,0.0,0.0,0.0,0.0,0.0,0.0,0.0,0.0,0.0,0.0,0.0,0.0,0.0,0.0,0.0,0.0,0.0,0.0,0.0,0.0,0.0,0.0,0.0,0.0,0.0,0.0,0.0,0.0,0.0,0.0,0.0,-2.0785,-2.2826,-2.2629,0.0,-2.284,0.0,0.0,0.0,0.0,0.0,0.0,0.0,0.0,0.0,0.0,0.0,0.0,0.0,0.0,0.0,0.0,0.0,0.0,0.0,0.0,0.0,0.0,0.0,0.0,0.0,0.0,0.0,0.0,0.0,0.0,0.0,0.0,0.0,0.0,0.0,0.0,0.0,0.0,0.0,0.0,0.0,0.0,0.0,0.0,0.0,0.0,0.0,0.0,0.0,0.0,0.0,0.0,0.0,0.0,0.0,0.0,0.0,0.0,0.0,0.0,0.0,0.0,0.0,0.0,0.0,0.0,0.0,0.0,0.0,0.0,0.0,0.0,0.0,0.0,0.0,0.0,0.0,0.0,0.0,0.0,0.0,0.0,0.0,0.0,0.0,0.0,0.0,0.0,0.0,0.0,0.0,0.0,0.0,0.0,0.0,0.0,0.0,0.0,0.0,0.0,0.0,0.0,0.0,0.0,0.0,0.0,0.0,0.0,0.0,0.0,-2.0649,-2.2857,-2.2164,-2.1556,0.0,0.0,0.0,0.0,0.0,0.0,0.0,0.0,0.0,0.0,0.0,0.0,0.0,0.0,0.0,0.0,0.0,0.0,0.0,0.0,0.0,0.0,0.0,0.0,0.0,0.0,0.0,0.0,0.0,0.0,0.0,0.0,0.0,0.0,0.0,0.0,0.0,0.0,0.0,0.0,0.0,0.0,0.0,0.0,0.0,0.0,0.0,0.0,0.0,0.0,0.0,0.0,0.0,0.0,0.0,0.0,0.0,0.0,0.0,0.0,0.0,0.0,0.0,0.0,0.0,0.0,0.0,0.0,0.0,0.0,0.0,0.0,0.0,0.0,0.0,0.0,0.0,0.0,0.0,0.0,0.0,0.0,0.0,0.0,0.0,0.0,0.0,0.0,0.0,0.0,0.0,0.0,0.0,0.0,0.0,0.0,0.0,0.0,0.0,0.0,0.0,0.0,0.0,0.0,0.0,0.0,0.0,0.0,0.0,0.0,-2.1048,-2.1464,-2.3197,-2.1689,-2.0622,-2.0333,0.0,0.0,0.0,0.0,0.0,0.0,0.0,0.0,0.0,0.0,0.0,0.0,0.0,0.0,0.0,0.0,0.0,0.0,0.0,0.0,0.0,0.0,0.0,0.0,0.0,0.0,0.0,0.0,0.0,0.0,0.0,0.0,0.0,0.0,0.0,0.0,0.0,0.0,0.0,0.0,0.0,0.0,0.0,0.0,0.0,0.0,0.0,0.0,0.0,0.0,0.0,0.0,0.0,0.0,0.0,0.0,0.0,0.0,0.0,0.0,0.0,0.0,0.0,0.0,0.0,0.0,0.0,0.0,0.0,0.0,0.0,0.0,0.0,0.0,0.0,0.0,0.0,0.0,0.0,0.0,0.0,0.0,0.0,0.0,0.0,0.0,0.0,0.0,0.0,0.0,0.0,0.0,0.0,0.0,0.0,0.0,0.0,0.0,0.0,0.0,0.0,0.0,0.0,0.0,0.0,0.0,0.0,0.0,-2.7248,-2.465,-2.3678,-2.4746,-2.1704,-2.0569,0.0,0.0,0.0,0.0,0.0,0.0,0.0,0.0,0.0,0.0,0.0,0.0,0.0,0.0,0.0,0.0,0.0,0.0,0.0,0.0,0.0,0.0,0.0,0.0,0.0,0.0,0.0,0.0,0.0,0.0,0.0,0.0,0.0,0.0,0.0,0.0,0.0,0.0,0.0,0.0,0.0,0.0,0.0,0.0,0.0,0.0,0.0,0.0,0.0,0.0,0.0,0.0,0.0,0.0,0.0,0.0,0.0,0.0,0.0,0.0,0.0,0.0,0.0,0.0,0.0,0.0,0.0,0.0,0.0,0.0,0.0,0.0,0.0,0.0,0.0,0.0,0.0,0.0,0.0,0.0,0.0,0.0,0.0,0.0,0.0,0.0,0.0,0.0,0.0,0.0,0.0,0.0,0.0,0.0,0.0,0.0,0.0,0.0,0.0,0.0,0.0,0.0,0.0,0.0,0.0,0.0,0.0,0.0,0.0,-2.4098,-2.471,-2.4732,-2.4087,-2.273,-2.2013,0.0,0.0,0.0,0.0,0.0,0.0,0.0,0.0,0.0,0.0,0.0,0.0,0.0,0.0,0.0,0.0,0.0,0.0,0.0,0.0,0.0,0.0,0.0,0.0,0.0,0.0,0.0,0.0,0.0,0.0,0.0,0.0,0.0,0.0,0.0,0.0,0.0,0.0,0.0,0.0,0.0,0.0,0.0,0.0,0.0,0.0,0.0,0.0,0.0,0.0,0.0,0.0,0.0,0.0,0.0,0.0,0.0,0.0,0.0,0.0,0.0,0.0,0.0,0.0,0.0,0.0,0.0,0.0,0.0,0.0,0.0,0.0,0.0,0.0,0.0,0.0,0.0,0.0,0.0,0.0,0.0,0.0,0.0,0.0,0.0,0.0,0.0,0.0,0.0,0.0,0.0,0.0,0.0,0.0,0.0,0.0,0.0,0.0,0.0,0.0,0.0,0.0,0.0,0.0,0.0,0.0,0.0,0.0,0.0,-2.3468,0.0,-2.5472,-2.4408,-2.3158,-2.2142,0.0,0.0,0.0,0.0,0.0,0.0,0.0,0.0,0.0,0.0,0.0,0.0,0.0,0.0,0.0,0.0,0.0,0.0,0.0,0.0,0.0,0.0,0.0,0.0,0.0,0.0,0.0,0.0,0.0,0.0,0.0,0.0,0.0,0.0,0.0,0.0,0.0,0.0,0.0,0.0,0.0,0.0,0.0,0.0,0.0,0.0,0.0,0.0,0.0,0.0,0.0,0.0,0.0,0.0,0.0,0.0,0.0,0.0,0.0,0.0,0.0,0.0,0.0,0.0,0.0,0.0,0.0,0.0,0.0,0.0,0.0,0.0,0.0,0.0,0.0,0.0,0.0,0.0,0.0,0.0,0.0,0.0,0.0,0.0,0.0,0.0,0.0,0.0,0.0,0.0,0.0,0.0,0.0,0.0,0.0,0.0,0.0,0.0,0.0,0.0,0.0,0.0,0.0,0.0,0.0,0.0,0.0,0.0,-2.4156,-2.6239,-2.61,-2.6037,-2.5937,-2.2889,-2.0794,0.0,0.0,0.0,0.0,0.0,0.0,0.0,0.0,0.0,0.0,0.0,0.0,0.0,0.0,0.0,0.0,0.0,0.0,0.0,0.0,0.0,0.0,0.0,0.0,0.0,0.0,0.0,0.0,0.0,0.0,0.0,0.0,0.0,0.0,0.0,0.0,0.0,0.0,0.0,0.0,0.0,0.0,0.0,0.0,0.0,0.0,0.0,0.0,0.0,0.0,0.0,0.0,0.0,0.0,0.0,0.0,0.0,0.0,0.0,0.0,0.0,0.0,0.0,0.0,0.0,0.0,0.0,0.0,0.0,0.0,0.0,0.0,0.0,0.0,0.0,0.0,0.0,0.0,0.0,0.0,0.0,0.0,0.0,0.0,0.0,0.0,0.0,0.0,0.0,0.0,0.0,0.0,0.0,0.0,0.0,0.0,0.0,0.0,0.0,0.0,0.0,0.0,0.0,0.0,0.0,0.0,0.0,0.0,0.0,-2.4054,-2.568,-2.6805,-2.7231,-2.3707,-2.2333,0.0,0.0,0.0,0.0,0.0,0.0,0.0,0.0,0.0,0.0,0.0,0.0,0.0,0.0,0.0,0.0,0.0,0.0,0.0,0.0,0.0,0.0,0.0,0.0,0.0,0.0,0.0,0.0,0.0,0.0,0.0,0.0,0.0,0.0,0.0,0.0,0.0,0.0,0.0,0.0,0.0,0.0,0.0,0.0,0.0,0.0,0.0,0.0,0.0,0.0,0.0,0.0,0.0,0.0,0.0,0.0,0.0,0.0,0.0,0.0,0.0,0.0,0.0,0.0,0.0,0.0,0.0,0.0,0.0,0.0,0.0,0.0,0.0,0.0,0.0,0.0,0.0,0.0,0.0,0.0,0.0,0.0,0.0,0.0,0.0,0.0,0.0,0.0,0.0,0.0,0.0,0.0,0.0,0.0,0.0,0.0,0.0,0.0,0.0,0.0,0.0,0.0,0.0,0.0,0.0,0.0,0.0,0.0,0.0,-2.4807,-2.6232,-2.7299,-2.7824,-2.4542,-2.3297,-2.4311,0.0,0.0,0.0,0.0,0.0,0.0,0.0,0.0,0.0,0.0,0.0,0.0,0.0,0.0,0.0,0.0,0.0,0.0,0.0,0.0,0.0,0.0,0.0,0.0,0.0,0.0,0.0,0.0,0.0,0.0,0.0,0.0,0.0,0.0,0.0,0.0,0.0,0.0,0.0,0.0,0.0,0.0,0.0,0.0,0.0,0.0,0.0,0.0,0.0,0.0,0.0,0.0,0.0,0.0,0.0,0.0,0.0,0.0,0.0,0.0,0.0,0.0,0.0,0.0,0.0,0.0,0.0,0.0,0.0,0.0,0.0,0.0,0.0,0.0,0.0,0.0,0.0,0.0,0.0,0.0,0.0,0.0,0.0,0.0,0.0,0.0,0.0,0.0,0.0,0.0,0.0,0.0,0.0,0.0,0.0,0.0,0.0,0.0,0.0,0.0,0.0,0.0,0.0,0.0,0.0,0.0,0.0,0.0,-2.7786,-2.7725,-2.7788,-2.7843,-2.5379,-2.3719,0.0,0.0,0.0,0.0,0.0,0.0,0.0,0.0,0.0,0.0,0.0,0.0,0.0,0.0,0.0,0.0,0.0,0.0,0.0,0.0,0.0,0.0,0.0,0.0,0.0,0.0,0.0,0.0,0.0,0.0,0.0,0.0,0.0,0.0,0.0,0.0,0.0,0.0,0.0,0.0,0.0,0.0,0.0,0.0,0.0,0.0,0.0,0.0,0.0,0.0,0.0,0.0,0.0,0.0,0.0,0.0,0.0,0.0,0.0,0.0,0.0,0.0,0.0,0.0,0.0,0.0,0.0,0.0,0.0,0.0,0.0,0.0,0.0,0.0,0.0,0.0,0.0,0.0,0.0,0.0,0.0,0.0,0.0,0.0,0.0,0.0,0.0,0.0,0.0,0.0,0.0,0.0,0.0,0.0,0.0,0.0,0.0,0.0,0.0,0.0,0.0,0.0,0.0,0.0,0.0,0.0,0.0,0.0,0.0,-2.8813,-2.9931,-3.0539,-3.0456,-2.6566,-2.4652,0.0,0.0,0.0,0.0,0.0,0.0,0.0,0.0,0.0,0.0,0.0,0.0,0.0,0.0,0.0,0.0,0.0,0.0,0.0,0.0,0.0,0.0,0.0,0.0,0.0,0.0,0.0,0.0,0.0,0.0,0.0,0.0,0.0,0.0,0.0,0.0,0.0,0.0,0.0,0.0,0.0,0.0,0.0,0.0,0.0,0.0,0.0,0.0,0.0,0.0,0.0,0.0,0.0,0.0,0.0,0.0,0.0,0.0,0.0,0.0,0.0,0.0,0.0,0.0,0.0,0.0,0.0,0.0,0.0,0.0,0.0,0.0,0.0,0.0,0.0,0.0,0.0,0.0,0.0,0.0,0.0,0.0,0.0,0.0,0.0,0.0,0.0,0.0,0.0,0.0,0.0,0.0,0.0,0.0,0.0,0.0,0.0,0.0,0.0,0.0,0.0,0.0,0.0,0.0,0.0,0.0,0.0,0.0,-2.8337,-3.0138,-3.1613,-3.2307,-3.221,-2.9016,-2.6642,0.0,0.0,0.0,0.0,0.0,0.0,0.0,0.0,0.0,0.0,0.0,0.0,0.0,0.0,0.0,0.0,0.0,0.0,0.0,0.0,0.0,0.0,0.0,0.0,0.0,0.0,0.0,0.0,0.0,0.0,0.0,0.0,0.0,0.0,0.0,0.0,0.0,0.0,0.0,0.0,0.0,0.0,0.0,0.0,0.0,0.0,0.0,0.0,0.0,0.0,0.0,0.0,0.0,0.0,0.0,0.0,0.0,0.0,0.0,0.0,0.0,0.0,0.0,0.0,0.0,0.0,0.0,0.0,0.0,0.0,0.0,0.0,0.0,0.0,0.0,0.0,0.0,0.0,0.0,0.0,0.0,0.0,0.0,0.0,0.0,0.0,0.0,0.0,0.0,0.0,0.0,0.0,0.0,0.0,0.0,0.0,0.0,0.0,0.0,0.0,0.0,0.0,0.0,0.0,0.0,0.0,0.0,0.0,-2.9072,-3.1494,-3.282,-3.3378,-3.3105,-3.1653,-2.8962,0.0,0.0,0.0,0.0,0.0,0.0,0.0,0.0,0.0,0.0,0.0,0.0,0.0,0.0,0.0,0.0,0.0,0.0,0.0,0.0,0.0,0.0,0.0,0.0,0.0,0.0,0.0,0.0,0.0,0.0,0.0,0.0,0.0,0.0,0.0,0.0,0.0,0.0,0.0,0.0,0.0,0.0,0.0,0.0,0.0,0.0,0.0,0.0,0.0,0.0,0.0,0.0,0.0,0.0,0.0,0.0,0.0,0.0,0.0,0.0,0.0,0.0,0.0,0.0,0.0,0.0,0.0,0.0,0.0,0.0,0.0,0.0,0.0,0.0,0.0,0.0,0.0,0.0,0.0,0.0,0.0,0.0,0.0,0.0,0.0,0.0,0.0,0.0,0.0,0.0,0.0,0.0,0.0,0.0,0.0,0.0,0.0,0.0,0.0,0.0,0.0,0.0,0.0,0.0,0.0,0.0,0.0,0.0,-2.9628,-3.1762,-3.3423,-3.3981,-3.3345,-3.1043,-2.886,0.0,0.0,0.0,0.0,0.0,0.0,0.0,0.0,0.0,0.0,0.0,0.0,0.0,0.0,0.0,0.0,0.0,0.0,0.0,0.0,0.0,0.0,0.0,0.0,0.0,0.0,0.0,0.0,0.0,0.0,0.0,0.0,0.0,0.0,0.0,0.0,0.0,0.0,0.0,0.0,0.0,0.0,0.0,0.0,0.0,0.0,0.0,0.0,-1.6313,0.0,0.0,0.0,0.0,0.0,0.0,0.0,0.0,0.0,0.0,0.0,0.0,0.0,0.0,0.0,0.0,0.0,0.0,0.0,0.0,0.0,0.0,0.0,0.0,0.0,0.0,0.0,0.0,0.0,0.0,0.0,0.0,0.0,0.0,0.0,0.0,0.0,0.0,0.0,0.0,0.0,0.0,0.0,0.0,0.0,0.0,0.0,0.0,0.0,0.0,0.0,0.0,0.0,0.0,0.0,0.0,0.0,0.0,0.0,-3.0156,-3.2214,-3.3306,-3.3656,-3.3225,-3.1427,-2.9387,0.0,0.0,0.0,0.0,0.0,0.0,0.0,0.0,0.0,0.0,0.0,0.0,0.0,0.0,0.0,0.0,0.0,0.0,0.0,0.0,0.0,0.0,0.0,0.0,0.0,0.0,0.0,0.0,0.0,0.0,0.0,0.0,0.0,0.0,0.0,0.0,0.0,0.0,0.0,0.0,0.0,0.0,0.0,0.0,0.0,0.0,0.0,0.0,0.0,0.0,0.0,0.0,0.0,0.0,0.0,0.0,0.0,0.0,0.0,0.0,0.0,0.0,0.0,0.0,0.0,0.0,0.0,0.0,0.0,0.0,0.0,0.0,0.0,0.0,0.0,0.0,0.0,0.0,0.0,0.0,0.0,0.0,0.0,0.0,0.0,0.0,0.0,0.0,0.0,0.0,0.0,0.0,0.0,0.0,0.0,0.0,0.0,0.0,0.0,0.0,0.0,0.0,0.0,0.0,0.0,0.0,0.0,-2.859,-3.046,-3.2683,-3.2996,-3.3097,-3.308,-3.2015,-2.9868,-2.6559,0.0,0.0,0.0,0.0,0.0,0.0,0.0,0.0,0.0,0.0,0.0,0.0,0.0,0.0,0.0,0.0,0.0,0.0,0.0,0.0,0.0,0.0,0.0,0.0,0.0,0.0,0.0,0.0,0.0,0.0,0.0,0.0,0.0,0.0,0.0,0.0,0.0,0.0,-1.4133,-1.5909,0.0,0.0,0.0,0.0,0.0,0.0,0.0,0.0,-1.6793,0.0,0.0,0.0,0.0,0.0,0.0,0.0,0.0,0.0,0.0,0.0,0.0,0.0,0.0,0.0,0.0,0.0,0.0,0.0,0.0,0.0,0.0,0.0,0.0,0.0,0.0,0.0,0.0,0.0,0.0,0.0,0.0,0.0,0.0,0.0,0.0,0.0,0.0,0.0,0.0,0.0,0.0,0.0,0.0,0.0,0.0,0.0,0.0,0.0,0.0,0.0,0.0,0.0,0.0,0.0,0.0,-2.8265,-2.8398,-2.9992,-3.3193,-3.3161,-3.3097,-3.3064,-3.1581,-2.9403,-2.6571,0.0,0.0,0.0,0.0,0.0,0.0,0.0,0.0,0.0,0.0,0.0,0.0,0.0,0.0,0.0,0.0,0.0,0.0,0.0,0.0,0.0,0.0,0.0,0.0,0.0,0.0,0.0,0.0,0.0,0.0,0.0,0.0,0.0,0.0,0.0,0.0,0.0,0.0,0.0,-1.7829,-1.8521,0.0,0.0,0.0,0.0,0.0,0.0,0.0,0.0,-1.6393,0.0,0.0,0.0,0.0,0.0,0.0,0.0,0.0,0.0,0.0,0.0,0.0,0.0,0.0,0.0,0.0,0.0,0.0,0.0,0.0,0.0,0.0,0.0,0.0,0.0,0.0,0.0,0.0,0.0,0.0,0.0,0.0,0.0,0.0,0.0,0.0,0.0,0.0,0.0,0.0,0.0,0.0,0.0,0.0,0.0,0.0,0.0,0.0,0.0,0.0,0.0,0.0,0.0,0.0,0.0,-2.799,-2.9224,-3.0789,-3.2754,-3.2633,-3.2336,-3.194,-3.1067,-2.9092,0.0,0.0,0.0,0.0,0.0,0.0,0.0,0.0,0.0,0.0,0.0,0.0,0.0,0.0,0.0,0.0,0.0,0.0,0.0,0.0,0.0,0.0,0.0,0.0,0.0,0.0,0.0,0.0,0.0,0.0,0.0,0.0,0.0,0.0,0.0,0.0,0.0,0.0,0.0,0.0,-1.8807,-1.9347,-1.9852,0.0,0.0,0.0,0.0,0.0,0.0,-1.7353,-1.6949,0.0,0.0,0.0,0.0,0.0,0.0,0.0,0.0,0.0,0.0,0.0,0.0,0.0,0.0,0.0,0.0,0.0,0.0,0.0,0.0,0.0,0.0,0.0,0.0,0.0,0.0,0.0,0.0,0.0,0.0,0.0,0.0,0.0,0.0,0.0,0.0,0.0,0.0,0.0,0.0,0.0,0.0,0.0,0.0,0.0,0.0,0.0,0.0,0.0,0.0,0.0,0.0,0.0,0.0,0.0,-2.7498,-2.9683,-3.1291,-3.2177,-3.1927,-3.1487,-3.0875,-3.0546,-2.883,0.0,0.0,0.0,0.0,0.0,0.0,0.0,0.0,0.0,0.0,0.0,0.0,0.0,0.0,0.0,0.0,0.0,0.0,0.0,0.0,0.0,0.0,0.0,0.0,0.0,0.0,0.0,0.0,0.0,0.0,0.0,0.0,0.0,0.0,0.0,0.0,0.0,0.0,0.0,0.0,0.0,-2.0139,-2.0358,-1.9838,0.0,0.0,0.0,0.0,-1.8551,-1.83,0.0,0.0,0.0,0.0,0.0,0.0,0.0,0.0,0.0,0.0,0.0,0.0,0.0,0.0,0.0,0.0,0.0,0.0,0.0,0.0,0.0,0.0,0.0,0.0,0.0,0.0,0.0,0.0,0.0,0.0,0.0,0.0,0.0,0.0,0.0,0.0,0.0,0.0,0.0,0.0,0.0,0.0,0.0,0.0,0.0,0.0,0.0,0.0,0.0,0.0,0.0,0.0,0.0,0.0,0.0,0.0,-2.6967,-2.8494,-3.0185,-3.1897,-3.138,-3.0923,-3.0718,-3.0019,-2.8515,0.0,0.0,0.0,0.0,0.0,0.0,0.0,0.0,0.0,0.0,0.0,0.0,0.0,0.0,0.0,0.0,0.0,0.0,0.0,0.0,0.0,0.0,0.0,0.0,0.0,0.0,0.0,0.0,0.0,0.0,0.0,0.0,0.0,0.0,0.0,0.0,0.0,0.0,0.0,0.0,0.0,-2.1045,-2.0543,-1.988,-1.9333,0.0,0.0,-1.9622,-1.9625,-2.021,0.0,0.0,0.0,0.0,0.0,0.0,0.0,0.0,0.0,0.0,0.0,0.0,0.0,0.0,0.0,0.0,0.0,0.0,0.0,0.0,0.0,0.0,0.0,0.0,0.0,0.0,0.0,0.0,0.0,0.0,0.0,0.0,0.0,0.0,0.0,0.0,0.0,0.0,0.0,0.0,0.0,0.0,0.0,0.0,0.0,0.0,0.0,0.0,0.0,0.0,0.0,0.0,0.0,0.0,0.0,-2.5729,-2.6904,-2.8637,-3.0108,-3.1276,-3.07,-3.0289,-3.0245,-2.9753,-2.8504,0.0,0.0,0.0,0.0,0.0,0.0,0.0,0.0,0.0,0.0,0.0,0.0,0.0,0.0,0.0,0.0,0.0,0.0,0.0,0.0,0.0,0.0,0.0,0.0,0.0,0.0,0.0,0.0,0.0,0.0,0.0,0.0,0.0,0.0,0.0,0.0,0.0,0.0,0.0,0.0,0.0,0.0,-2.1473,-2.0908,0.0,0.0,0.0,-2.0909,-2.072,0.0,0.0,0.0,0.0,0.0,0.0,0.0,0.0,0.0,0.0,0.0,0.0,0.0,0.0,0.0,0.0,0.0,0.0,0.0,0.0,0.0,0.0,0.0,0.0,0.0,0.0,0.0,0.0,0.0,0.0,0.0,0.0,0.0,0.0,0.0,0.0,0.0,0.0,0.0,0.0,0.0,0.0,0.0,0.0,0.0,0.0,0.0,0.0,0.0,0.0,0.0,0.0,0.0,0.0,0.0,0.0,0.0,-2.6602,-2.876,-3.0139,-3.0619,-3.0156,-2.9874,-2.9808,-2.9608,0.0,0.0,0.0,0.0,0.0,0.0,0.0,0.0,0.0,0.0,0.0,0.0,0.0,0.0,0.0,0.0,0.0,0.0,0.0,0.0,0.0,0.0,0.0,0.0,0.0,0.0,0.0,-1.604,0.0,0.0,0.0,0.0,0.0,0.0,0.0,0.0,0.0,0.0,0.0,0.0,0.0,0.0,-2.1906,-2.2198,-2.1837,-2.1809,0.0,0.0,-2.1911,-2.1591,-2.1447,-2.0988,0.0,0.0,0.0,0.0,0.0,0.0,0.0,0.0,0.0,0.0,0.0,0.0,0.0,0.0,0.0,0.0,0.0,0.0,0.0,0.0,0.0,0.0,0.0,0.0,0.0,0.0,0.0,0.0,0.0,0.0,0.0,0.0,0.0,0.0,0.0,0.0,0.0,0.0,0.0,0.0,0.0,0.0,0.0,0.0,0.0,0.0,0.0,0.0,0.0,0.0,0.0,0.0,0.0,0.0,0.0,-2.5797,-2.847,-2.9913,-2.9961,-2.9913,-2.977,-2.9541,-2.9496,-2.8736,0.0,0.0,0.0,0.0,0.0,0.0,0.0,0.0,0.0,0.0,0.0,0.0,0.0,0.0,0.0,0.0,0.0,0.0,0.0,0.0,0.0,0.0,0.0,0.0,0.0,0.0,0.0,0.0,0.0,0.0,0.0,0.0,0.0,0.0,0.0,0.0,0.0,0.0,0.0,0.0,0.0,-2.2347,-2.239,-2.2226,-2.255,0.0,0.0,-2.2453,-2.1932,-2.2537,-2.2328,-2.0142,0.0,0.0,0.0,0.0,0.0,0.0,0.0,0.0,0.0,0.0,0.0,0.0,0.0,0.0,0.0,0.0,0.0,0.0,0.0,0.0,0.0,0.0,0.0,0.0,0.0,0.0,0.0,0.0,0.0,0.0,0.0,0.0,0.0,0.0,0.0,0.0,0.0,0.0,0.0,0.0,0.0,0.0,0.0,0.0,0.0,0.0,0.0,0.0,0.0,0.0,0.0,0.0,0.0,-2.5883,-2.6296,-2.8665,-2.9896,-2.9896,-2.9896,-2.9836,-2.9726,-2.9602,-2.9026,0.0,0.0,0.0,0.0,0.0,0.0,0.0,0.0,0.0,0.0,0.0,0.0,0.0,0.0,0.0,0.0,0.0,0.0,0.0,0.0,0.0,0.0,0.0,0.0,0.0,0.0,0.0,0.0,-1.7928,-1.7715,-1.705,0.0,0.0,0.0,0.0,0.0,0.0,0.0,0.0,0.0,0.0,-2.3483,-2.3463,-2.34,0.0,0.0,-2.4173,-2.3765,-2.3689,-2.3507,-2.296,-2.1733,-2.1033,0.0,0.0,0.0,0.0,0.0,0.0,0.0,0.0,0.0,0.0,0.0,0.0,0.0,0.0,0.0,0.0,0.0,0.0,0.0,0.0,0.0,0.0,0.0,0.0,0.0,0.0,0.0,0.0,0.0,0.0,0.0,0.0,0.0,0.0,0.0,0.0,0.0,0.0,0.0,0.0,0.0,0.0,0.0,0.0,0.0,0.0,0.0,0.0,0.0,0.0,0.0,0.0,-2.5972,-2.6701,-2.8811,-2.9896,-2.9896,-2.9896,-2.9874,-2.983,-2.9653,-2.9221,0.0,0.0,0.0,0.0,0.0,0.0,0.0,0.0,0.0,0.0,0.0,0.0,0.0,0.0,0.0,0.0,0.0,0.0,0.0,0.0,0.0,0.0,0.0,0.0,0.0,0.0,0.0,0.0,-1.8796,-1.8152,-1.752,0.0,0.0,0.0,0.0,0.0,0.0,0.0,0.0,0.0,0.0,-2.4422,-2.4359,-2.4359,-2.4585,-2.5163,-2.4827,-2.4504,-2.4526,-2.3882,-2.3171,-2.2439,0.0,0.0,0.0,0.0,0.0,0.0,0.0,0.0,0.0,0.0,0.0,0.0,0.0,0.0,0.0,0.0,0.0,0.0,0.0,0.0,0.0,0.0,0.0,0.0,0.0,0.0,0.0,0.0,0.0,0.0,-2.4788,0.0,0.0,0.0,0.0,0.0,0.0,0.0,0.0,0.0,0.0,0.0,0.0,0.0,0.0,0.0,0.0,0.0,0.0,0.0,0.0,0.0,0.0,-2.5988,-2.6737,-2.8811,-2.9896,-2.9913,-2.9896,-2.9863,-2.9768,-2.973,-2.9265,-2.8319,0.0,0.0,0.0,0.0,0.0,0.0,0.0,0.0,0.0,0.0,0.0,0.0,0.0,0.0,0.0,0.0,0.0,0.0,0.0,0.0,0.0,0.0,0.0,0.0,0.0,0.0,-1.9845,-1.8781,-1.8243,0.0,0.0,0.0,0.0,0.0,0.0,0.0,0.0,0.0,0.0,-2.4648,-2.4978,-2.4992,-2.4992,-2.5177,-2.5794,-2.5105,-2.4394,-2.4027,-2.3572,-2.2888,0.0,0.0,0.0,0.0,0.0,0.0,0.0,0.0,0.0,0.0,0.0,0.0,0.0,0.0,0.0,0.0,0.0,0.0,0.0,0.0,0.0,0.0,0.0,0.0,0.0,0.0,0.0,-2.8324,-2.7886,0.0,0.0,0.0,0.0,0.0,0.0,0.0,0.0,0.0,0.0,0.0,-3.351,-3.3756,0.0,0.0,0.0,0.0,0.0,0.0,0.0,0.0,0.0,0.0,0.0,0.0,-2.6668,-2.7413,-2.9038,-3.0123,-3.0554,-3.0571,-3.0791,-3.1198,-3.1151,-3.0218,-2.8357,0.0,0.0,0.0,0.0,0.0,0.0,0.0,0.0,0.0,0.0,0.0,0.0,0.0,0.0,0.0,0.0,0.0,0.0,0.0,0.0,0.0,0.0,0.0,0.0,0.0,-2.1154,0.0,0.0,0.0,0.0,0.0,0.0,0.0,0.0,0.0,0.0,0.0,-2.4155,-2.4779,-2.5297,-2.5611,-2.5584,-2.5598,-2.5669,0.0,0.0,0.0,0.0,0.0,0.0,0.0,0.0,0.0,0.0,0.0,0.0,0.0,0.0,-2.0612,-1.9361,-1.9034,-1.89,-1.8596,0.0,0.0,0.0,0.0,0.0,0.0,0.0,0.0,0.0,0.0,0.0,0.0,0.0,0.0,-3.0154,0.0,-2.955,0.0,0.0,0.0,0.0,0.0,0.0,0.0,0.0,-3.2793,-3.3945,-3.4382,-3.4888,-3.504,0.0,-3.4603,-3.3397,0.0,0.0,0.0,0.0,0.0,0.0,0.0,0.0,-2.8012,-2.8503,-2.9913,-3.083,-3.1244,-3.1276,-3.1487,-3.1956,-3.1798,-3.1013,-2.9514,-2.8801,-2.8082,0.0,0.0,0.0,0.0,0.0,0.0,0.0,0.0,0.0,0.0,0.0,0.0,0.0,0.0,0.0,0.0,0.0,0.0,0.0,0.0,0.0,0.0,0.0,-2.2832,0.0,0.0,0.0,0.0,0.0,0.0,0.0,0.0,0.0,-2.3348,-2.4385,-2.5222,-2.5434,-2.5709,-2.5893,-2.5893,0.0,0.0,0.0,0.0,0.0,0.0,0.0,-2.5173,-2.4948,-2.4146,-2.352,-2.3628,-2.3326,-2.283,-2.1959,0.0,0.0,-2.0781,-2.041,-2.0264,-2.0001,-1.9941,-1.9941,-1.9953,-1.9941,-1.9941,0.0,0.0,0.0,0.0,0.0,0.0,0.0,0.0,-3.1407,-3.1675,0.0,-3.1124,0.0,0.0,0.0,0.0,0.0,-3.0046,0.0,0.0,-3.4226,-3.5176,-3.4685,-3.5743,-3.6287,-3.6254,-3.5509,-3.5146,-3.4968,-3.2336,0.0,0.0,0.0,0.0,0.0,0.0,-2.9913,-2.9945,-3.1251,-3.2012,-3.2044,-3.2044,-3.206,-3.2069,-3.1839,-3.1686,-3.155,-3.0061,-2.9247,-2.9289,-2.6724,0.0,0.0,0.0,0.0,0.0,0.0,0.0,0.0,0.0,0.0,0.0,0.0,0.0,0.0,0.0,0.0,0.0,0.0,0.0,0.0,-2.5465,0.0,0.0,0.0,0.0,0.0,0.0,0.0,0.0,0.0,0.0,-2.4992,-2.5035,-2.5219,-2.5809,0.0,0.0,0.0,0.0,-2.5893,-2.5893,-2.5674,-2.5536,-2.5564,-2.5145,-2.4877,-2.4875,0.0,0.0,-2.3665,-2.3966,-2.3979,-2.3015,-2.3231,-2.31,-2.1565,-2.1155,-2.0911,-2.0588,-2.0527,-2.0454,-2.0435,-2.0435,-2.0435,-3.653,0.0,0.0,0.0,0.0,-3.3951,-3.4219,-3.4711,-3.4068,-3.3594,-3.3278,-3.2508,0.0,0.0,0.0,0.0,0.0,0.0,-3.1772,-3.3323,-3.4177,-3.4964,-3.5792,-3.6135,-3.6276,-3.6244,-3.5552,-3.5185,-3.5146,-3.3825,-3.2368,-3.082,0.0,0.0,0.0,0.0,-3.0613,-3.0684,-3.1526,-3.2255,-3.2773,-3.2773,-3.3,-3.3485,-3.3253,-3.2862,-3.2415,-3.172,-3.098,-3.0123,-2.8828,0.0,0.0,0.0,0.0,0.0,0.0,0.0,0.0,0.0,0.0,0.0,0.0,0.0,0.0,0.0,0.0,0.0,0.0,0.0,-2.6243,-2.5818,-2.516,0.0,0.0,0.0,0.0,0.0,0.0,0.0,0.0,0.0,-2.571,-2.564,-2.5697,0.0,0.0,-2.5893,-2.5893,-2.5893,-2.5893,-2.5893,-2.5839,0.0,-2.6358,-2.5953,-2.5744,-2.6161,-2.5757,-2.512,-2.4325,-2.4431,-2.4328,-2.3638,-2.3537,-2.3369,-2.2743,-2.2524,-2.231,-2.1939,-2.1713,-2.1509,-2.1179,-2.1065,-2.0971,-3.949,-3.7469,-3.6493,-3.6296,-3.6642,-3.6095,-3.6463,-3.7319,-3.6456,-3.5985,-3.5787,-3.4691,-3.3924,-3.3423,-3.2712,0.0,0.0,0.0,-3.4127,-3.5817,-3.6092,-3.6707,-3.7533,-3.7566,-3.7566,-3.7517,-3.6529,-3.6027,-3.6027,-3.5315,-3.4392,-3.3291,0.0,0.0,-3.1225,-3.1834,-3.2021,-3.1834,-3.2465,-3.3048,-3.3469,-3.3485,-3.368,-3.4084,-3.3899,-3.3563,-3.3127,-3.2892,-3.246,-3.174,-3.068,-2.9929,0.0,0.0,0.0,0.0,0.0,0.0,0.0,0.0,0.0,0.0,0.0,-2.6152,0.0,0.0,0.0,0.0,-2.6379,-2.6639,-2.7275,-2.691,0.0,0.0,0.0,0.0,0.0,0.0,0.0,-2.6708,-2.6849,-2.6848,-2.6384,-2.6185,-2.6002,-2.5921,-2.5893,-2.5893,-2.5893,0.0,-2.5893,-2.5893,-2.5893,-2.602,-2.6385,-2.6132,-2.6104,-2.6708,-2.6218,-2.5758,-2.5489,-2.5254,-2.4978,-2.4639,-2.4394,-2.4176,-2.3975,-2.3904,-2.3653,-2.2847,-2.2573,-2.2359,-2.1959,-2.1815,-2.1745,-4.1819,-4.1016,-3.8221,-3.7594,-3.8351,-3.7602,-3.8074,-3.9305,-3.855,-3.8486,-3.8815,-3.7247,-3.6928,-3.7411,-3.6101,0.0,-3.6562,-3.6562,-3.7258,-3.8586,-3.925,-3.9586,-3.9557,-3.9522,-3.9476,-3.9457,-3.8003,-3.7295,-3.7231,-3.661,-3.5963,-3.5292,-3.4538,-3.3841,-3.3242,-3.3777,-3.3793,-3.3202,-3.3777,-3.4101,-3.4101,-3.4101,-3.4101,-3.4101,-3.3975,-3.3822,-3.371,-3.3565,-3.3555,-3.3636,-3.2322,-3.1422,-3.1032,0.0,0.0,0.0,0.0,0.0,0.0,0.0,0.0,0.0,0.0,0.0,0.0,0.0,0.0,0.0,-2.8145,0.0,-2.8528,-2.8423,0.0,0.0,0.0,-2.8709,-2.8639,-2.8326,-2.8037,-2.7864,0.0,0.0,-2.699,-2.6618,-2.6277,-2.6018,-2.5949,-2.5921,-2.5921,-2.5921,-2.5921,-2.5948,-2.5921,-2.5935,-2.6103,-2.6061,-2.6174,-2.6582,-2.6259,-2.6077,-2.6456,-2.6134,-2.573,-2.5619,-2.5425,-2.5202,-2.5202,-2.5159,-2.4862,-2.359,-2.3267,-2.3105,-2.2713,-2.2622,-2.2555,-4.348,-4.3277,-4.1524,-4.0745,-4.0619,-4.0409,-4.0271,-4.015,-4.0236,-3.9522,-3.8222,-3.8139,-3.7872,-3.7514,-3.7698,-3.8147,-3.8732,-3.876,-3.9185,-3.9978,-4.0173,-4.0254,-4.0221,-3.9719,-3.9476,-3.9408,-3.8019,-3.7295,-3.7263,-3.6627,-3.6222,-3.6011,-3.5283,-3.4596,-3.389,-3.402,-3.402,-3.3858,-3.402,-3.4101,-3.4101,-3.4101,-3.4101,-3.4101,-3.3975,-3.3822,-3.371,-3.3565,-3.3529,-3.3555,-3.3297,-3.3143,-3.3142,-3.1078,0.0,0.0,0.0,0.0,0.0,0.0,0.0,0.0,0.0,-2.995,-3.0236,0.0,-2.9971,0.0,-2.9583,-2.9057,-2.8774,-2.9064,0.0,0.0,-2.9657,-2.94,-2.9845,-2.9406,-2.89,-2.8383,-2.8395,-2.8093,-2.7103,-2.7029,-2.6972,-2.6763,-2.6435,-2.6206,-2.6192,-2.6206,-2.6206,-2.6192,-2.622,-2.6322,-2.6608,-2.6652,-2.6469,-2.616,-2.5992,-2.5964,-2.609,-2.5964,-2.5797,-2.5729,-2.555,-2.5453,-2.5439,-2.5698,-2.5694,-2.507,-2.4523,-2.3933,-2.3284,-2.3212,-2.3195,-4.4179,-4.4253,-4.3136,-4.2321,-4.1791,-4.1733,-4.1688,-4.1576,-4.1426,-4.0745,-3.9706,-3.987,-3.9349,-3.8504,-3.9774,-4.0199,-4.0024,-4.0577,-4.1079,-4.1436,-4.1452,-4.1436,-4.1403,-4.0399,-3.993,-3.9881,-3.8472,-3.7792,-3.7776,-3.742,-3.7064,-3.6756,-3.6044,-3.5315,-3.4603,-3.4262,-3.4246,-3.4586,-3.4262,-3.4101,-3.4101,-3.4101,-3.4101,-3.4101,-3.4025,-3.3899,-3.3694,-3.3633,-3.3421,-3.3134,-3.3483,-3.3643,-3.3539,-3.2834,-3.3228,0.0,0.0,0.0,0.0,0.0,0.0,0.0,0.0,0.0,0.0,0.0,-3.1041,-3.0474,-3.0147,-2.9932,-2.9777,-3.0056,-3.054,-3.1316,-3.0794,-3.0537,-3.0911,-3.0454,-2.9944,-2.9566,-2.9347,-2.8985,-2.8369,-2.8192,-2.81,-2.817,-2.8025,-2.7596,-2.6797,-2.6618,-2.6546,-2.6343,-2.6487,-2.6576,-2.6621,-2.6538,-2.6441,-2.6328,-2.6076,-2.5978,-2.6231,-2.6062,-2.5866,-2.5784,-2.5688,-2.5592,-2.5605,-2.5771,-2.5854,-2.5591,-2.5328,-2.4893,-2.4221,-2.4121,-2.4076,-4.4467,-4.4572,-4.3748,-4.3023,-4.2387,-4.2301,-4.2408,-4.2624,-4.1966,-4.1648,-4.1618,-4.1594,-4.0915,-3.991,-4.1662,-4.1808,-4.0723,-4.189,-4.2457,-4.2457,-4.2473,-4.2505,-4.2538,-4.116,-4.0496,-4.0432,-3.925,-3.8618,-3.8537,-3.8537,-3.823,-3.7554,-3.6821,-3.6141,-3.56,-3.47,-3.4505,-3.5049,-3.4408,-3.4101,-3.4101,-3.4101,-3.4101,-3.4101,-3.4101,-3.3975,-3.3761,-3.371,-3.3422,-3.2805,-3.3348,-3.3524,-3.3266,-3.4278,-3.5003,0.0,-3.5557,0.0,0.0,0.0,0.0,0.0,0.0,0.0,0.0,-3.3124,-3.2337,-3.0484,-3.0494,-3.0722,-3.1094,-3.1231,-3.1615,-3.2376,-3.212,-3.1881,-3.1866,-3.1437,-3.1073,-3.0984,-3.0236,-2.9813,-2.9855,-2.9512,-2.9379,-2.957,-2.9716,-2.9247,-2.7889,-2.7368,-2.7081,-2.6592,-2.6758,-2.6703,-2.6321,-2.6207,-2.6282,-2.6581,-2.6286,-2.6118,-2.6582,-2.6343,-2.602,-2.6006,-2.5952,-2.5855,-2.5841,-2.5841,-2.58,-2.5633,-2.5772,-2.5772,-2.5201,-2.5061,-2.4991,-4.5268,-4.5232,-4.4037,-4.332,-4.293,-4.293,-4.1999,-4.0541,-4.0841,-4.0902,-4.0799,-4.1336,-4.145,-4.1239,-4.1612,-4.1614,-4.1401,-4.1677,-4.179,-4.1806,-4.1759,-4.2067,-4.2489,-4.116,-4.0496,-4.048,-4.0205,-3.98,-3.9295,-3.9295,-3.923,-3.9039,-3.7776,-3.7355,-3.7663,0.0,0.0,0.0,-3.4165,-3.4101,-3.4101,-3.4101,-3.4101,-3.4101,-3.4101,0.0,-3.3873,-3.3745,-3.363,-3.3492,-3.3517,0.0,0.0,0.0,0.0,0.0,0.0,0.0,0.0,0.0,0.0,0.0,-3.4663,-3.3747,-3.2395,-3.2777,-3.2526,-3.12,-3.1961,-3.2357,-3.1925,-3.2377,-3.2779,-3.2931,-3.2881,-3.2839,-3.2812,-3.2176,-3.1766,-3.1894,-3.1144,-3.0485,-3.0287,-3.0134,-3.0103,-3.0199,-3.0063,-3.0034,-3.0031,-2.8924,-2.8083,-2.7842,-2.7263,-2.6632,-2.6433,-2.6369,-2.6345,-2.6348,-2.6238,-2.6127,-2.6241,-2.6511,-2.6638,-2.6638,-2.6525,-2.6469,-2.654,-2.6497,-2.6274,-2.5882,-2.6245,-2.6372,-2.5591,-2.5578,-2.5591,-4.5545,0.0,-4.4087,-4.3144,0.0,-4.2498,-4.1621,-4.0261,-4.1262,-4.1642,-4.1565,-4.1921,-4.1905,-4.1596,-4.1596,-4.1401,-4.1077,-4.1061,-4.1031,-4.1061,-4.1047,-4.1419,-4.2067,-4.0998,-4.0675,-4.1045,-4.0688,-4.0318,-3.9994,-3.9978,-3.9846,-3.9505,-3.8375,-3.7857,-3.7809,-3.6092,-3.4855,-3.4117,-3.4441,-3.4635,-3.466,-3.4635,-3.4635,-3.4644,-3.4244,0.0,0.0,0.0,0.0,0.0,0.0,0.0,0.0,-3.4478,0.0,-3.5598,-3.6419,-3.6786,-3.6527,-3.5775,-3.5224,-3.5104,-3.4306,-3.3603,-3.314,-3.3187,-3.293,-3.2329,-3.2898,-3.3114,-3.2667,-3.2908,-3.3112,-3.3112,-3.3112,-3.3123,-3.315,-3.285,-3.259,-3.2492,-3.1864,-3.1315,-3.1257,-3.1155,-3.1183,-3.1321,-3.1528,-3.1672,-3.1678,-3.0477,-2.9411,-2.9245,-2.8429,-2.7788,-2.7636,-2.72,-2.6852,-2.6783,-2.6459,-2.6335,-2.6521,-2.675,-2.699,-2.7229,-2.7227,-2.7128,-2.6849,-2.6736,-2.654,-2.6063,-2.6132,-2.6245,-2.5771,-2.5825,-2.5839,-4.5772,-4.5682,-4.4235,-4.3111,-4.2337,-4.2094,-4.1601,-4.101,0.0,0.0,0.0,-4.2554,-4.231,-4.179,-4.1661,-4.1272,-4.0737,-4.0691,-4.0721,-4.0675,-4.0721,-4.1093,-4.1711,-4.1045,-4.1029,-4.1563,-4.1096,-4.082,-4.0675,-4.0721,-4.0429,-3.9846,-3.9007,-3.8165,-3.7279,-3.6141,-3.5202,-3.4554,-3.4968,-3.5276,-3.539,-3.5406,-3.5406,-3.5406,-3.4694,-3.4275,-3.413,-3.3992,-3.3614,-3.3003,-3.3515,-3.3614,-3.3294,-3.5063,-3.6168,-3.6287,-3.748,-3.7935,-3.7327,-3.6258,-3.5279,-3.4452,-3.3778,-3.3619,-3.4126,-3.3636,-3.3319,-3.3414,-3.3477,-3.345,-3.3256,-3.3272,-3.3256,-3.3229,-3.3256,-3.3293,-3.3414,-3.3346,-3.3266,-3.3076,-3.2532,-3.2158,-3.2299,-3.2213,-3.2216,-3.2465,-3.2837,-3.3282,-3.2949,-3.1643,-3.0478,-3.0103,-2.9406,-2.9094,-2.8897,-2.8181,-2.7615,-2.7404,-2.6861,-2.6581,-2.6817,-2.7016,-2.7244,-2.7555,-2.7695,-2.7398,-2.6947,-2.668,-2.6483,-2.5992,-2.5893,-2.5893,-2.5893,-2.5893,-2.5893,-4.6329,-4.5715,-4.4887,-4.3988,-4.321,-4.2996,-4.2794,-4.2527,-4.1983,-4.1758,-4.1759,-4.2359,-4.2538,-4.2408,-4.184,-4.1547,-4.1466,-4.1466,-4.145,-4.145,-4.145,-4.1792,-4.2392,-4.1743,-4.1498,-4.1644,-4.2067,-4.2019,-4.1515,-4.145,-4.1401,-4.1142,-4.0008,-3.8667,-3.7392,-3.7112,-3.6691,-3.6011,-3.5461,-3.5493,-3.6125,-3.6141,-3.6157,-3.6157,-3.6017,-3.5873,-3.5664,-3.5006,-3.4574,-3.4409,-3.4287,-3.4356,-3.4709,-3.6006,-3.6874,-3.7155,-3.791,-3.8274,-3.8032,-3.6625,-3.5176,-3.3847,-3.4213,-3.4308,-3.3667,-3.3435,-3.3466,-3.3745,-3.3736,-3.371,-3.3771,-3.3771,-3.3745,-3.3745,-3.3787,-3.3797,-3.3813,-3.3591,-3.3529,-3.3565,-3.3182,-3.2846,-3.2935,-3.3,-3.2947,-3.2935,-3.3176,-3.3372,-3.2986,-3.2044,-3.0991,-3.0247,-2.9768,-2.9535,-2.9582,-2.8744,-2.8263,-2.7927,-2.7433,-2.7021,-2.6942,-2.7318,-2.7594,-2.7441,-2.7442,-2.7202,-2.699,-2.644,-2.6146,-2.5921,-2.5893,-2.5893,-2.5893,-2.5893,-2.5893,-4.6096,-4.5665,-4.4589,-4.3836,-4.3372,-4.3099,-4.2899,-4.2711,-4.2325,-4.221,-4.2304,-4.2519,-4.2602,-4.2538,-4.1889,-4.1596,-4.1579,-4.1207,-4.0998,-4.1029,-4.0982,-4.1355,-4.197,-4.1758,-4.1806,-4.2148,-4.2424,-4.2441,-4.2164,-4.2148,-4.197,-4.1563,-4.0559,-3.9509,-3.8537,-3.81,-3.7744,-3.7436,-3.6707,-3.6497,-3.6853,-3.6842,-3.6826,-3.6826,-3.64,-3.6104,-3.5991,-3.5648,-3.5241,-3.4766,-3.5048,-3.5134,-3.4936,-3.6247,-3.7074,-3.7201,-3.7947,-3.8157,-3.7629,-3.6477,-3.5502,-3.484,-3.5091,-3.5182,-3.4793,-3.3995,-3.3633,-3.3873,-3.3848,-3.3822,-3.3915,-3.3899,-3.3899,-3.3899,-3.3899,-3.3924,-3.3975,-3.3924,-3.3848,-3.3857,-3.3539,-3.3293,-3.3319,-3.3293,-3.3229,-3.3069,-3.3272,-3.3335,-3.3229,-3.2787,-3.2204,-3.1685,-3.1297,-3.1134,-3.1061,-3.0344,-2.9766,-2.9624,-2.9071,-2.8672,-2.8542,-2.8816,-2.8854,-2.8857,-2.8453,-2.7924,-2.7626,-2.6905,-2.6371,-2.5936,-2.5893,-2.5893,-2.5893,-2.5893,-2.5893,-4.6079,-4.5682,-4.4528,-4.3762,-4.3267,-4.3084,-4.2899,-4.2728,-4.268,-4.2759,-4.2899,-4.2696,-4.2602,-4.2538,-4.2051,-4.1808,-4.1727,-4.1225,-4.0966,-4.0982,-4.0966,-4.1274,-4.1759,-4.1808,-4.2116,-4.2554,-4.2602,-4.2602,-4.2602,-4.2602,-4.2261,-4.1612,-4.1029,-4.0399,-3.9703,-3.8991,-3.8651,-3.8586,-3.7922,-3.7566,-3.7566,-3.7566,-3.7549,-3.7506,-3.6906,-3.6529,-3.6501,-3.634,-3.5937,-3.5364,-3.5878,-3.5937,-3.5439,-3.6596,-3.7371,-3.7447,-3.8028,-3.8012,-3.7178,-3.6676,-3.622,-3.5872,-3.6043,-3.6087,-3.5835,-3.4877,-3.4172,-3.4121,-3.4121,-3.4057,-3.3931,-3.3873,-3.3873,-3.3924,-3.3899,-3.3949,-3.4075,-3.4101,-3.4101,-3.405,-3.3822,-3.3617,-3.3581,-3.3529,-3.345,-3.3361,-3.3361,-3.3372,-3.3372,-3.3372,-3.3309,-3.3096,-3.2784,-3.2528,-3.2532,-3.1728,-3.1151,-3.1082,-3.0472,-3.0016,-2.9993,-3.0026,-3.0009,-2.9842,-2.9361,-2.8569,-2.7983,-2.7442,-2.6735,-2.613,-2.5975,-2.5988,-2.5921,-2.5921,-2.5893,-4.699,-4.5833,-4.5458,-4.4435,-4.3072,-4.3221,-4.3235,-4.3052,-4.293,-4.2945,-4.3052,-4.2743,-4.2602,-4.2602,-4.2522,-4.2473,-4.2473,-4.2424,-4.236,-4.2344,-4.2392,-4.2441,-4.2457,-4.2489,-4.2538,-4.2602,-4.2602,-4.2602,-4.2602,-4.2602,-4.2278,-4.1677,-4.1531,-4.1158,-4.0399,-3.9748,-3.9392,-3.9392,-3.8667,-3.8294,-3.8294,-3.8311,-3.8294,-3.8294,-3.8201,-3.8113,-3.7903,-3.7343,-3.6901,-3.673,-3.6746,-3.6862,-3.6929,-3.7649,-3.8153,-3.825,-3.8359,-3.8028,-3.7258,-3.7745,-3.7471,-3.6227,-3.6761,-3.6912,-3.6362,-3.598,-3.5471,-3.4926,-3.4739,-3.4444,-3.3986,-3.3797,-3.3822,-3.4025,-3.3975,-3.3949,-3.4075,-3.4101,-3.4101,-3.4101,-3.4025,-3.4016,-3.3873,-3.3899,-3.3924,-3.3761,-3.3658,-3.3617,-3.3617,-3.3617,-3.3633,-3.3555,-3.3293,-3.3107,-3.3029,-3.2273,-3.1734,-3.1431,-3.0869,-3.0569,-3.0476,-3.0204,-2.9853,-3.0261,-2.9451,-2.8808,-2.8088,-2.7515,-2.7232,-2.6322,-2.6096,-2.6177,-2.5975,-2.5893,-2.5893,-4.6658,-4.5993,-4.5083,-4.4235,-4.3509,-4.3565,-4.3535,-4.3369,-4.3113,-4.3052,-4.3052,-4.2743,-4.2602,-4.2602,-4.2602,-4.2602,-4.2602,-4.2602,-4.2602,-4.2602,-4.2602,-4.2602,-4.2602,-4.2602,-4.2602,-4.2602,-4.2602,-4.2602,-4.2602,-4.2602,-4.2441,-4.2229,-4.2197,-4.184,-4.1144,-4.0461,-3.991,-3.9489,-3.878,-3.8391,-3.8391,-3.8391,-3.8391,-3.8391,-3.8391,-3.8379,-3.829,-3.8016,-3.7592,-3.7126,-3.7504,-3.7564,-3.7118,-3.7879,-3.8351,-3.8391,-3.8391,-3.8234,-3.7886,-3.8218,-3.8121,-3.7434,-3.7748,-3.7825,-3.7582,-3.7462,-3.7072,-3.6226,-3.5358,-3.453,-3.3915,-3.3736,-3.3771,-3.3949,-3.3924,-3.3965,-3.4075,-3.4117,-3.4101,-3.4101,-3.4101,-3.4092,-3.4025,-3.4,-3.3949,-3.3873,-3.3787,-3.3752,-3.3694,-3.3694,-3.372,-3.3771,-3.3668,-3.3565,-3.3523,-3.3218,-3.2798,-3.2615,-3.2432,-3.2139,-3.1707,-3.1567,-3.142,-3.1156,-3.0466,-2.9754,-2.9038,-2.8233,-2.7664,-2.6728,-2.6069,-2.6015,-2.5921,-2.5893,-2.5893,-4.6642,-4.6089,-4.4717,-4.3964,-4.3772,-4.386,-4.3772,-4.3595,-4.3342,-4.3204,-4.3066,-4.2821,-4.2665,-4.2602,-4.2602,-4.2602,-4.2602,-4.2602,-4.2602,-4.2602,-4.2602,-4.2602,-4.2602,-4.2711,-4.2759,-4.2743,-4.2743,-4.268,-4.2602,-4.2602,-4.2602,-4.2602,-4.2602,-4.2344,-4.1857,-4.1144,-4.0575,-4.0089,-3.9376,-3.8974,-3.8991,-3.8974,-3.8796,-3.8489,-3.878,-3.8893,-3.8715,-3.8877,-3.8622,-3.783,-3.8367,-3.8319,-3.7572,-3.8238,-3.8699,-3.8699,-3.8683,-3.8602,-3.8424,-3.8391,-3.8391,-3.8391,-3.8391,-3.8391,-3.8391,-3.8391,-3.7983,-3.7129,-3.6071,-3.5182,-3.4477,-3.4296,-3.4284,-3.4278,-3.4343,-3.4465,-3.4431,-3.4538,-3.4764,-3.4716,-3.4845,-3.47,-3.469,-3.4688,-3.462,-3.4368,-3.422,-3.3973,-3.3845,-3.3822,-3.3848,-3.3949,-3.3933,-3.3899,-3.3838,-3.3713,-3.3736,-3.3617,-3.3443,-3.3219,-3.3069,-3.2861,-3.2656,-3.1955,-3.1537,-3.0831,-2.9768,-2.8954,-2.8192,-2.717,-2.6472,-2.615,-2.6204,-2.6138,-2.6111,-4.7563,-4.617,-4.4717,-4.3952,-4.3654,-4.3998,-4.3923,-4.3687,-4.3582,-4.3386,-4.3143,-4.2945,-4.2759,-4.2618,-4.2634,-4.2602,-4.2602,-4.2602,-4.2602,-4.2602,-4.2602,-4.2602,-4.2634,-4.2929,-4.3052,-4.3007,-4.3072,-4.2916,-4.2619,-4.2602,-4.2602,-4.2602,-4.2602,-4.2586,-4.2408,-4.1808,-4.1515,-4.1288,-4.064,-4.0335,-4.0351,-4.0367,-3.9752,-3.8764,-3.9671,-4.0011,-3.9603,-4.0059,-4.0043,-3.9395,-3.9424,-3.9104,-3.8521,-3.9055,-3.9457,-3.9428,-3.9473,-3.9136,-3.8553,-3.8472,-3.8424,-3.8391,-3.8391,-3.8391,-3.8391,-3.8391,-3.806,-3.7182,-3.7037,-3.6619,-3.6007,-3.561,-3.5396,-3.5156,-3.5556,-3.5582,-3.5202,-3.5655,-3.6141,-3.6108,-3.6011,-3.5946,-3.6076,-3.6206,-3.5726,-3.5289,-3.5121,-3.4933,-3.4406,-3.418,-3.4131,-3.4131,-3.4124,-3.4075,-3.4075,-3.3975,-3.3899,-3.3797,-3.3642,-3.3503,-3.3361,-3.3203,-3.3032,-3.2827,-3.2466,-3.1736,-3.0517,-2.955,-2.8782,-2.788,-2.7006,-2.6642,-2.6563,-2.663,-2.6551,-4.7265,-4.59,-4.5344,-4.4798,-4.432,-4.4877,-4.4798,-4.4229,-4.401,-4.3848,-4.3671,-4.3235,-4.299,-4.2898,-4.2696,-4.2602,-4.2602,-4.2602,-4.2602,-4.2602,-4.2602,-4.2602,-4.2651,-4.3197,-4.3196,-4.2888,-4.3245,-4.3166,-4.2666,-4.2602,-4.2602,-4.2602,-4.2602,-4.2602,-4.2473,-4.1921,-4.1596,-4.1531,-4.0853,-4.0496,-4.0577,-4.098,-4.0707,-3.9833,-4.0221,-4.0383,-4.014,-4.0367,-4.0367,-4.014,-4.0154,-4.0011,-3.98,-3.9978,-4.0124,-4.0124,-4.014,-3.9816,-3.923,-3.9116,-3.8877,-3.8456,-3.8391,-3.8391,-3.8391,-3.8391,-3.8234,-3.7995,-3.7919,-3.7757,-3.739,-3.6543,-3.5786,-3.5771,-3.5868,-3.604,-3.5985,-3.6157,-3.6276,-3.6276,-3.6276,-3.6276,-3.6384,-3.6276,-3.6189,-3.5963,-3.5898,-3.5752,-3.5525,-3.5137,-3.4797,-3.4741,-3.4408,-3.4101,-3.4101,-3.4075,-3.4,-3.3924,-3.3797,-3.3694,-3.3607,-3.3529,-3.3346,-3.3293,-3.3076,-3.2613,-3.1415,-3.0151,-2.9368,-2.8363,-2.749,-2.7218,-2.6941,-2.7076,-2.689,-4.7344,-4.6447,-4.616,-4.5771,-4.5348,-4.5585,-4.5522,-4.511,-4.4471,-4.426,-4.4236,-4.3651,-4.3325,-4.3218,-4.3021,-4.2929,-4.2898,-4.2836,-4.2836,-4.2929,-4.2929,-4.2929,-4.3043,-4.3679,-4.3709,-4.3246,-4.3573,-4.3526,-4.2978,-4.2805,-4.2759,-4.279,-4.2665,-4.2602,-4.2505,-4.2148,-4.1905,-4.1808,-4.1419,-4.1193,-4.1257,-4.1646,-4.1695,-4.1274,-4.1177,-4.1047,-4.0869,-4.1047,-4.1063,-4.0885,-4.0853,-4.0739,-4.0513,-4.0496,-4.0496,-4.0496,-4.0496,-4.0189,-3.9586,-3.9311,-3.891,-3.8472,-3.8391,-3.8391,-3.8391,-3.8391,-3.8391,-3.8391,-3.8391,-3.8391,-3.8185,-3.7318,-3.6603,-3.6496,-3.662,-3.6696,-3.6648,-3.6869,-3.7015,-3.7064,-3.708,-3.7031,-3.6983,-3.6999,-3.6902,-3.6691,-3.6643,-3.6551,-3.6287,-3.593,-3.5542,-3.5525,-3.5202,-3.5007,-3.491,-3.482,-3.4334,-3.4161,-3.3915,-3.3848,-3.3797,-3.3745,-3.372,-3.3668,-3.3489,-3.3099,-3.2244,-3.0923,-2.985,-2.8828,-2.8319,-2.8028,-2.7784,-2.7572,-2.7372,-4.7872,-4.7686,-4.7107,-4.6701,-4.6447,-4.6007,-4.6022,-4.5955,-4.4848,-4.4514,-4.4695,-4.4085,-4.3713,-4.3625,-4.3618,-4.3615,-4.3535,-4.3361,-4.3344,-4.3505,-4.3519,-4.3519,-4.3568,-4.4235,-4.4473,-4.411,-4.406,-4.3914,-4.3635,-4.3298,-4.3113,-4.3052,-4.2805,-4.2696,-4.2634,-4.2584,-4.2553,-4.2567,-4.2469,-4.2503,-4.2586,-4.2537,-4.2504,-4.2457,-4.2441,-4.218,-4.1644,-4.2164,-4.2164,-4.1693,-4.1612,-4.1241,-4.0772,-4.0691,-4.0594,-4.0691,-4.061,-4.0237,-3.9651,-3.9088,-3.8861,-3.8537,-3.8456,-3.8472,-3.8408,-3.8391,-3.8391,-3.8391,-3.8391,-3.8391,-3.8391,-3.8234,-3.7943,-3.7489,-3.7765,-3.7845,-3.757,-3.7938,-3.8359,-3.8246,-3.8181,-3.8343,-3.8343,-3.8165,-3.7906,-3.7469,-3.7295,-3.7161,-3.674,-3.6465,-3.6319,-3.6303,-3.6044,-3.5768,-3.5752,-3.5671,-3.4975,-3.4399,-3.4088,-3.3899,-3.3899,-3.3873,-3.3822,-3.3797,-3.3745,-3.3371,-3.2568,-3.1388,-3.0873,-3.0016,-2.9465,-2.8884,-2.8703,-2.8461,-2.8021,-4.7906,-4.7872,-4.7665,-4.6955,-4.616,-4.6329,-4.6029,-4.5206,-4.4666,-4.4575,-4.4613,-4.4227,-4.3981,-4.404,-4.4212,-4.4208,-4.4002,-4.4314,-4.4225,-4.3704,-4.3625,-4.3671,-4.3774,-4.4373,-4.4901,-4.5039,-4.4208,-4.3979,-4.4172,-4.3737,-4.3476,-4.3369,-4.3113,-4.3082,-4.3218,-4.299,-4.2945,-4.3218,-4.3204,-4.3099,-4.2959,-4.2929,-4.2836,-4.2634,-4.2602,-4.2489,-4.2311,-4.2489,-4.2473,-4.2246,-4.2294,-4.2197,-4.1955,-4.1939,-4.1923,-4.1939,-4.1954,-4.1646,-4.1045,-4.0672,-4.0056,-3.9408,-3.9136,-3.8877,-3.8472,-3.8391,-3.8391,-3.8391,-3.8391,-3.8391,-3.8391,-3.8391,-3.8311,-3.81,-3.8262,-3.8327,-3.8084,-3.8246,-3.8375,-3.8391,-3.8391,-3.8391,-3.8391,-3.8391,-3.8294,-3.81,-3.8003,-3.7857,-3.7711,-3.7242,-3.6988,-3.6972,-3.668,-3.6497,-3.6448,-3.6335,-3.5866,-3.5169,-3.4697,-3.4258,-3.4152,-3.3975,-3.3949,-3.3899,-3.3848,-3.3496,-3.2692,-3.2133,-3.1646,-3.1015,-3.0279,-2.9909,-2.9685,-2.9298,-2.885,-4.8325,-4.8325,-4.8294,-4.78,-4.6904,-4.6887,-4.6447,-4.5703,-4.4936,-4.4739,-4.4897,-4.449,-4.4286,-4.4409,-4.4838,-4.4767,-4.4421,-4.5072,-4.4871,-4.4144,-4.4328,-4.4365,-4.4415,-4.4833,-4.5193,-4.5299,-4.4456,-4.4227,-4.4599,-4.4081,-4.3802,-4.373,-4.3429,-4.3369,-4.3578,-4.3309,-4.3295,-4.3416,-4.3325,-4.319,-4.2943,-4.2929,-4.2805,-4.2634,-4.2602,-4.2602,-4.2602,-4.2602,-4.2602,-4.2554,-4.2376,-4.2229,-4.2245,-4.2197,-4.2245,-4.2245,-4.2213,-4.1986,-4.1644,-4.1223,-4.0707,-3.9719,-3.9476,-3.9153,-3.857,-3.8391,-3.8391,-3.8391,-3.8391,-3.8505,-3.8748,-3.8812,-3.8796,-3.8796,-3.8537,-3.8424,-3.8391,-3.8391,-3.8391,-3.8391,-3.8391,-3.8391,-3.8391,-3.8391,-3.8391,-3.8391,-3.8391,-3.8391,-3.8311,-3.7959,-3.7781,-3.7635,-3.7489,-3.7323,-3.7145,-3.695,-3.6707,-3.6076,-3.5428,-3.4949,-3.4642,-3.4212,-3.4025,-3.3949,-3.3899,-3.3729,-3.3061,-3.2962,-3.2586,-3.1836,-3.1109,-3.0718,-3.0396,-3.0084,-2.9672,-4.9001,-4.9018,-4.9001,-4.8866,-4.8545,-4.7445,-4.7073,-4.7208,-4.5602,-4.501,-4.5314,-4.4812,-4.4654,-4.4823,-4.5448,-4.5414,-4.4976,-4.5624,-4.5493,-4.5088,-4.5324,-4.5667,-4.5655,-4.5739,-4.5644,-4.5391,-4.4923,-4.4728,-4.4761,-4.4342,-4.4126,-4.4097,-4.3802,-4.3638,-4.3713,-4.3638,-4.3429,-4.3309,-4.3188,-4.299,-4.2711,-4.2696,-4.2665,-4.2602,-4.2602,-4.2602,-4.2602,-4.2602,-4.2602,-4.2522,-4.2099,-4.1857,-4.1742,-4.1677,-4.1776,-4.1824,-4.1709,-4.179,-4.1533,-4.1306,-4.0529,-3.9797,-3.9651,-3.9185,-3.857,-3.8391,-3.8391,-3.8408,-3.8505,-3.8809,-3.9311,-3.9509,-3.9493,-3.9408,-3.8796,-3.844,-3.8391,-3.8391,-3.8456,-3.8489,-3.8456,-3.844,-3.8489,-3.8505,-3.8391,-3.8391,-3.8391,-3.8391,-3.8391,-3.8278,-3.8359,-3.8246,-3.8035,-3.797,-3.7728,-3.7614,-3.7388,-3.7096,-3.6367,-3.5752,-3.5169,-3.47,-3.4165,-3.4048,-3.3924,-3.3755,-3.362,-3.3457,-3.3244,-3.2667,-3.2042,-3.1509,-3.1134,-3.0845,-3.0441,-4.9018,-4.9018,-4.9018,-4.8697,-4.8176,-4.7733,-4.7043,-4.6295,-4.572,-4.5196,-4.4953,-4.4716,-4.4891,-4.5466,-4.6143,-4.638,-4.6329,-4.6921,-4.6583,-4.5669,-4.616,-4.6481,-4.6515,-4.6498,-4.6452,-4.6229,-4.5628,-4.5415,-4.5348,-4.4722,-4.4474,-4.4457,-4.4126,-4.408,-4.4241,-4.3743,-4.3641,-4.3759,-4.3462,-4.3204,-4.3021,-4.2943,-4.2836,-4.2634,-4.2602,-4.2602,-4.2602,-4.2602,-4.2602,-4.2602,-4.2441,-4.2359,-4.231,-4.231,-4.2278,-4.2294,-4.231,-4.2342,-4.2294,-4.2101,-4.1437,-4.0383,-4.0173,-3.9703,-3.8505,-3.8408,-3.8408,-3.8489,-3.8829,-3.9311,-3.957,-3.9975,-3.9978,-3.9476,-3.8958,-3.8505,-3.8456,-3.8408,-3.8586,-3.9023,-3.8748,-3.8732,-3.891,-3.8715,-3.8424,-3.8391,-3.8391,-3.8391,-3.8391,-3.8391,-3.8391,-3.8391,-3.8294,-3.8343,-3.8294,-3.8197,-3.8084,-3.7987,-3.7404,-3.6632,-3.5995,-3.5331,-3.4716,-3.4228,-3.4032,-3.3857,-3.3848,-3.3774,-3.3487,-3.3187,-3.2859,-3.2295,-3.198,-3.1691,-3.1134,-4.9018,-4.9018,-4.9018,-4.8765,-4.8342,-4.8024,-4.7242,-4.6261,-4.5805,-4.528,-4.4716,-4.4598,-4.501,-4.5754,-4.6464,-4.6769,-4.6887,-4.7581,-4.7242,-4.6464,-4.6921,-4.7056,-4.6938,-4.7056,-4.7124,-4.6718,-4.6058,-4.572,-4.5551,-4.4942,-4.4632,-4.457,-4.44,-4.4429,-4.453,-4.4184,-4.3952,-4.4039,-4.3835,-4.3582,-4.3339,-4.3157,-4.3005,-4.2805,-4.268,-4.2602,-4.2602,-4.2602,-4.2602,-4.2602,-4.2602,-4.2602,-4.2602,-4.2602,-4.2602,-4.2602,-4.2602,-4.2602,-4.2602,-4.2602,-4.2116,-4.1144,-4.0723,-4.0124,-3.9428,-3.9072,-3.8893,-3.9331,-3.9687,-4.004,-4.0397,-4.0753,-4.0753,-4.0461,-3.9719,-3.9169,-3.891,-3.9153,-3.9428,-3.9622,-3.9363,-3.8974,-3.9473,-3.8845,-3.8505,-3.8391,-3.8391,-3.8391,-3.8391,-3.8391,-3.8391,-3.8391,-3.8391,-3.8391,-3.8391,-3.8327,-3.8294,-3.8246,-3.8084,-3.7376,-3.6675,-3.593,-3.524,-3.4632,-3.4293,-3.4032,-3.4021,-3.3918,-3.3607,-3.3361,-3.3256,-3.3027,-3.2578,-3.2358,-3.183,-4.9018,-4.9018,-4.9018,-4.9018,-4.8883,-4.8308,-4.7564,-4.6735,-4.6143,-4.5382,-4.4767,-4.4682,-4.5229,-4.5855,-4.6718,-4.6989,-4.7124,-4.7868,-4.7564,-4.7276,-4.7445,-4.7547,-4.7158,-4.775,-4.7614,-4.7005,-4.6177,-4.5838,-4.5568,-4.4959,-4.4632,-4.457,-4.457,-4.457,-4.457,-4.4485,-4.4355,-4.4126,-4.3981,-4.3789,-4.3519,-4.3248,-4.3066,-4.3005,-4.2743,-4.2602,-4.2634,-4.2649,-4.2696,-4.2649,-4.2618,-4.2602,-4.2602,-4.2602,-4.2602,-4.2602,-4.2602,-4.2602,-4.2602,-4.2586,-4.2326,-4.1565,-4.0964,-4.0545,-4.0286,-3.9849,-3.9752,-4.0173,-4.0513,-4.0948,-4.1452,-4.1693,-4.1579,-4.1369,-4.0885,-4.0448,-4.0008,-4.0173,-4.0513,-4.0591,-4.0024,-3.97,-3.9522,-3.9084,-3.8566,-3.8764,-3.8634,-3.8391,-3.8391,-3.8391,-3.8391,-3.8391,-3.8391,-3.8391,-3.8391,-3.8391,-3.8375,-3.8359,-3.8343,-3.789,-3.7161,-3.6448,-3.5732,-3.5205,-3.5085,-3.4678,-3.422,-3.4002,-3.3834,-3.3607,-3.3529,-3.3208,-3.2846,-3.2769,-3.242,-4.9018,-4.9018,-4.9018,-4.9018,-4.8984,-4.8815,-4.802,-4.6819,-4.665,-4.5838,-4.497,-4.5196,-4.5872,-4.6566,-4.7276,-4.797,-4.8359,-4.8595,-4.8376,-4.7784,-4.7753,-4.7838,-4.7817,-4.8409,-4.8308,-4.7648,-4.6921,-4.6278,-4.5703,-4.5077,-4.4615,-4.4649,-4.4632,-4.4615,-4.4621,-4.4434,-4.4184,-4.4068,-4.3877,-4.3772,-4.3654,-4.3339,-4.3127,-4.3082,-4.2805,-4.2618,-4.2665,-4.2867,-4.299,-4.2929,-4.2774,-4.2634,-4.2634,-4.2602,-4.2602,-4.2602,-4.2602,-4.2602,-4.2602,-4.257,-4.2311,-4.1758,-4.1434,-4.1126,-4.0529,-4.0415,-4.0351,-4.061,-4.1029,-4.1661,-4.2197,-4.2344,-4.2132,-4.1808,-4.1873,-4.1808,-4.1255,-4.0802,-4.0869,-4.1123,-4.0908,-4.0661,-4.0994,-3.9995,-3.9495,-3.9262,-3.8877,-3.8489,-3.844,-3.8472,-3.8391,-3.8391,-3.8391,-3.8391,-3.8391,-3.8391,-3.8391,-3.8391,-3.8391,-3.8359,-3.7647,-3.7193,-3.66,-3.6201,-3.5985,-3.5469,-3.4842,-3.4684,-3.4617,-3.4227,-3.3877,-3.3644,-3.3425,-3.3287,-3.2985,-4.9018,-4.9018,-4.9018,-4.9018,-4.9018,-4.8984,-4.8342,-4.7462,-4.7327,-4.6481,-4.5483,-4.5889,-4.6447,-4.6836,-4.7581,-4.8261,-4.8866,-4.9001,-4.8815,-4.8477,-4.8443,-4.8443,-4.846,-4.8748,-4.8748,-4.8325,-4.7682,-4.6938,-4.6194,-4.5517,-4.5145,-4.506,-4.4773,-4.484,-4.4959,-4.4597,-4.4372,-4.4344,-4.4184,-4.408,-4.4023,-4.3759,-4.3355,-4.3143,-4.2929,-4.2774,-4.2665,-4.2759,-4.2836,-4.2867,-4.2836,-4.2836,-4.2774,-4.268,-4.2602,-4.2602,-4.2602,-4.2602,-4.2602,-4.2586,-4.2441,-4.2083,-4.1823,-4.1661,-4.1371,-4.1225,-4.1209,-4.1468,-4.1857,-4.2261,-4.2554,-4.2602,-4.2344,-4.2261,-4.236,-4.2392,-4.2083,-4.1711,-4.1644,-4.1933,-4.159,-4.1457,-4.1197,-4.0639,-4.0242,-3.9943,-3.9347,-3.8958,-3.8812,-3.8796,-3.8472,-3.8391,-3.8391,-3.8391,-3.8391,-3.8391,-3.8391,-3.8391,-3.8391,-3.8391,-3.8116,-3.7825,-3.7549,-3.7117,-3.6648,-3.6179,-3.5667,-3.5525,-3.5364,-3.5188,-3.4858,-3.4394,-3.4028,-3.384,-3.343,-4.9018,-4.9018,-4.9018,-4.9018,-4.9018,-4.9001,-4.8578,-4.7939,-4.7906,-4.706,-4.621,-4.665,-4.7005,-4.7175,-4.78,-4.846,-4.8849,-4.9018,-4.8917,-4.89,-4.8883,-4.8883,-4.8917,-4.8951,-4.8968,-4.8917,-4.8159,-4.7479,-4.6904,-4.6278,-4.5889,-4.5754,-4.5128,-4.5128,-4.5399,-4.4976,-4.4542,-4.4514,-4.4514,-4.4514,-4.4457,-4.42,-4.3759,-4.3325,-4.3188,-4.3082,-4.2929,-4.2867,-4.2805,-4.2774,-4.299,-4.3066,-4.3035,-4.2912,-4.2728,-4.2728,-4.2728,-4.2696,-4.2602,-4.2602,-4.2586,-4.257,-4.2132,-4.2035,-4.2261,-4.2067,-4.2035,-4.2246,-4.2522,-4.2522,-4.2602,-4.2602,-4.2602,-4.257,-4.2586,-4.2602,-4.2602,-4.2602,-4.263,-4.2658,-4.2315,-4.2134,-4.1699,-4.1195,-4.0894,-4.0513,-3.993,-3.9525,-3.9424,-3.9214,-3.8926,-3.8667,-3.8699,-3.8456,-3.8391,-3.8489,-3.8472,-3.8472,-3.8456,-3.8424,-3.8424,-3.8213,-3.7922,-3.7603,-3.7166,-3.6805,-3.6481,-3.6222,-3.6125,-3.6108,-3.558,-3.4807,-3.4465,-3.4368,-3.3898,-4.9018,-4.9018,-4.9018,-4.9018,-4.9018,-4.9018,-4.8612,-4.7973,-4.7956,-4.7445,-4.6802,-4.7394,-4.7686,-4.7868,-4.8494,-4.89,-4.8984,-4.9018,-4.9018,-4.9018,-4.9018,-4.9018,-4.9018,-4.9018,-4.9018,-4.8815,-4.8342,-4.7885,-4.7547,-4.7022,-4.665,-4.6464,-4.5872,-4.5686,-4.5602,-4.501,-4.4716,-4.4716,-4.4649,-4.4598,-4.4514,-4.4298,-4.3964,-4.3565,-4.3519,-4.3459,-4.3429,-4.3416,-4.3446,-4.3416,-4.3218,-4.3127,-4.3157,-4.3279,-4.3218,-4.3021,-4.2959,-4.2867,-4.2665,-4.2602,-4.2602,-4.257,-4.2424,-4.2392,-4.2522,-4.2489,-4.2424,-4.2489,-4.2602,-4.2602,-4.2602,-4.2602,-4.2602,-4.2602,-4.2602,-4.2602,-4.2665,-4.2759,-4.2899,-4.2974,-4.2874,-4.2713,-4.2307,-4.1873,-4.1539,-4.1107,-4.0542,-4.0316,-4.0267,-3.9975,-3.9606,-3.9331,-3.9104,-3.8732,-3.8391,-3.8521,-3.8586,-3.8602,-3.8586,-3.8505,-3.8472,-3.8424,-3.8197,-3.7938,-3.7813,-3.7663,-3.7339,-3.695,-3.6788,-3.6707,-3.593,-3.5072,-3.5143,-3.514,-3.4426,-4.9018,-4.9018,-4.9018,-4.9018,-4.9018,-4.9001,-4.8815,-4.8511,-4.846,-4.8054,-4.7767,-4.8105,-4.821,-4.8189,-4.868,-4.9001,-4.9018,-4.9018,-4.9018,-4.9018,-4.9018,-4.9018,-4.9018,-4.9018,-4.9018,-4.8917,-4.8629,-4.8223,-4.7919,-4.7581,-4.7378,-4.7208,-4.6633,-4.6464,-4.6498,-4.5788,-4.5246,-4.5094,-4.4818,-4.4598,-4.4598,-4.4412,-4.4184,-4.3964,-4.3831,-4.3772,-4.3608,-4.3608,-4.3608,-4.3549,-4.3429,-4.3386,-4.3399,-4.3429,-4.3369,-4.3021,-4.3021,-4.2959,-4.2649,-4.2602,-4.2602,-4.2602,-4.2602,-4.2602,-4.2602,-4.2586,-4.2602,-4.2602,-4.2602,-4.2602,-4.2602,-4.2602,-4.2602,-4.2602,-4.2602,-4.2696,-4.2852,-4.3037,-4.316,-4.3251,-4.3108,-4.3059,-4.3045,-4.2643,-4.2232,-4.1717,-4.114,-4.1029,-4.1045,-4.0656,-4.0235,-3.9978,-3.9735,-3.959,-3.9217,-3.9153,-3.9072,-3.8991,-3.891,-3.8829,-3.8602,-3.857,-3.8472,-3.8278,-3.8262,-3.8181,-3.7954,-3.7485,-3.7404,-3.7226,-3.6481,-3.593,-3.6011,-3.5807,-3.5091,-4.9018,-4.9018,-4.9018,-4.9018,-4.9018,-4.9018,-4.9001,-4.9018,-4.8984,-4.8663,-4.8244,-4.8649,-4.8663,-4.8426,-4.868,-4.9018,-4.9018,-4.9018,-4.9018,-4.9018,-4.9018,-4.9018,-4.9018,-4.9018,-4.9018,-4.9001,-4.8951,-4.8697,-4.8325,-4.8156,-4.8139,-4.7936,-4.7394,-4.7141,-4.7208,-4.6177,-4.5838,-4.5483,-4.5004,-4.4615,-4.4598,-4.457,-4.4485,-4.4241,-4.4184,-4.4097,-4.3919,-4.3772,-4.3743,-4.3713,-4.3638,-4.3578,-4.3608,-4.3608,-4.3309,-4.2867,-4.299,-4.2898,-4.2728,-4.2665,-4.2696,-4.2696,-4.2665,-4.2665,-4.265,-4.265,-4.2602,-4.2602,-4.2602,-4.2602,-4.2602,-4.2602,-4.2602,-4.2634,-4.268,-4.2805,-4.3052,-4.3265,-4.3505,-4.3505,-4.3386,-4.3339,-4.3353,-4.2783,-4.2258,-4.2266,-4.1734,-4.1659,-4.1596,-4.1112,-4.0756,-4.0577,-4.0448,-4.048,-4.0286,-4.0075,-3.9914,-3.9703,-3.959,-3.9476,-3.9088,-3.8748,-3.8651,-3.8602,-3.8391,-3.8294,-3.8132,-3.8068,-3.7922,-3.7598,-3.7031,-3.6724,-3.6675,-3.6384,-3.5791,-4.9018,-4.9018,-4.9018,-4.9018,-4.9018,-4.9018,-4.9018,-4.9018,-4.9018,-4.8984,-4.8798,-4.8951,-4.8934,-4.8866,-4.89,-4.9018,-4.9018,-4.9018,-4.9018,-4.9018,-4.9018,-4.9018,-4.9018,-4.9018,-4.9018,-4.9018,-4.9018,-4.8984,-4.8781,-4.8765,-4.8815,-4.8646,-4.8122,-4.7614,-4.7293,-4.6532,-4.572,-4.5602,-4.4976,-4.4615,-4.4649,-4.4632,-4.4587,-4.4514,-4.4514,-4.4485,-4.436,-4.4222,-4.4123,-4.401,-4.3805,-4.3671,-4.3608,-4.3608,-4.3416,-4.3174,-4.3052,-4.2959,-4.2728,-4.2759,-4.2821,-4.2837,-4.2868,-4.2852,-4.2852,-4.279,-4.2711,-4.2602,-4.2634,-4.2602,-4.2634,-4.2634,-4.2602,-4.2743,-4.2881,-4.3021,-4.3251,-4.3552,-4.3789,-4.3906,-4.3802,-4.3684,-4.3625,-4.2897,-4.2283,-4.2358,-4.2396,-4.2304,-4.2114,-4.1662,-4.1387,-4.1225,-4.1225,-4.1257,-4.1241,-4.1047,-4.0739,-4.0494,-4.0348,-4.014,-3.9687,-3.9282,-3.9007,-3.891,-3.8732,-3.8602,-3.8521,-3.8456,-3.8375,-3.8051,-3.7566,-3.7339,-3.7198,-3.6826,-3.6502,-4.9018,-4.9018,-4.9018,-4.9018,-4.9018,-4.9018,-4.9018,-4.9018,-4.9018,-4.9018,-4.9018,-4.9018,-4.9018,-4.9018,-4.9018,-4.9018,-4.9018,-4.9018,-4.9018,-4.9018,-4.9018,-4.9018,-4.9018,-4.9018,-4.9018,-4.9018,-4.9018,-4.9001,-4.9018,-4.9018,-4.9018,-4.8951,-4.8714,-4.8443,-4.7784,-4.7276,-4.6769,-4.616,-4.5343,-4.4886,-4.4993,-4.4852,-4.4598,-4.4598,-4.4598,-4.4598,-4.4626,-4.4958,-4.4709,-4.4562,-4.4398,-4.429,-4.3948,-4.3713,-4.3519,-4.3399,-4.3188,-4.3021,-4.2837,-4.2868,-4.293,-4.3023,-4.3054,-4.3052,-4.3129,-4.3192,-4.3101,-4.2898,-4.2898,-4.2821,-4.2728,-4.2774,-4.2867,-4.2974,-4.3188,-4.3416,-4.3582,-4.3789,-4.3993,-4.4155,-4.4212,-4.408,-4.3906,-4.3413,-4.2897,-4.2876,-4.2794,-4.2579,-4.2502,-4.231,-4.2052,-4.1923,-4.1971,-4.2083,-4.202,-4.1907,-4.1581,-4.129,-4.1158,-4.0883,-4.0318,-3.993,-3.9703,-3.9687,-3.9768,-3.9525,-3.9133,-3.8715,-3.8505,-3.8327,-3.8132,-3.7938,-3.7732,-3.7813,-3.7506,-4.9018,-4.9018,-4.9018,-4.9018,-4.9018,-4.9018,-4.9018,-4.9018,-4.9018,-4.9018,-4.9018,-4.9018,-4.9018,-4.9018,-4.9018,-4.9018,-4.9018,-4.9018,-4.9018,-4.9018,-4.9018,-4.9018,-4.9018,-4.9018,-4.9018,-4.9018,-4.9018,-4.9018,-4.9018,-4.9018,-4.9018,-4.9018,-4.8951,-4.8765,-4.8562,-4.8037,-4.7411,-4.665,-4.5771,-4.5466,-4.5483,-4.4942,-4.4682,-4.4598,-4.4598,-4.4598,-4.4716,-4.5263,-4.5297,-4.5105,-4.5113,-4.4984,-4.462,-4.4085,-4.3789,-4.3654,-4.3476,-4.3248,-4.3129,-4.3068,-4.3037,-4.3209,-4.3575,-4.3864,-4.4108,-4.4095,-4.3916,-4.3629,-4.358,-4.3328,-4.3039,-4.3096,-4.3157,-4.3339,-4.3535,-4.3802,-4.4023,-4.4155,-4.4241,-4.4327,-4.4412,-4.4384,-4.4184,-4.3877,-4.3608,-4.3459,-4.3221,-4.293,-4.2728,-4.2586,-4.2473,-4.2279,-4.2327,-4.2408,-4.2408,-4.236,-4.2164,-4.2035,-4.1857,-4.1579,-4.0982,-4.0707,-4.0529,-4.0594,-4.0642,-4.0254,-3.9765,-3.9181,-3.8602,-3.8424,-3.8278,-3.8327,-3.8311,-3.8391,-3.8242,-4.9018,-4.9018,-4.9001,-4.8984,-4.9018,-4.9018,-4.9018,-4.9018,-4.9018,-4.9018,-4.9018,-4.9018,-4.9018,-4.9018,-4.9018,-4.9018,-4.9018,-4.9018,-4.9018,-4.9018,-4.9018,-4.9018,-4.9018,-4.9018,-4.9018,-4.9018,-4.9018,-4.9018,-4.9018,-4.9018,-4.9018,-4.9018,-4.9018,-4.8578,-4.8291,-4.8041,-4.7716,-4.7124,-4.6532,-4.6109,-4.5737,-4.5128,-4.4699,-4.4598,-4.4598,-4.4615,-4.4649,-4.5297,-4.5551,-4.5382,-4.5628,-4.5616,-4.5226,-4.4649,-4.4286,-4.4194,-4.3776,-4.3641,-4.3565,-4.3251,-4.3129,-4.3523,-4.4194,-4.4862,-4.5092,-4.5462,-4.5265,-4.4589,-4.436,-4.4065,-4.372,-4.3549,-4.3549,-4.3654,-4.3848,-4.4023,-4.4241,-4.4384,-4.4485,-4.457,-4.457,-4.4497,-4.4468,-4.4155,-4.3772,-4.3625,-4.3174,-4.2852,-4.2728,-4.2602,-4.2602,-4.2522,-4.2538,-4.257,-4.257,-4.2473,-4.2376,-4.2375,-4.2294,-4.2002,-4.163,-4.1436,-4.1338,-4.1128,-4.1063,-4.0707,-4.0445,-4.004,-3.9493,-3.8732,-3.844,-3.857,-3.8489,-3.8391,-3.8278,-4.8342,-4.8342,-4.8325,-4.8595,-4.9018,-4.9018,-4.9018,-4.9018,-4.9018,-4.9018,-4.9018,-4.9018,-4.9018,-4.9018,-4.9018,-4.9018,-4.9018,-4.9018,-4.9018,-4.9018,-4.9018,-4.9018,-4.9018,-4.9018,-4.9018,-4.9018,-4.9018,-4.9018,-4.9018,-4.9018,-4.9018,-4.9018,-4.9018,-4.8883,-4.8562,-4.8206,-4.8003,-4.7885,-4.7276,-4.6599,-4.6363,-4.5652,-4.5043,-4.4615,-4.4598,-4.4598,-4.4716,-4.5331,-4.5331,-4.5382,-4.5906,-4.5957,-4.5805,-4.5255,-4.5029,-4.4899,-4.4353,-4.4048,-4.3939,-4.3585,-4.3312,-4.3726,-4.471,-4.5674,-4.5831,-4.5751,-4.5808,-4.5397,-4.494,-4.4577,-4.4417,-4.4088,-4.3935,-4.3993,-4.416,-4.4382,-4.4479,-4.4609,-4.4604,-4.4632,-4.4615,-4.457,-4.4514,-4.4429,-4.4051,-4.3697,-4.3248,-4.2867,-4.2774,-4.2665,-4.2696,-4.2634,-4.2634,-4.2602,-4.2602,-4.2602,-4.2602,-4.2602,-4.2602,-4.2344,-4.2099,-4.2245,-4.2068,-4.1793,-4.1614,-4.1484,-4.1274,-4.1029,-4.0397,-3.9444,-3.9007,-3.891,-3.8732,-3.8472,-3.8234,-4.7581,-4.7551,-4.7551,-4.8003,-4.8663,-4.8917,-4.9018,-4.9018,-4.9018,-4.9018,-4.9018,-4.9018,-4.9018,-4.9018,-4.9018,-4.9018,-4.9018,-4.9018,-4.9018,-4.9018,-4.9018,-4.9018,-4.9018,-4.9018,-4.9018,-4.9018,-4.9018,-4.9018,-4.9018,-4.9018,-4.9018,-4.9018,-4.9001,-4.8968,-4.8849,-4.8595,-4.8511,-4.8545,-4.7902,-4.6955,-4.6769,-4.6041,-4.5297,-4.4733,-4.4598,-4.4598,-4.4801,-4.5246,-4.5449,-4.5483,-4.5754,-4.6194,-4.6058,-4.5855,-4.572,-4.5431,-4.5091,-4.4577,-4.4411,-4.3977,-4.3906,-4.4563,-4.545,-4.6166,-4.6417,-4.6545,-4.6999,-4.669,-4.5857,-4.5232,-4.539,-4.5228,-4.4896,-4.4988,-4.4894,-4.5009,-4.4801,-4.479,-4.4705,-4.4682,-4.475,-4.4908,-4.4429,-4.4344,-4.4147,-4.3881,-4.373,-4.3355,-4.3127,-4.299,-4.2836,-4.2774,-4.268,-4.2634,-4.2602,-4.2602,-4.2602,-4.2602,-4.2602,-4.2602,-4.2489,-4.2602,-4.2602,-4.2311,-4.2166,-4.2278,-4.2099,-4.1776,-4.0982,-4.0056,-3.9684,-3.925,-3.9007,-3.8748,-3.8371,-4.6802,-4.6819,-4.6836,-4.7276,-4.8003,-4.8697,-4.8968,-4.9001,-4.9018,-4.9018,-4.9018,-4.9018,-4.9018,-4.9018,-4.9018,-4.9018,-4.9018,-4.9018,-4.9018,-4.9018,-4.9018,-4.9018,-4.9018,-4.9018,-4.9018,-4.9018,-4.9018,-4.9018,-4.9018,-4.9018,-4.9018,-4.9018,-4.9018,-4.9001,-4.8984,-4.8984,-4.8984,-4.8883,-4.8206,-4.7597,-4.6786,-4.6143,-4.55,-4.4784,-4.4598,-4.4598,-4.4767,-4.5128,-4.5331,-4.5399,-4.5618,-4.6092,-4.6515,-4.6075,-4.5923,-4.5894,-4.5691,-4.5544,-4.5527,-4.4644,-4.4775,-4.559,-4.6404,-4.7184,-4.8225,-4.8537,-4.8277,-4.7666,-4.7275,-4.7035,-4.6929,-4.6541,-4.6055,-4.5814,-4.5737,-4.5618,-4.5415,-4.5094,-4.5043,-4.4908,-4.5213,-4.537,-4.4663,-4.4217,-4.411,-4.4035,-4.4073,-4.3864,-4.3432,-4.3096,-4.2867,-4.2774,-4.268,-4.2634,-4.2602,-4.2602,-4.2602,-4.2602,-4.2602,-4.2602,-4.2602,-4.2602,-4.2602,-4.2602,-4.2554,-4.2441,-4.2505,-4.2522,-4.1727,-4.0917,-4.004,-3.957,-3.9311,-3.9153,-3.8937,-4.6058,-4.6126,-4.6583,-4.6938,-4.7259,-4.7986,-4.8514,-4.8951,-4.9018,-4.9018,-4.9018,-4.9018,-4.9018,-4.9018,-4.9018,-4.9018,-4.9018,-4.9018,-4.9018,-4.9018,-4.9018,-4.9018,-4.9018,-4.9018,-4.9018,-4.9018,-4.9018,-4.9018,-4.9018,-4.9018,-4.9018,-4.9018,-4.9018,-4.9018,-4.9001,-4.9018,-4.9001,-4.8968,-4.8629,-4.8088,-4.6938,-4.6481,-4.5872,-4.4784,-4.4716,-4.4688,-4.4654,-4.5032,-4.5099,-4.5155,-4.5346,-4.6034,-4.6672,-4.6389,-4.6621,-4.6638,-4.6515,-4.5703,-4.5686,-4.5339,-4.548,-4.6348,-4.7203,-4.7872,-4.8253,-4.8247,-4.8294,-4.8328,-4.7727,-4.747,-4.7352,-4.6819,-4.6401,-4.6486,-4.6413,-4.6397,-4.621,-4.5771,-4.55,-4.528,-4.5382,-4.5093,-4.4562,-4.4578,-4.4534,-4.4191,-4.4158,-4.3813,-4.3382,-4.2978,-4.268,-4.268,-4.2618,-4.2602,-4.2602,-4.2602,-4.2602,-4.2602,-4.2602,-4.2602,-4.2602,-4.2602,-4.2602,-4.2602,-4.2602,-4.2602,-4.2602,-4.2586,-4.2441,-4.181,-4.095,-4.0286,-4.0075,-4.0043,-3.9997,-4.5314,-4.5365,-4.5821,-4.6346,-4.6904,-4.7868,-4.8565,-4.8968,-4.9018,-4.9018,-4.9018,-4.9018,-4.9018,-4.9018,-4.9018,-4.9018,-4.9018,-4.9018,-4.9018,-4.9018,-4.9018,-4.9018,-4.9018,-4.9018,-4.9018,-4.9018,-4.9018,-4.9018,-4.9018,-4.9018,-4.9018,-4.9018,-4.9018,-4.9018,-4.9018,-4.9018,-4.9001,-4.8984,-4.8798,-4.8392,-4.7564,-4.7039,-4.6599,-4.5788,-4.5399,-4.5269,-4.4929,-4.48,-4.4788,-4.4882,-4.5194,-4.5976,-4.6595,-4.6955,-4.7201,-4.7275,-4.7192,-4.6515,-4.6519,-4.6908,-4.7127,-4.7423,-4.8051,-4.8214,-4.8216,-4.8399,-4.8599,-4.848,-4.7781,-4.7862,-4.796,-4.7363,-4.7275,-4.7361,-4.7175,-4.7158,-4.6802,-4.6363,-4.6097,-4.5843,-4.5583,-4.5125,-4.4632,-4.4923,-4.51,-4.464,-4.4242,-4.3866,-4.3459,-4.3079,-4.2745,-4.268,-4.2634,-4.2602,-4.2602,-4.2602,-4.2602,-4.2602,-4.2602,-4.2602,-4.2602,-4.2602,-4.2602,-4.2602,-4.2602,-4.2602,-4.2602,-4.2554,-4.2489,-4.2327,-4.1905,-4.1355,-4.0966,-4.0788,-4.0723,-4.4598,-4.4615,-4.4632,-4.55,-4.6836,-4.8105,-4.8832,-4.9001,-4.9018,-4.9018,-4.9018,-4.9018,-4.9018,-4.9018,-4.9018,-4.9018,-4.9018,-4.9018,-4.9018,-4.9018,-4.9018,-4.9018,-4.9018,-4.9018,-4.9018,-4.9018,-4.9018,-4.9018,-4.9018,-4.9018,-4.9018,-4.9018,-4.9018,-4.9018,-4.9018,-4.9018,-4.9018,-4.9018,-4.8951,-4.8494,-4.7834,-4.7703,-4.7208,-4.6616,-4.6363,-4.5992,-4.5669,-4.5396,-4.5236,-4.512,-4.5006,-4.6007,-4.6658,-4.7015,-4.7378,-4.7656,-4.777,-4.7686,-4.7669,-4.8088,-4.8446,-4.8351,-4.8264,-4.8419,-4.8557,-4.8737,-4.8852,-4.8903,-4.852,-4.8686,-4.8768,-4.8568,-4.8399,-4.8227,-4.7986,-4.7716,-4.7327,-4.701,-4.6811,-4.6596,-4.6325,-4.584,-4.507,-4.513,-4.5563,-4.5322,-4.495,-4.4607,-4.4166,-4.3464,-4.3098,-4.2821,-4.2759,-4.2602,-4.2602,-4.2602,-4.2602,-4.2602,-4.2602,-4.2602,-4.2602,-4.2602,-4.2602,-4.2602,-4.2602,-4.2602,-4.2602,-4.2602,-4.2586,-4.2408,-4.223,-4.2085,-4.163,-4.1274,-4.1065,-4.4598,-4.4649,-4.5145,-4.5635,-4.6126,-4.7039,-4.7986,-4.8917,-4.9018,-4.9001,-4.9018,-4.9001,-4.8968,-4.9018,-4.9018,-4.9018,-4.9018,-4.9018,-4.9018,-4.9018,-4.9018,-4.9018,-4.9018,-4.9018,-4.9018,-4.9018,-4.9018,-4.9018,-4.9018,-4.9018,-4.9018,-4.9018,-4.9018,-4.9018,-4.9018,-4.9018,-4.9018,-4.9018,-4.9018,-4.8612,-4.8159,-4.799,-4.7547,-4.7175,-4.7005,-4.6646,-4.6401,-4.6241,-4.6169,-4.6139,-4.6156,-4.6831,-4.7521,-4.7642,-4.7781,-4.7828,-4.7889,-4.7889,-4.7953,-4.8091,-4.8446,-4.8886,-4.8748,-4.8768,-4.892,-4.897,-4.9018,-4.897,-4.894,-4.894,-4.894,-4.8886,-4.8818,-4.8666,-4.8494,-4.8342,-4.7986,-4.7784,-4.7537,-4.6976,-4.675,-4.6074,-4.5332,-4.563,-4.6012,-4.5898,-4.5701,-4.531,-4.4821,-4.4105,-4.3275,-4.2935,-4.2936,-4.2844,-4.2651,-4.2602,-4.2602,-4.2602,-4.2602,-4.2602,-4.2602,-4.2602,-4.2602,-4.2602,-4.2602,-4.2602,-4.2602,-4.2602,-4.2602,-4.2602,-4.2473,-4.2424,-4.2295,-4.189,-4.1711,-4.4598,-4.4666,-4.506,-4.5432,-4.5805,-4.6481,-4.7361,-4.8054,-4.8122,-4.8257,-4.8562,-4.8562,-4.8731,-4.9001,-4.9018,-4.9018,-4.9018,-4.9018,-4.9018,-4.9018,-4.9018,-4.9018,-4.9018,-4.9018,-4.9018,-4.9018,-4.9018,-4.9018,-4.9018,-4.9018,-4.9018,-4.9018,-4.9018,-4.9018,-4.9018,-4.9018,-4.9018,-4.9018,-4.8951,-4.8714,-4.8511,-4.8325,-4.8003,-4.7716,-4.7597,-4.7449,-4.7123,-4.7059,-4.6999,-4.6895,-4.6864,-4.7261,-4.7976,-4.8236,-4.8189,-4.827,-4.8348,-4.8287,-4.8242,-4.8348,-4.8554,-4.8726,-4.894,-4.8984,-4.8984,-4.9001,-4.9018,-4.9001,-4.894,-4.8894,-4.8925,-4.8956,-4.897,-4.8954,-4.8984,-4.8984,-4.8765,-4.8562,-4.8026,-4.7378,-4.6779,-4.6098,-4.5927,-4.6274,-4.6549,-4.6566,-4.6369,-4.5942,-4.5373,-4.4675,-4.3653,-4.2842,-4.2973,-4.3055,-4.2877,-4.2683,-4.2635,-4.2635,-4.2602,-4.2602,-4.2602,-4.2602,-4.2602,-4.2602,-4.2602,-4.2602,-4.2602,-4.2602,-4.2602,-4.2602,-4.2602,-4.2538,-4.2505,-4.2408,-4.2327,-4.4598,-4.4598,-4.4598,-4.4993,-4.5652,-4.6261,-4.6566,-4.6616,-4.6616,-4.7141,-4.7817,-4.7939,-4.8345,-4.89,-4.9018,-4.9018,-4.9018,-4.9018,-4.9018,-4.9018,-4.9018,-4.9018,-4.9018,-4.9018,-4.9018,-4.9018,-4.9018,-4.9018,-4.9018,-4.9018,-4.9018,-4.9018,-4.9018,-4.9018,-4.9018,-4.9018,-4.9018,-4.9018,-4.9018,-4.8917,-4.8951,-4.8951,-4.9018,-4.89,-4.8751,-4.8537,-4.7816,-4.7508,-4.7383,-4.718,-4.7248,-4.7736,-4.8258,-4.8728,-4.8683,-4.8666,-4.874,-4.8661,-4.863,-4.8723,-4.8711,-4.8781,-4.8798,-4.897,-4.9018,-4.9018,-4.9018,-4.9018,-4.8956,-4.8956,-4.8987,-4.8987,-4.9001,-4.9001,-4.9001,-4.9018,-4.8917,-4.856,-4.7933,-4.7349,-4.6863,-4.6274,-4.6272,-4.6618,-4.6927,-4.7123,-4.7006,-4.6526,-4.6021,-4.5323,-4.4431,-4.3314,-4.346,-4.3605,-4.312,-4.2942,-4.2748,-4.2683,-4.2635,-4.2602,-4.2602,-4.2602,-4.2602,-4.2602,-4.2602,-4.2602,-4.2602,-4.2602,-4.2602,-4.2602,-4.2602,-4.2602,-4.2602,-4.2602,-4.2602,-4.4598,-4.4598,-4.4598,-4.4733,-4.4886,-4.5055,-4.5173,-4.5139,-4.5139,-4.621,-4.7665,-4.7922,-4.8325,-4.8934,-4.9001,-4.9018,-4.9018,-4.9018,-4.9018,-4.9018,-4.9018,-4.9018,-4.9018,-4.9018,-4.9018,-4.9018,-4.9018,-4.9018,-4.9018,-4.9018,-4.9018,-4.9018,-4.9018,-4.9018,-4.9018,-4.9018,-4.9018,-4.9018,-4.912,-4.9069,-4.9018,-4.9018,-4.9018,-4.9018,-4.892,-4.8903,-4.8492,-4.8526,-4.8543,-4.8514,-4.8514,-4.8678,-4.8892,-4.897,-4.897,-4.8909,-4.894,-4.8909,-4.8877,-4.8909,-4.8877,-4.8909,-4.894,-4.897,-4.9018,-4.9018,-4.9018,-4.9018,-4.9018,-4.9018,-4.9018,-4.9018,-4.9018,-4.9018,-4.9001,-4.9001,-4.9001,-4.8428,-4.7814,-4.7391,-4.6929,-4.6848,-4.6799,-4.693,-4.7241,-4.7371,-4.7354,-4.7056,-4.6644,-4.6106,-4.5598,-4.4706,-4.4399,-4.4302,-4.3735,-4.3265,-4.3072,-4.2797,-4.2683,-4.2651,-4.2619,-4.2602,-4.2602,-4.2602,-4.2602,-4.2602,-4.2602,-4.2602,-4.2602,-4.2602,-4.2602,-4.2602,-4.2602,-4.2602,-4.2602,-4.4598,-4.4598,-4.4598,-4.4598,-4.4598,-4.4598,-4.4598,-4.4649,-4.4925,-4.5754,-4.6887,-4.7327,-4.7986,-4.8866,-4.9001,-4.9018,-4.9018,-4.9018,-4.9018,-4.9018,-4.9018,-4.9018,-4.9018,-4.9018,-4.9018,-4.9018,-4.9018,-4.9018,-4.9018,-4.9018,-4.9018,-4.9018,-4.9018,-4.9018,-4.9018,-4.9018,-4.9018,-4.9018,-4.9289,-4.9306,-4.9137,-4.9052,-4.9018,-4.9018,-4.9018,-4.9018,-4.9018,-4.9018,-4.9001,-4.9001,-4.892,-4.892,-4.897,-4.9001,-4.9001,-4.9001,-4.8987,-4.8956,-4.8928,-4.8993,-4.9024,-4.8993,-4.9021,-4.9069,-4.9018,-4.9018,-4.9018,-4.9018,-4.9018,-4.9018,-4.9018,-4.9018,-4.9018,-4.9018,-4.897,-4.894,-4.8815,-4.848,-4.8029,-4.772,-4.7507,-4.7589,-4.7538,-4.7539,-4.7737,-4.7638,-4.7605,-4.732,-4.694,-4.6709,-4.6282,-4.5922,-4.5501,-4.4982,-4.4366,-4.3864,-4.346,-4.3153,-4.291,-4.2716,-4.2683,-4.2635,-4.2602,-4.2602,-4.2602,-4.2602,-4.2602,-4.2602,-4.2602,-4.2602,-4.2602,-4.2602,-4.2602,-4.2602,-4.2602,-4.4598,-4.4598,-4.4598,-4.4598,-4.4615,-4.4705,-4.4756,-4.4902,-4.5517,-4.5923,-4.6244,-4.6747,-4.7678,-4.846,-4.9001,-4.9001,-4.9018,-4.9018,-4.9018,-4.9018,-4.9018,-4.9018,-4.9018,-4.9018,-4.9018,-4.9018,-4.9018,-4.9018,-4.9018,-4.9018,-4.9018,-4.9018,-4.9018,-4.9018,-4.9018,-4.9018,-4.9035,-4.9357,-4.9593,-4.9712,-4.9475,-4.9154,-4.9137,-4.9103,-4.9018,-4.9018,-4.9018,-4.9018,-4.9018,-4.9018,-4.9018,-4.9018,-4.9018,-4.9018,-4.9187,-4.9204,-4.9323,-4.9266,-4.9222,-4.9483,-4.922,-4.9036,-4.9111,-4.9207,-4.9272,-4.9187,-4.9204,-4.9187,-4.9187,-4.9052,-4.9052,-4.9069,-4.9069,-4.9035,-4.9004,-4.8877,-4.8673,-4.8515,-4.826,-4.7984,-4.8016,-4.8081,-4.8179,-4.8164,-4.8017,-4.7935,-4.7721,-4.737,-4.7084,-4.6952,-4.6671,-4.6475,-4.6265,-4.5664,-4.5014,-4.4625,-4.4204,-4.3881,-4.3638,-4.312,-4.2797,-4.2942,-4.291,-4.2602,-4.2602,-4.2602,-4.2602,-4.2602,-4.2602,-4.2602,-4.2602,-4.2602,-4.2602,-4.2602,-4.2602,-4.4598,-4.4598,-4.4598,-4.4598,-4.4682,-4.5196,-4.55,-4.5602,-4.6227,-4.6904,-4.712,-4.7022,-4.7446,-4.8142,-4.8798,-4.8951,-4.8849,-4.8934,-4.9018,-4.9018,-4.9018,-4.9018,-4.9018,-4.9018,-4.9018,-4.9018,-4.9018,-4.9018,-4.9018,-4.9018,-4.9018,-4.9018,-4.9018,-4.9018,-4.9035,-4.912,-4.9373,-4.9779,-5.0152,-5.0321,-5.0557,-5.0168,-4.9509,-4.9289,-4.9018,-4.9018,-4.9018,-4.9018,-4.9018,-4.9018,-4.9018,-4.9018,-4.9052,-4.912,-4.9357,-4.9678,-4.9779,-5.0054,-5.0175,-5.0342,-5.016,-4.9822,-5.0033,-5.0221,-5.0152,-4.9898,-4.9881,-4.9813,-4.9678,-4.9289,-4.9221,-4.9272,-4.9289,-4.9154,-4.9055,-4.8832,-4.861,-4.8532,-4.8421,-4.8196,-4.8083,-4.8278,-4.8521,-4.8392,-4.8147,-4.8017,-4.7853,-4.7538,-4.7184,-4.7082,-4.6996,-4.6882,-4.6768,-4.6377,-4.5743,-4.5484,-4.5111,-4.4755,-4.435,-4.3897,-4.3605,-4.3524,-4.3347,-4.2991,-4.2699,-4.2602,-4.2602,-4.2602,-4.2602,-4.2602,-4.2602,-4.2602,-4.2602,-4.2602,-4.2602]},{"header":{"parameterUnit":"m.s-1","parameterCategory":1,"la1":31.0,"la2":29.5877,"lo1":-88.7671,"lo2":-86.6584,"dy":0.0162,"dx":0.0185,"nx":115,"ny":88,"refTime":"2024-03-13T12:00:00:Z","depth":0,"parameterNumber":3,"parameterNumberName":"V-component_of_WINDS"},"data":[0.0,0.0,0.0,0.0,0.0,0.0,0.0,0.0,0.0,0.0,0.0,0.0,0.0,0.0,0.0,0.0,0.0,0.0,0.0,0.0,0.0,0.0,0.0,0.0,0.0,0.0,0.0,0.0,0.0,0.0,0.0,0.0,0.0,0.0,0.0,0.0,0.0,0.0,0.0,0.0,0.0,0.0,0.0,0.0,0.0,0.0,0.0,0.0,0.0,0.0,0.0,0.0,0.0,0.0,0.0,0.0,0.0,0.0,0.0,0.0,0.0,0.0,0.0,0.0,0.0,0.0,0.0,0.0,0.0,0.0,0.0,0.0,0.0,0.0,0.0,0.0,0.0,0.0,0.0,0.0,0.0,0.0,0.0,0.0,0.0,0.0,0.0,0.0,0.0,0.0,0.0,0.0,0.0,0.0,0.0,0.0,0.0,0.0,0.0,0.0,0.0,0.0,0.0,0.0,0.0,0.0,0.0,0.0,0.0,0.0,0.0,0.0,0.0,0.0,0.0,0.0,0.0,0.0,0.0,0.0,0.0,0.0,0.0,0.0,0.0,0.0,0.0,0.0,0.0,0.0,0.0,0.0,0.0,0.0,0.0,0.0,0.0,0.0,0.0,0.0,0.0,0.0,0.0,0.0,0.0,0.0,0.0,0.0,0.0,0.0,0.0,0.0,0.0,0.0,0.0,0.0,0.0,0.0,0.0,0.0,0.0,0.0,0.0,0.0,0.0,0.0,0.0,0.0,0.0,0.0,0.0,0.0,0.0,0.0,0.0,0.0,0.0,0.0,0.0,0.0,0.0,0.0,0.0,0.0,0.0,0.0,0.0,0.0,0.0,0.0,0.0,0.0,0.0,0.0,0.0,0.0,0.0,0.0,0.0,0.0,0.0,0.0,0.0,0.0,0.0,0.0,0.0,0.0,0.0,0.0,0.0,0.0,0.0,0.0,0.0,0.0,0.0,0.0,0.0,0.0,0.0,0.0,0.0,0.0,0.0,0.0,0.0,0.0,0.0,0.0,0.0,0.0,0.0,0.0,0.0,0.0,0.0,0.0,0.0,0.0,0.0,0.0,0.0,0.0,0.0,0.0,0.0,0.0,0.0,0.0,0.0,0.0,0.0,0.0,0.0,0.0,0.0,0.0,0.0,0.0,0.0,0.0,0.0,0.0,0.0,0.0,0.0,0.0,0.0,0.0,0.0,0.0,0.0,0.0,0.0,0.0,0.0,0.0,0.0,0.0,0.0,0.0,0.0,0.0,0.0,0.0,0.0,0.0,0.0,0.0,0.0,0.0,0.0,0.0,0.0,0.0,0.0,0.0,0.0,0.0,0.0,0.0,0.0,0.0,0.0,0.0,0.0,0.0,0.0,0.0,0.0,0.0,0.0,0.0,0.0,0.0,0.0,0.0,0.0,0.0,0.0,0.0,0.0,0.0,0.0,0.0,0.0,0.0,0.0,0.0,0.0,0.0,0.0,0.0,0.0,0.0,0.0,0.0,0.0,0.0,0.0,0.0,0.0,0.0,0.0,0.0,0.0,0.0,0.0,0.0,0.0,0.0,0.0,0.0,0.0,0.0,0.0,0.0,0.0,0.0,0.0,0.0,0.0,0.0,0.0,0.0,0.0,0.0,0.0,0.0,0.0,0.0,0.0,0.0,0.0,0.0,0.0,0.0,0.0,0.0,0.0,0.0,0.0,0.0,0.0,0.0,0.0,0.0,0.0,0.0,0.0,0.0,0.0,0.0,0.0,0.0,0.0,0.0,0.0,0.0,0.0,0.0,0.0,0.0,0.0,0.0,0.0,0.0,0.0,0.0,0.0,0.0,0.0,0.0,0.0,0.0,0.0,0.0,0.0,0.0,0.0,0.0,0.0,0.0,0.0,0.0,0.0,0.0,0.0,0.0,0.0,0.0,0.0,0.0,0.0,0.0,0.0,0.0,0.0,0.0,0.0,0.0,0.0,0.0,0.0,0.0,0.0,0.0,0.0,0.0,0.0,0.0,0.0,0.0,0.0,0.0,0.0,0.0,0.0,0.0,0.0,0.0,0.0,0.0,0.0,0.0,0.0,0.0,0.0,0.0,0.0,0.0,0.0,0.0,0.0,0.0,0.0,0.0,0.0,0.0,0.0,0.0,0.0,0.0,0.0,0.0,0.0,0.0,0.0,0.0,0.0,0.0,0.0,0.0,0.0,0.0,0.0,0.0,0.0,0.0,0.0,0.0,0.0,0.0,0.0,0.0,0.0,0.0,0.0,0.0,0.0,0.0,0.0,0.0,0.0,0.0,0.0,0.0,0.0,0.0,0.0,0.0,0.0,0.0,0.0,0.0,0.0,0.0,0.0,0.0,0.0,0.0,0.0,0.0,0.0,0.0,0.0,0.0,0.0,0.0,0.0,0.0,0.0,0.0,0.0,0.0,0.0,0.0,0.0,0.0,0.0,0.0,0.0,0.0,0.0,0.0,0.0,0.0,0.0,0.0,0.0,0.0,0.0,0.0,0.0,0.0,0.0,0.0,0.0,0.0,0.0,0.0,0.0,0.0,0.0,0.0,0.0,0.0,0.0,0.0,0.0,0.0,0.0,0.0,0.0,0.0,0.0,0.0,0.0,0.0,0.0,0.0,0.0,0.0,0.0,0.0,0.0,0.0,0.0,0.0,0.0,0.0,0.0,0.0,0.0,0.0,0.0,0.0,0.0,0.0,0.0,0.0,0.0,0.0,0.0,0.0,0.0,0.0,0.0,0.0,0.0,0.0,0.0,0.0,0.0,0.0,0.0,0.0,0.0,0.0,0.0,0.0,0.0,0.0,0.0,0.0,0.0,0.0,0.0,0.0,0.0,0.0,0.0,0.0,0.0,0.0,0.0,0.0,0.0,0.0,0.0,0.0,0.0,0.0,0.0,0.0,0.0,0.0,0.0,0.0,0.0,0.0,0.0,0.0,0.0,0.0,0.0,0.0,0.0,0.0,0.0,0.0,0.0,0.0,0.0,0.0,0.0,0.0,0.0,0.0,0.0,0.0,0.0,0.0,0.0,0.0,0.0,0.0,0.0,0.0,0.0,0.0,0.0,0.0,0.0,0.0,0.0,0.0,0.0,0.0,0.0,0.0,0.0,0.0,0.0,0.0,0.0,0.0,0.0,0.0,0.0,0.0,0.0,0.0,0.0,0.0,0.0,0.0,0.0,0.0,0.0,0.0,0.0,0.0,0.0,0.0,0.0,0.0,0.0,0.0,0.0,0.0,0.0,0.0,0.0,0.0,0.0,0.0,0.0,0.0,0.0,0.0,0.0,0.0,0.0,0.0,0.0,0.0,0.0,0.0,0.0,0.0,0.0,0.0,0.0,0.0,0.0,0.0,0.0,0.0,0.0,0.0,0.0,0.0,0.0,0.0,0.0,0.0,0.0,0.0,0.0,0.0,0.0,0.0,0.0,0.0,0.0,0.0,0.0,0.0,0.0,0.0,0.0,0.0,0.0,0.0,0.0,0.0,0.0,0.0,0.0,0.0,0.0,0.0,0.0,0.0,0.0,0.0,0.0,0.0,0.0,0.0,0.0,0.0,0.0,0.0,0.0,0.0,0.0,0.0,0.0,0.0,0.0,0.0,0.0,0.0,0.0,0.0,0.0,0.0,0.0,0.0,0.0,0.0,0.0,0.0,0.0,0.0,0.0,0.0,0.0,0.0,0.0,0.0,0.0,0.0,0.0,0.0,0.0,0.0,0.0,0.0,0.0,0.0,0.0,0.0,0.0,0.0,0.0,0.0,0.0,0.0,0.0,0.0,0.0,0.0,0.0,0.0,0.0,0.0,0.0,0.0,0.0,0.0,0.0,0.0,0.0,0.0,0.0,0.0,0.0,0.0,0.0,0.0,0.0,0.0,0.0,0.0,0.0,0.0,0.0,0.0,0.0,0.0,0.0,0.0,0.0,0.0,0.0,0.0,0.0,0.0,0.0,0.0,0.0,0.0,0.0,0.0,0.0,0.0,0.0,0.0,0.0,0.0,0.0,0.0,0.0,0.0,0.0,0.0,0.0,0.0,0.0,0.0,0.0,0.0,0.0,0.0,0.0,0.0,0.0,0.0,0.0,0.0,0.0,0.0,0.0,0.0,0.0,0.0,0.0,0.0,0.0,0.0,0.0,0.0,0.0,0.0,0.0,0.0,0.0,0.0,0.0,0.0,0.0,0.0,0.0,0.0,0.0,0.0,0.0,0.0,0.0,0.0,0.0,0.0,0.0,0.0,0.0,0.0,0.0,0.0,0.0,0.0,0.0,0.0,0.9317,0.0,0.0,0.0,0.0,0.0,0.0,0.0,0.0,0.0,0.0,0.0,0.0,0.0,0.0,0.0,0.0,0.0,0.0,0.0,0.0,0.0,0.0,0.0,0.0,0.0,0.0,0.0,0.0,0.0,0.0,0.0,0.0,0.0,0.0,0.0,0.0,0.0,0.0,0.0,0.0,0.0,0.0,0.0,0.0,0.0,0.0,0.0,0.0,0.0,0.0,0.0,0.0,0.0,0.0,0.0,0.0,0.0,0.0,0.0,0.0,0.0,0.0,0.0,0.0,0.0,0.0,0.0,0.0,0.0,0.0,0.0,0.0,0.0,0.0,0.0,0.0,0.0,0.0,0.0,0.0,0.0,0.0,0.0,0.0,0.0,0.0,0.0,0.0,0.0,0.0,0.0,0.0,0.0,0.0,0.0,0.0,0.0,0.0,0.0,0.0,0.0,0.0,0.0,0.0,0.0,0.0,0.0,0.0,0.0,0.0,1.0194,0.9893,1.0594,1.0559,0.9685,0.0,0.0,0.0,0.0,0.0,0.0,0.0,0.0,0.0,0.0,0.0,0.0,0.0,0.0,0.0,0.0,0.0,0.0,0.0,0.0,0.0,0.0,0.0,0.0,0.0,0.0,0.0,0.0,0.0,0.0,0.0,0.0,0.0,0.0,0.0,0.0,0.0,0.0,0.0,0.0,0.0,0.0,0.0,0.0,0.0,0.0,0.0,0.0,0.0,0.0,0.0,0.0,0.0,0.0,0.0,0.0,0.0,0.0,0.0,0.0,0.0,0.0,0.0,0.0,0.0,0.0,0.0,0.0,0.0,0.0,0.0,0.0,0.0,0.0,0.0,0.0,0.0,0.0,0.0,0.0,0.0,0.0,0.0,0.0,0.0,0.0,0.0,0.0,0.0,0.0,0.0,0.0,0.0,0.0,0.0,0.0,0.0,0.0,0.0,0.0,0.0,0.0,0.0,0.0,0.0,0.0,0.0,0.0,0.0,0.0,0.0,0.0,1.0695,1.0872,1.0918,0.0,0.0,0.0,0.0,0.0,0.0,0.0,0.0,0.0,0.0,0.0,0.0,0.0,0.0,0.0,0.0,0.0,0.0,0.0,0.0,0.0,0.0,0.0,0.0,0.0,0.0,0.0,0.0,0.0,0.0,0.0,0.0,0.0,0.0,0.0,0.0,0.0,0.0,0.0,0.0,0.0,0.0,0.0,0.0,0.0,0.0,0.0,0.0,0.0,0.0,0.0,0.0,0.0,0.0,0.0,0.0,0.0,0.0,0.0,0.0,0.0,0.0,0.0,0.0,0.0,0.0,0.0,0.0,0.0,0.0,0.0,0.0,0.0,0.0,0.0,0.0,0.0,0.0,0.0,0.0,0.0,0.0,0.0,0.0,0.0,0.0,0.0,0.0,0.0,0.0,0.0,0.0,0.0,0.0,0.0,0.0,0.0,0.0,0.0,0.0,0.0,0.0,0.0,0.0,0.0,0.0,0.0,0.0,0.0,0.0,1.0137,1.1164,1.1686,0.0,1.3253,0.0,0.0,0.0,0.0,0.0,0.0,0.0,0.0,0.0,0.0,0.0,0.0,0.0,0.0,0.0,0.0,0.0,0.0,0.0,0.0,0.0,0.0,0.0,0.0,0.0,0.0,0.0,0.0,0.0,0.0,0.0,0.0,0.0,0.0,0.0,0.0,0.0,0.0,0.0,0.0,0.0,0.0,0.0,0.0,0.0,0.0,0.0,0.0,0.0,0.0,0.0,0.0,0.0,0.0,0.0,0.0,0.0,0.0,0.0,0.0,0.0,0.0,0.0,0.0,0.0,0.0,0.0,0.0,0.0,0.0,0.0,0.0,0.0,0.0,0.0,0.0,0.0,0.0,0.0,0.0,0.0,0.0,0.0,0.0,0.0,0.0,0.0,0.0,0.0,0.0,0.0,0.0,0.0,0.0,0.0,0.0,0.0,0.0,0.0,0.0,0.0,0.0,0.0,0.0,0.0,0.0,0.0,0.0,0.0,0.0,1.0323,1.1584,1.194,1.2351,0.0,0.0,0.0,0.0,0.0,0.0,0.0,0.0,0.0,0.0,0.0,0.0,0.0,0.0,0.0,0.0,0.0,0.0,0.0,0.0,0.0,0.0,0.0,0.0,0.0,0.0,0.0,0.0,0.0,0.0,0.0,0.0,0.0,0.0,0.0,0.0,0.0,0.0,0.0,0.0,0.0,0.0,0.0,0.0,0.0,0.0,0.0,0.0,0.0,0.0,0.0,0.0,0.0,0.0,0.0,0.0,0.0,0.0,0.0,0.0,0.0,0.0,0.0,0.0,0.0,0.0,0.0,0.0,0.0,0.0,0.0,0.0,0.0,0.0,0.0,0.0,0.0,0.0,0.0,0.0,0.0,0.0,0.0,0.0,0.0,0.0,0.0,0.0,0.0,0.0,0.0,0.0,0.0,0.0,0.0,0.0,0.0,0.0,0.0,0.0,0.0,0.0,0.0,0.0,0.0,0.0,0.0,0.0,0.0,0.0,1.0266,1.0789,1.2076,1.2116,1.2208,1.246,0.0,0.0,0.0,0.0,0.0,0.0,0.0,0.0,0.0,0.0,0.0,0.0,0.0,0.0,0.0,0.0,0.0,0.0,0.0,0.0,0.0,0.0,0.0,0.0,0.0,0.0,0.0,0.0,0.0,0.0,0.0,0.0,0.0,0.0,0.0,0.0,0.0,0.0,0.0,0.0,0.0,0.0,0.0,0.0,0.0,0.0,0.0,0.0,0.0,0.0,0.0,0.0,0.0,0.0,0.0,0.0,0.0,0.0,0.0,0.0,0.0,0.0,0.0,0.0,0.0,0.0,0.0,0.0,0.0,0.0,0.0,0.0,0.0,0.0,0.0,0.0,0.0,0.0,0.0,0.0,0.0,0.0,0.0,0.0,0.0,0.0,0.0,0.0,0.0,0.0,0.0,0.0,0.0,0.0,0.0,0.0,0.0,0.0,0.0,0.0,0.0,0.0,0.0,0.0,0.0,0.0,0.0,0.0,1.2598,1.156,1.1645,1.295,1.2248,1.2298,0.0,0.0,0.0,0.0,0.0,0.0,0.0,0.0,0.0,0.0,0.0,0.0,0.0,0.0,0.0,0.0,0.0,0.0,0.0,0.0,0.0,0.0,0.0,0.0,0.0,0.0,0.0,0.0,0.0,0.0,0.0,0.0,0.0,0.0,0.0,0.0,0.0,0.0,0.0,0.0,0.0,0.0,0.0,0.0,0.0,0.0,0.0,0.0,0.0,0.0,0.0,0.0,0.0,0.0,0.0,0.0,0.0,0.0,0.0,0.0,0.0,0.0,0.0,0.0,0.0,0.0,0.0,0.0,0.0,0.0,0.0,0.0,0.0,0.0,0.0,0.0,0.0,0.0,0.0,0.0,0.0,0.0,0.0,0.0,0.0,0.0,0.0,0.0,0.0,0.0,0.0,0.0,0.0,0.0,0.0,0.0,0.0,0.0,0.0,0.0,0.0,0.0,0.0,0.0,0.0,0.0,0.0,0.0,0.0,1.1494,1.2421,1.2977,1.3146,1.309,1.3194,0.0,0.0,0.0,0.0,0.0,0.0,0.0,0.0,0.0,0.0,0.0,0.0,0.0,0.0,0.0,0.0,0.0,0.0,0.0,0.0,0.0,0.0,0.0,0.0,0.0,0.0,0.0,0.0,0.0,0.0,0.0,0.0,0.0,0.0,0.0,0.0,0.0,0.0,0.0,0.0,0.0,0.0,0.0,0.0,0.0,0.0,0.0,0.0,0.0,0.0,0.0,0.0,0.0,0.0,0.0,0.0,0.0,0.0,0.0,0.0,0.0,0.0,0.0,0.0,0.0,0.0,0.0,0.0,0.0,0.0,0.0,0.0,0.0,0.0,0.0,0.0,0.0,0.0,0.0,0.0,0.0,0.0,0.0,0.0,0.0,0.0,0.0,0.0,0.0,0.0,0.0,0.0,0.0,0.0,0.0,0.0,0.0,0.0,0.0,0.0,0.0,0.0,0.0,0.0,0.0,0.0,0.0,0.0,0.0,1.1541,0.0,1.383,1.3495,1.3404,1.3206,0.0,0.0,0.0,0.0,0.0,0.0,0.0,0.0,0.0,0.0,0.0,0.0,0.0,0.0,0.0,0.0,0.0,0.0,0.0,0.0,0.0,0.0,0.0,0.0,0.0,0.0,0.0,0.0,0.0,0.0,0.0,0.0,0.0,0.0,0.0,0.0,0.0,0.0,0.0,0.0,0.0,0.0,0.0,0.0,0.0,0.0,0.0,0.0,0.0,0.0,0.0,0.0,0.0,0.0,0.0,0.0,0.0,0.0,0.0,0.0,0.0,0.0,0.0,0.0,0.0,0.0,0.0,0.0,0.0,0.0,0.0,0.0,0.0,0.0,0.0,0.0,0.0,0.0,0.0,0.0,0.0,0.0,0.0,0.0,0.0,0.0,0.0,0.0,0.0,0.0,0.0,0.0,0.0,0.0,0.0,0.0,0.0,0.0,0.0,0.0,0.0,0.0,0.0,0.0,0.0,0.0,0.0,0.0,1.1912,1.3118,1.3732,1.41,1.4119,1.3049,1.234,0.0,0.0,0.0,0.0,0.0,0.0,0.0,0.0,0.0,0.0,0.0,0.0,0.0,0.0,0.0,0.0,0.0,0.0,0.0,0.0,0.0,0.0,0.0,0.0,0.0,0.0,0.0,0.0,0.0,0.0,0.0,0.0,0.0,0.0,0.0,0.0,0.0,0.0,0.0,0.0,0.0,0.0,0.0,0.0,0.0,0.0,0.0,0.0,0.0,0.0,0.0,0.0,0.0,0.0,0.0,0.0,0.0,0.0,0.0,0.0,0.0,0.0,0.0,0.0,0.0,0.0,0.0,0.0,0.0,0.0,0.0,0.0,0.0,0.0,0.0,0.0,0.0,0.0,0.0,0.0,0.0,0.0,0.0,0.0,0.0,0.0,0.0,0.0,0.0,0.0,0.0,0.0,0.0,0.0,0.0,0.0,0.0,0.0,0.0,0.0,0.0,0.0,0.0,0.0,0.0,0.0,0.0,0.0,0.0,1.2289,1.3979,1.5012,1.5211,1.386,1.3419,0.0,0.0,0.0,0.0,0.0,0.0,0.0,0.0,0.0,0.0,0.0,0.0,0.0,0.0,0.0,0.0,0.0,0.0,0.0,0.0,0.0,0.0,0.0,0.0,0.0,0.0,0.0,0.0,0.0,0.0,0.0,0.0,0.0,0.0,0.0,0.0,0.0,0.0,0.0,0.0,0.0,0.0,0.0,0.0,0.0,0.0,0.0,0.0,0.0,0.0,0.0,0.0,0.0,0.0,0.0,0.0,0.0,0.0,0.0,0.0,0.0,0.0,0.0,0.0,0.0,0.0,0.0,0.0,0.0,0.0,0.0,0.0,0.0,0.0,0.0,0.0,0.0,0.0,0.0,0.0,0.0,0.0,0.0,0.0,0.0,0.0,0.0,0.0,0.0,0.0,0.0,0.0,0.0,0.0,0.0,0.0,0.0,0.0,0.0,0.0,0.0,0.0,0.0,0.0,0.0,0.0,0.0,0.0,0.0,1.3539,1.4993,1.588,1.6064,1.471,1.4241,1.4716,0.0,0.0,0.0,0.0,0.0,0.0,0.0,0.0,0.0,0.0,0.0,0.0,0.0,0.0,0.0,0.0,0.0,0.0,0.0,0.0,0.0,0.0,0.0,0.0,0.0,0.0,0.0,0.0,0.0,0.0,0.0,0.0,0.0,0.0,0.0,0.0,0.0,0.0,0.0,0.0,0.0,0.0,0.0,0.0,0.0,0.0,0.0,0.0,0.0,0.0,0.0,0.0,0.0,0.0,0.0,0.0,0.0,0.0,0.0,0.0,0.0,0.0,0.0,0.0,0.0,0.0,0.0,0.0,0.0,0.0,0.0,0.0,0.0,0.0,0.0,0.0,0.0,0.0,0.0,0.0,0.0,0.0,0.0,0.0,0.0,0.0,0.0,0.0,0.0,0.0,0.0,0.0,0.0,0.0,0.0,0.0,0.0,0.0,0.0,0.0,0.0,0.0,0.0,0.0,0.0,0.0,0.0,0.0,1.6286,1.6618,1.6779,1.6688,1.5628,1.4894,0.0,0.0,0.0,0.0,0.0,0.0,0.0,0.0,0.0,0.0,0.0,0.0,0.0,0.0,0.0,0.0,0.0,0.0,0.0,0.0,0.0,0.0,0.0,0.0,0.0,0.0,0.0,0.0,0.0,0.0,0.0,0.0,0.0,0.0,0.0,0.0,0.0,0.0,0.0,0.0,0.0,0.0,0.0,0.0,0.0,0.0,0.0,0.0,0.0,0.0,0.0,0.0,0.0,0.0,0.0,0.0,0.0,0.0,0.0,0.0,0.0,0.0,0.0,0.0,0.0,0.0,0.0,0.0,0.0,0.0,0.0,0.0,0.0,0.0,0.0,0.0,0.0,0.0,0.0,0.0,0.0,0.0,0.0,0.0,0.0,0.0,0.0,0.0,0.0,0.0,0.0,0.0,0.0,0.0,0.0,0.0,0.0,0.0,0.0,0.0,0.0,0.0,0.0,0.0,0.0,0.0,0.0,0.0,0.0,1.6302,1.8029,1.8944,1.8893,1.7006,1.6009,0.0,0.0,0.0,0.0,0.0,0.0,0.0,0.0,0.0,0.0,0.0,0.0,0.0,0.0,0.0,0.0,0.0,0.0,0.0,0.0,0.0,0.0,0.0,0.0,0.0,0.0,0.0,0.0,0.0,0.0,0.0,0.0,0.0,0.0,0.0,0.0,0.0,0.0,0.0,0.0,0.0,0.0,0.0,0.0,0.0,0.0,0.0,0.0,0.0,0.0,0.0,0.0,0.0,0.0,0.0,0.0,0.0,0.0,0.0,0.0,0.0,0.0,0.0,0.0,0.0,0.0,0.0,0.0,0.0,0.0,0.0,0.0,0.0,0.0,0.0,0.0,0.0,0.0,0.0,0.0,0.0,0.0,0.0,0.0,0.0,0.0,0.0,0.0,0.0,0.0,0.0,0.0,0.0,0.0,0.0,0.0,0.0,0.0,0.0,0.0,0.0,0.0,0.0,0.0,0.0,0.0,0.0,0.0,1.6033,1.7797,1.9658,2.0681,2.0867,1.9114,1.7676,0.0,0.0,0.0,0.0,0.0,0.0,0.0,0.0,0.0,0.0,0.0,0.0,0.0,0.0,0.0,0.0,0.0,0.0,0.0,0.0,0.0,0.0,0.0,0.0,0.0,0.0,0.0,0.0,0.0,0.0,0.0,0.0,0.0,0.0,0.0,0.0,0.0,0.0,0.0,0.0,0.0,0.0,0.0,0.0,0.0,0.0,0.0,0.0,0.0,0.0,0.0,0.0,0.0,0.0,0.0,0.0,0.0,0.0,0.0,0.0,0.0,0.0,0.0,0.0,0.0,0.0,0.0,0.0,0.0,0.0,0.0,0.0,0.0,0.0,0.0,0.0,0.0,0.0,0.0,0.0,0.0,0.0,0.0,0.0,0.0,0.0,0.0,0.0,0.0,0.0,0.0,0.0,0.0,0.0,0.0,0.0,0.0,0.0,0.0,0.0,0.0,0.0,0.0,0.0,0.0,0.0,0.0,0.0,1.7296,1.9775,2.1111,2.1936,2.2172,2.125,1.9443,0.0,0.0,0.0,0.0,0.0,0.0,0.0,0.0,0.0,0.0,0.0,0.0,0.0,0.0,0.0,0.0,0.0,0.0,0.0,0.0,0.0,0.0,0.0,0.0,0.0,0.0,0.0,0.0,0.0,0.0,0.0,0.0,0.0,0.0,0.0,0.0,0.0,0.0,0.0,0.0,0.0,0.0,0.0,0.0,0.0,0.0,0.0,0.0,0.0,0.0,0.0,0.0,0.0,0.0,0.0,0.0,0.0,0.0,0.0,0.0,0.0,0.0,0.0,0.0,0.0,0.0,0.0,0.0,0.0,0.0,0.0,0.0,0.0,0.0,0.0,0.0,0.0,0.0,0.0,0.0,0.0,0.0,0.0,0.0,0.0,0.0,0.0,0.0,0.0,0.0,0.0,0.0,0.0,0.0,0.0,0.0,0.0,0.0,0.0,0.0,0.0,0.0,0.0,0.0,0.0,0.0,0.0,0.0,1.7583,1.9416,2.1293,2.212,2.181,2.1037,1.9974,0.0,0.0,0.0,0.0,0.0,0.0,0.0,0.0,0.0,0.0,0.0,0.0,0.0,0.0,0.0,0.0,0.0,0.0,0.0,0.0,0.0,0.0,0.0,0.0,0.0,0.0,0.0,0.0,0.0,0.0,0.0,0.0,0.0,0.0,0.0,0.0,0.0,0.0,0.0,0.0,0.0,0.0,0.0,0.0,0.0,0.0,0.0,0.0,1.5212,0.0,0.0,0.0,0.0,0.0,0.0,0.0,0.0,0.0,0.0,0.0,0.0,0.0,0.0,0.0,0.0,0.0,0.0,0.0,0.0,0.0,0.0,0.0,0.0,0.0,0.0,0.0,0.0,0.0,0.0,0.0,0.0,0.0,0.0,0.0,0.0,0.0,0.0,0.0,0.0,0.0,0.0,0.0,0.0,0.0,0.0,0.0,0.0,0.0,0.0,0.0,0.0,0.0,0.0,0.0,0.0,0.0,0.0,0.0,1.8299,1.9837,2.1475,2.2224,2.1991,2.1549,2.0482,0.0,0.0,0.0,0.0,0.0,0.0,0.0,0.0,0.0,0.0,0.0,0.0,0.0,0.0,0.0,0.0,0.0,0.0,0.0,0.0,0.0,0.0,0.0,0.0,0.0,0.0,0.0,0.0,0.0,0.0,0.0,0.0,0.0,0.0,0.0,0.0,0.0,0.0,0.0,0.0,0.0,0.0,0.0,0.0,0.0,0.0,0.0,0.0,0.0,0.0,0.0,0.0,0.0,0.0,0.0,0.0,0.0,0.0,0.0,0.0,0.0,0.0,0.0,0.0,0.0,0.0,0.0,0.0,0.0,0.0,0.0,0.0,0.0,0.0,0.0,0.0,0.0,0.0,0.0,0.0,0.0,0.0,0.0,0.0,0.0,0.0,0.0,0.0,0.0,0.0,0.0,0.0,0.0,0.0,0.0,0.0,0.0,0.0,0.0,0.0,0.0,0.0,0.0,0.0,0.0,0.0,0.0,1.7264,1.9034,2.0671,2.1736,2.2324,2.2313,2.2107,2.0817,1.8425,0.0,0.0,0.0,0.0,0.0,0.0,0.0,0.0,0.0,0.0,0.0,0.0,0.0,0.0,0.0,0.0,0.0,0.0,0.0,0.0,0.0,0.0,0.0,0.0,0.0,0.0,0.0,0.0,0.0,0.0,0.0,0.0,0.0,0.0,0.0,0.0,0.0,0.0,1.2558,1.4642,0.0,0.0,0.0,0.0,0.0,0.0,0.0,0.0,1.604,0.0,0.0,0.0,0.0,0.0,0.0,0.0,0.0,0.0,0.0,0.0,0.0,0.0,0.0,0.0,0.0,0.0,0.0,0.0,0.0,0.0,0.0,0.0,0.0,0.0,0.0,0.0,0.0,0.0,0.0,0.0,0.0,0.0,0.0,0.0,0.0,0.0,0.0,0.0,0.0,0.0,0.0,0.0,0.0,0.0,0.0,0.0,0.0,0.0,0.0,0.0,0.0,0.0,0.0,0.0,0.0,1.6858,1.7616,1.9153,2.1505,2.2053,2.2324,2.2302,2.1807,2.0493,1.8476,0.0,0.0,0.0,0.0,0.0,0.0,0.0,0.0,0.0,0.0,0.0,0.0,0.0,0.0,0.0,0.0,0.0,0.0,0.0,0.0,0.0,0.0,0.0,0.0,0.0,0.0,0.0,0.0,0.0,0.0,0.0,0.0,0.0,0.0,0.0,0.0,0.0,0.0,0.0,1.6735,1.7653,0.0,0.0,0.0,0.0,0.0,0.0,0.0,0.0,1.5865,0.0,0.0,0.0,0.0,0.0,0.0,0.0,0.0,0.0,0.0,0.0,0.0,0.0,0.0,0.0,0.0,0.0,0.0,0.0,0.0,0.0,0.0,0.0,0.0,0.0,0.0,0.0,0.0,0.0,0.0,0.0,0.0,0.0,0.0,0.0,0.0,0.0,0.0,0.0,0.0,0.0,0.0,0.0,0.0,0.0,0.0,0.0,0.0,0.0,0.0,0.0,0.0,0.0,0.0,0.0,1.686,1.8394,1.9899,2.1321,2.1753,2.1811,2.1594,2.1452,2.0323,0.0,0.0,0.0,0.0,0.0,0.0,0.0,0.0,0.0,0.0,0.0,0.0,0.0,0.0,0.0,0.0,0.0,0.0,0.0,0.0,0.0,0.0,0.0,0.0,0.0,0.0,0.0,0.0,0.0,0.0,0.0,0.0,0.0,0.0,0.0,0.0,0.0,0.0,0.0,0.0,1.7692,1.84,1.9171,0.0,0.0,0.0,0.0,0.0,0.0,1.6978,1.6692,0.0,0.0,0.0,0.0,0.0,0.0,0.0,0.0,0.0,0.0,0.0,0.0,0.0,0.0,0.0,0.0,0.0,0.0,0.0,0.0,0.0,0.0,0.0,0.0,0.0,0.0,0.0,0.0,0.0,0.0,0.0,0.0,0.0,0.0,0.0,0.0,0.0,0.0,0.0,0.0,0.0,0.0,0.0,0.0,0.0,0.0,0.0,0.0,0.0,0.0,0.0,0.0,0.0,0.0,0.0,1.6768,1.891,2.0418,2.1096,2.1333,2.1288,2.0973,2.1141,2.0187,0.0,0.0,0.0,0.0,0.0,0.0,0.0,0.0,0.0,0.0,0.0,0.0,0.0,0.0,0.0,0.0,0.0,0.0,0.0,0.0,0.0,0.0,0.0,0.0,0.0,0.0,0.0,0.0,0.0,0.0,0.0,0.0,0.0,0.0,0.0,0.0,0.0,0.0,0.0,0.0,0.0,1.9069,1.9574,1.9157,0.0,0.0,0.0,0.0,1.835,1.8381,0.0,0.0,0.0,0.0,0.0,0.0,0.0,0.0,0.0,0.0,0.0,0.0,0.0,0.0,0.0,0.0,0.0,0.0,0.0,0.0,0.0,0.0,0.0,0.0,0.0,0.0,0.0,0.0,0.0,0.0,0.0,0.0,0.0,0.0,0.0,0.0,0.0,0.0,0.0,0.0,0.0,0.0,0.0,0.0,0.0,0.0,0.0,0.0,0.0,0.0,0.0,0.0,0.0,0.0,0.0,0.0,1.7429,1.8593,1.9932,2.1413,2.1166,2.1005,2.1063,2.0873,2.0059,0.0,0.0,0.0,0.0,0.0,0.0,0.0,0.0,0.0,0.0,0.0,0.0,0.0,0.0,0.0,0.0,0.0,0.0,0.0,0.0,0.0,0.0,0.0,0.0,0.0,0.0,0.0,0.0,0.0,0.0,0.0,0.0,0.0,0.0,0.0,0.0,0.0,0.0,0.0,0.0,0.0,2.0015,1.958,1.9114,1.8752,0.0,0.0,1.9794,1.9927,2.102,0.0,0.0,0.0,0.0,0.0,0.0,0.0,0.0,0.0,0.0,0.0,0.0,0.0,0.0,0.0,0.0,0.0,0.0,0.0,0.0,0.0,0.0,0.0,0.0,0.0,0.0,0.0,0.0,0.0,0.0,0.0,0.0,0.0,0.0,0.0,0.0,0.0,0.0,0.0,0.0,0.0,0.0,0.0,0.0,0.0,0.0,0.0,0.0,0.0,0.0,0.0,0.0,0.0,0.0,0.0,1.643,1.7597,1.8909,2.0118,2.1146,2.0708,2.0478,2.0545,2.064,2.0005,0.0,0.0,0.0,0.0,0.0,0.0,0.0,0.0,0.0,0.0,0.0,0.0,0.0,0.0,0.0,0.0,0.0,0.0,0.0,0.0,0.0,0.0,0.0,0.0,0.0,0.0,0.0,0.0,0.0,0.0,0.0,0.0,0.0,0.0,0.0,0.0,0.0,0.0,0.0,0.0,0.0,0.0,2.0556,2.0102,0.0,0.0,0.0,2.1185,2.1316,0.0,0.0,0.0,0.0,0.0,0.0,0.0,0.0,0.0,0.0,0.0,0.0,0.0,0.0,0.0,0.0,0.0,0.0,0.0,0.0,0.0,0.0,0.0,0.0,0.0,0.0,0.0,0.0,0.0,0.0,0.0,0.0,0.0,0.0,0.0,0.0,0.0,0.0,0.0,0.0,0.0,0.0,0.0,0.0,0.0,0.0,0.0,0.0,0.0,0.0,0.0,0.0,0.0,0.0,0.0,0.0,0.0,1.7524,1.9217,2.0282,2.0653,2.0292,2.0151,2.0248,2.054,0.0,0.0,0.0,0.0,0.0,0.0,0.0,0.0,0.0,0.0,0.0,0.0,0.0,0.0,0.0,0.0,0.0,0.0,0.0,0.0,0.0,0.0,0.0,0.0,0.0,0.0,0.0,1.3639,0.0,0.0,0.0,0.0,0.0,0.0,0.0,0.0,0.0,0.0,0.0,0.0,0.0,0.0,2.0697,2.1296,2.0996,2.0969,0.0,0.0,2.2199,2.2456,2.305,2.3258,0.0,0.0,0.0,0.0,0.0,0.0,0.0,0.0,0.0,0.0,0.0,0.0,0.0,0.0,0.0,0.0,0.0,0.0,0.0,0.0,0.0,0.0,0.0,0.0,0.0,0.0,0.0,0.0,0.0,0.0,0.0,0.0,0.0,0.0,0.0,0.0,0.0,0.0,0.0,0.0,0.0,0.0,0.0,0.0,0.0,0.0,0.0,0.0,0.0,0.0,0.0,0.0,0.0,0.0,0.0,1.7359,1.9158,2.0129,2.0162,2.0129,2.027,2.0637,2.0701,2.0355,0.0,0.0,0.0,0.0,0.0,0.0,0.0,0.0,0.0,0.0,0.0,0.0,0.0,0.0,0.0,0.0,0.0,0.0,0.0,0.0,0.0,0.0,0.0,0.0,0.0,0.0,0.0,0.0,0.0,0.0,0.0,0.0,0.0,0.0,0.0,0.0,0.0,0.0,0.0,0.0,0.0,2.1253,2.1293,2.1323,2.1776,0.0,0.0,2.2899,2.3264,2.4595,2.5126,2.374,0.0,0.0,0.0,0.0,0.0,0.0,0.0,0.0,0.0,0.0,0.0,0.0,0.0,0.0,0.0,0.0,0.0,0.0,0.0,0.0,0.0,0.0,0.0,0.0,0.0,0.0,0.0,0.0,0.0,0.0,0.0,0.0,0.0,0.0,0.0,0.0,0.0,0.0,0.0,0.0,0.0,0.0,0.0,0.0,0.0,0.0,0.0,0.0,0.0,0.0,0.0,0.0,0.0,1.7336,1.7737,1.9289,2.0118,2.0118,2.0118,2.0172,2.0335,2.0583,2.0419,0.0,0.0,0.0,0.0,0.0,0.0,0.0,0.0,0.0,0.0,0.0,0.0,0.0,0.0,0.0,0.0,0.0,0.0,0.0,0.0,0.0,0.0,0.0,0.0,0.0,0.0,0.0,0.0,1.6428,1.6628,1.5795,0.0,0.0,0.0,0.0,0.0,0.0,0.0,0.0,0.0,0.0,2.2382,2.2461,2.2498,0.0,0.0,2.3859,2.4184,2.4963,2.5374,2.5556,2.5334,2.4955,0.0,0.0,0.0,0.0,0.0,0.0,0.0,0.0,0.0,0.0,0.0,0.0,0.0,0.0,0.0,0.0,0.0,0.0,0.0,0.0,0.0,0.0,0.0,0.0,0.0,0.0,0.0,0.0,0.0,0.0,0.0,0.0,0.0,0.0,0.0,0.0,0.0,0.0,0.0,0.0,0.0,0.0,0.0,0.0,0.0,0.0,0.0,0.0,0.0,0.0,0.0,0.0,1.7518,1.801,1.9387,2.0118,2.0118,2.0118,2.0151,2.0216,2.0475,2.0413,0.0,0.0,0.0,0.0,0.0,0.0,0.0,0.0,0.0,0.0,0.0,0.0,0.0,0.0,0.0,0.0,0.0,0.0,0.0,0.0,0.0,0.0,0.0,0.0,0.0,0.0,0.0,0.0,1.7186,1.7076,1.6409,0.0,0.0,0.0,0.0,0.0,0.0,0.0,0.0,0.0,0.0,2.3379,2.3472,2.3472,2.3689,2.4299,2.4504,2.4881,2.5676,2.5666,2.5734,2.6041,0.0,0.0,0.0,0.0,0.0,0.0,0.0,0.0,0.0,0.0,0.0,0.0,0.0,0.0,0.0,0.0,0.0,0.0,0.0,0.0,0.0,0.0,0.0,0.0,0.0,0.0,0.0,0.0,0.0,0.0,1.3494,0.0,0.0,0.0,0.0,0.0,0.0,0.0,0.0,0.0,0.0,0.0,0.0,0.0,0.0,0.0,0.0,0.0,0.0,0.0,0.0,0.0,0.0,1.7529,1.7992,1.9387,2.0118,2.0129,2.0118,2.0238,2.0411,2.0433,2.0349,2.02,0.0,0.0,0.0,0.0,0.0,0.0,0.0,0.0,0.0,0.0,0.0,0.0,0.0,0.0,0.0,0.0,0.0,0.0,0.0,0.0,0.0,0.0,0.0,0.0,0.0,0.0,1.6396,1.6471,1.6864,0.0,0.0,0.0,0.0,0.0,0.0,0.0,0.0,0.0,0.0,2.3595,2.4069,2.4082,2.4082,2.4313,2.4855,2.4778,2.4716,2.5099,2.55,2.57,0.0,0.0,0.0,0.0,0.0,0.0,0.0,0.0,0.0,0.0,0.0,0.0,0.0,0.0,0.0,0.0,0.0,0.0,0.0,0.0,0.0,0.0,0.0,0.0,0.0,0.0,0.0,1.4705,1.4866,0.0,0.0,0.0,0.0,0.0,0.0,0.0,0.0,0.0,0.0,0.0,2.1554,2.1713,0.0,0.0,0.0,0.0,0.0,0.0,0.0,0.0,0.0,0.0,0.0,0.0,1.7988,1.849,1.954,2.0271,2.0609,2.062,2.0818,2.1192,2.126,2.0963,2.018,0.0,0.0,0.0,0.0,0.0,0.0,0.0,0.0,0.0,0.0,0.0,0.0,0.0,0.0,0.0,0.0,0.0,0.0,0.0,0.0,0.0,0.0,0.0,0.0,0.0,1.9005,0.0,0.0,0.0,0.0,0.0,0.0,0.0,0.0,0.0,0.0,0.0,2.2923,2.3514,2.4216,2.4679,2.4706,2.472,2.4788,0.0,0.0,0.0,0.0,0.0,0.0,0.0,0.0,0.0,0.0,0.0,0.0,0.0,0.0,2.5856,2.5346,2.503,2.4911,2.5188,0.0,0.0,0.0,0.0,0.0,0.0,0.0,0.0,0.0,0.0,0.0,0.0,0.0,0.0,1.6586,0.0,1.6506,0.0,0.0,0.0,0.0,0.0,0.0,0.0,0.0,2.0791,2.1782,2.2649,2.2982,2.3248,0.0,2.334,2.2262,0.0,0.0,0.0,0.0,0.0,0.0,0.0,0.0,1.8895,1.918,2.0129,2.0795,2.1124,2.1146,2.1288,2.1605,2.1803,2.1565,2.081,2.0734,2.0263,0.0,0.0,0.0,0.0,0.0,0.0,0.0,0.0,0.0,0.0,0.0,0.0,0.0,0.0,0.0,0.0,0.0,0.0,0.0,0.0,0.0,0.0,0.0,2.0876,0.0,0.0,0.0,0.0,0.0,0.0,0.0,0.0,0.0,2.2156,2.3191,2.404,2.4242,2.4718,2.5005,2.5005,0.0,0.0,0.0,0.0,0.0,0.0,0.0,2.5785,2.5948,2.6007,2.5893,2.5449,2.5963,2.6554,2.6877,0.0,0.0,2.7578,2.727,2.7136,2.7403,2.7446,2.7446,2.7462,2.7446,2.7446,0.0,0.0,0.0,0.0,0.0,0.0,0.0,0.0,1.7905,1.838,0.0,1.8887,0.0,0.0,0.0,0.0,0.0,1.9141,0.0,0.0,2.2174,2.2898,2.2686,2.3883,2.4476,2.4454,2.3951,2.3651,2.3531,2.1811,0.0,0.0,0.0,0.0,0.0,0.0,2.0129,2.0151,2.1079,2.1592,2.1614,2.1614,2.1625,2.1682,2.1985,2.2135,2.2092,2.1591,2.1152,2.0892,1.9106,0.0,0.0,0.0,0.0,0.0,0.0,0.0,0.0,0.0,0.0,0.0,0.0,0.0,0.0,0.0,0.0,0.0,0.0,0.0,0.0,2.1701,0.0,0.0,0.0,0.0,0.0,0.0,0.0,0.0,0.0,0.0,2.4082,2.4123,2.4354,2.4924,0.0,0.0,0.0,0.0,2.5005,2.5005,2.5285,2.548,2.5508,2.5812,2.6043,2.6099,0.0,0.0,2.5601,2.604,2.6399,2.6186,2.6724,2.753,2.8748,2.8201,2.7749,2.8014,2.8059,2.8088,2.8126,2.8126,2.8126,2.255,0.0,0.0,0.0,0.0,1.975,2.0257,2.0805,2.0775,2.0687,2.0493,2.0068,0.0,0.0,0.0,0.0,0.0,0.0,2.093,2.2161,2.2782,2.3362,2.3916,2.4316,2.4526,2.4504,2.3923,2.3733,2.3651,2.2815,2.1832,2.0739,0.0,0.0,0.0,0.0,2.0697,2.0697,2.1265,2.1756,2.2106,2.2106,2.2258,2.2586,2.2961,2.301,2.2592,2.273,2.2354,2.1437,2.0563,0.0,0.0,0.0,0.0,0.0,0.0,0.0,0.0,0.0,0.0,0.0,0.0,0.0,0.0,0.0,0.0,0.0,0.0,0.0,2.3218,2.3195,2.2904,0.0,0.0,0.0,0.0,0.0,0.0,0.0,0.0,0.0,2.4773,2.4761,2.4815,0.0,0.0,2.5005,2.5005,2.5005,2.5005,2.5005,2.5061,0.0,2.5732,2.5504,2.5465,2.5877,2.5701,2.5618,2.6028,2.6142,2.6318,2.6601,2.6898,2.7302,2.7775,2.7752,2.7674,2.8018,2.8169,2.835,2.8622,2.873,2.8798,2.5218,2.3186,2.2199,2.1809,2.18,2.2065,2.2509,2.3094,2.2891,2.276,2.2634,2.2101,2.156,2.1037,2.099,0.0,0.0,0.0,2.2857,2.4159,2.4344,2.476,2.5317,2.5338,2.5338,2.5306,2.4639,2.4301,2.4301,2.382,2.3198,2.2455,0.0,0.0,2.1012,2.1472,2.1649,2.1472,2.1898,2.2291,2.2575,2.2586,2.2717,2.299,2.3298,2.3337,2.3142,2.3408,2.3207,2.2432,2.1834,2.1103,0.0,0.0,0.0,0.0,0.0,0.0,0.0,0.0,0.0,0.0,0.0,1.8697,0.0,0.0,0.0,0.0,2.1457,2.2702,2.4025,2.3966,0.0,0.0,0.0,0.0,0.0,0.0,0.0,2.5736,2.5702,2.559,2.5312,2.5012,2.4892,2.4977,2.5005,2.5005,2.5005,0.0,2.5005,2.5005,2.5005,2.5127,2.548,2.5236,2.5208,2.5792,2.5484,2.5368,2.5995,2.5924,2.5865,2.6135,2.639,2.6616,2.6745,2.6782,2.703,2.7715,2.7938,2.811,2.8424,2.8559,2.8661,2.7157,2.6636,2.488,2.4123,2.4023,2.3783,2.4023,2.456,2.4441,2.4577,2.4787,2.4478,2.45,2.4762,2.4122,0.0,2.4661,2.4661,2.5131,2.6026,2.6474,2.6639,2.6682,2.6595,2.6627,2.6551,2.5633,2.5215,2.5171,2.4694,2.4257,2.3749,2.3296,2.2826,2.2422,2.2783,2.2794,2.2342,2.2783,2.3001,2.3001,2.3001,2.3001,2.3001,2.3187,2.3409,2.3604,2.3776,2.3824,2.3607,2.2896,2.2104,2.1228,0.0,0.0,0.0,0.0,0.0,0.0,0.0,0.0,0.0,0.0,0.0,0.0,0.0,0.0,0.0,2.346,0.0,2.3885,2.4222,0.0,0.0,0.0,2.5793,2.5957,2.6357,2.6664,2.6732,0.0,0.0,2.5724,2.5094,2.4773,2.5016,2.5004,2.4977,2.4977,2.4977,2.4977,2.4948,2.4977,2.499,2.5153,2.5112,2.5276,2.567,2.5358,2.5237,2.566,2.5514,2.5229,2.5286,2.5481,2.5702,2.5702,2.5826,2.6085,2.7137,2.7363,2.7475,2.7799,2.7874,2.7978,2.8507,2.8104,2.6966,2.6083,2.5443,2.5373,2.5225,2.5088,2.5756,2.5422,2.4409,2.5005,2.5126,2.4889,2.507,2.5489,2.6125,2.6082,2.6431,2.6966,2.7097,2.7151,2.713,2.6791,2.6627,2.6519,2.5644,2.5215,2.5193,2.4705,2.4432,2.429,2.3798,2.328,2.2859,2.2947,2.2947,2.2837,2.2947,2.3001,2.3001,2.3001,2.3001,2.3001,2.3187,2.3409,2.3604,2.3776,2.3861,2.3824,2.3478,2.3153,2.2778,2.1812,0.0,0.0,0.0,0.0,0.0,0.0,0.0,0.0,0.0,2.1511,2.1817,0.0,2.2636,0.0,2.3956,2.4166,2.3772,2.428,0.0,0.0,2.5273,2.5333,2.5773,2.6419,2.6656,2.6237,2.6711,2.6718,2.5832,2.5427,2.5317,2.5509,2.5032,2.4706,2.4692,2.4706,2.4706,2.4692,2.4719,2.4924,2.5416,2.5625,2.5561,2.5263,2.51,2.5073,2.5195,2.5128,2.5076,2.5174,2.5383,2.5508,2.555,2.598,2.6204,2.6075,2.6297,2.6756,2.7323,2.7359,2.7399,2.8759,2.8464,2.7746,2.7027,2.6368,2.6459,2.6494,2.6487,2.6902,2.6587,2.5785,2.6389,2.6292,2.5728,2.6639,2.6987,2.6933,2.737,2.7708,2.7949,2.796,2.7949,2.7927,2.725,2.6933,2.69,2.595,2.5491,2.548,2.524,2.5,2.4792,2.4312,2.382,2.334,2.311,2.3099,2.3329,2.311,2.3001,2.3001,2.3001,2.3001,2.3001,2.3113,2.3298,2.3593,2.3714,2.3675,2.3471,2.3554,2.3393,2.289,2.2778,2.2997,0.0,0.0,0.0,0.0,0.0,0.0,0.0,0.0,0.0,0.0,0.0,2.3391,2.3649,2.4034,2.4239,2.4275,2.4612,2.5008,2.5416,2.5498,2.5624,2.5937,2.6532,2.6844,2.6563,2.6892,2.6852,2.6109,2.5608,2.5301,2.5253,2.474,2.4576,2.4989,2.5094,2.4972,2.4673,2.4862,2.511,2.5318,2.5349,2.5422,2.537,2.5181,2.5086,2.5331,2.5168,2.5033,2.5118,2.5244,2.5369,2.5383,2.5659,2.5854,2.5647,2.5605,2.5947,2.6549,2.6613,2.668,2.8602,2.8327,2.7804,2.7343,2.7069,2.7274,2.754,2.7746,2.7645,2.7631,2.7677,2.7924,2.7533,2.6857,2.8102,2.82,2.7468,2.8322,2.8705,2.8705,2.8716,2.8738,2.876,2.7763,2.7315,2.7272,2.6474,2.6048,2.5994,2.5994,2.5786,2.539,2.4836,2.4377,2.3956,2.3405,2.3274,2.3585,2.3209,2.3001,2.3001,2.3001,2.3001,2.3001,2.3001,2.3187,2.353,2.3604,2.3402,2.3024,2.3405,2.3256,2.2491,2.3504,2.4001,0.0,2.4609,0.0,0.0,0.0,0.0,0.0,0.0,0.0,0.0,2.4288,2.4202,2.3763,2.3878,2.422,2.4789,2.4898,2.498,2.5181,2.5664,2.599,2.5978,2.6496,2.6892,2.6994,2.6868,2.6668,2.6297,2.5711,2.5147,2.4922,2.4442,2.4487,2.5389,2.5465,2.5143,2.4635,2.5116,2.5175,2.4869,2.4761,2.4995,2.5501,2.5273,2.5166,2.5614,2.5383,2.5127,2.5169,2.5281,2.5352,2.5283,2.5339,2.5353,2.541,2.5326,2.5381,2.5757,2.5839,2.5879,2.8908,2.8747,2.7785,2.7531,2.7813,2.7813,2.7274,2.6328,2.6904,2.7201,2.739,2.7816,2.7893,2.7751,2.8002,2.8069,2.786,2.8045,2.8122,2.8132,2.8167,2.8375,2.8727,2.7763,2.7315,2.7304,2.7119,2.6846,2.6442,2.6442,2.6399,2.6332,2.548,2.5196,2.5404,0.0,0.0,0.0,2.3045,2.3001,2.3001,2.3001,2.3001,2.3001,2.3001,0.0,2.3335,2.3519,2.3548,2.3506,2.3742,0.0,0.0,0.0,0.0,0.0,0.0,0.0,0.0,0.0,0.0,0.0,2.4725,2.4294,2.3862,2.4199,2.4013,2.2981,2.3758,2.4272,2.4002,2.4343,2.4589,2.4647,2.4778,2.4802,2.4838,2.5594,2.607,2.5943,2.6599,2.6793,2.6039,2.5737,2.5653,2.5509,2.4727,2.4485,2.5255,2.4868,2.4466,2.4416,2.4655,2.4564,2.4434,2.4589,2.4729,2.484,2.4899,2.4902,2.5066,2.549,2.5724,2.5724,2.584,2.5898,2.5797,2.5869,2.5707,2.5213,2.54,2.569,2.5591,2.5355,2.5314,2.8946,0.0,2.7817,2.7552,0.0,2.7797,2.7353,2.6648,2.7506,2.7956,2.8036,2.8276,2.8265,2.7991,2.7991,2.786,2.7642,2.7631,2.7676,2.7631,2.7687,2.7938,2.8375,2.7654,2.7435,2.762,2.738,2.7195,2.6977,2.6966,2.6813,2.6584,2.5884,2.5535,2.5502,2.4344,2.3455,2.3012,2.323,2.3362,2.3324,2.3362,2.3362,2.3313,2.3207,0.0,0.0,0.0,0.0,0.0,0.0,0.0,0.0,2.4142,0.0,2.4238,2.5147,2.5579,2.5163,2.4876,2.4779,2.4982,2.4754,2.4526,2.4299,2.4334,2.409,2.3488,2.3902,2.4169,2.4117,2.435,2.4502,2.4502,2.4502,2.4454,2.4418,2.4754,2.5064,2.5158,2.5918,2.6276,2.5766,2.5797,2.5763,2.5534,2.4743,2.4303,2.4805,2.49,2.4898,2.5033,2.4931,2.4801,2.4883,2.4869,2.493,2.4975,2.4836,2.4882,2.5168,2.5551,2.5894,2.6237,2.6408,2.6369,2.5984,2.5932,2.5797,2.5223,2.5236,2.54,2.527,2.5103,2.5061,2.888,2.8545,2.791,2.7531,2.7363,2.7664,2.7666,2.7532,0.0,0.0,0.0,2.8771,2.8538,2.8122,2.8034,2.7773,2.7413,2.7446,2.7402,2.7435,2.7402,2.7653,2.8134,2.762,2.7609,2.7969,2.7719,2.7534,2.7435,2.7402,2.7206,2.6813,2.631,2.5742,2.5204,2.4377,2.3744,2.3307,2.3531,2.3738,2.3814,2.3825,2.3825,2.3825,2.3622,2.3612,2.3787,2.3746,2.3537,2.3217,2.3576,2.3537,2.2936,2.4155,2.4858,2.4823,2.5639,2.6011,2.5654,2.5447,2.5106,2.4517,2.4485,2.4538,2.4737,2.4382,2.4152,2.4055,2.3934,2.397,2.4273,2.4284,2.4273,2.4309,2.4273,2.4189,2.4055,2.4116,2.4225,2.4419,2.5075,2.5522,2.5406,2.5452,2.5511,2.5194,2.4576,2.4236,2.4492,2.4945,2.5236,2.5259,2.5115,2.5179,2.5286,2.5153,2.5139,2.5167,2.4776,2.4733,2.5282,2.5526,2.5854,2.632,2.657,2.6343,2.5966,2.5765,2.5575,2.51,2.5005,2.5005,2.5005,2.5005,2.5005,2.902,2.8566,2.8048,2.7754,2.7594,2.7855,2.8057,2.8215,2.8185,2.81,2.8167,2.8571,2.876,2.8672,2.8222,2.7958,2.7903,2.7903,2.7893,2.7893,2.7893,2.8189,2.8661,2.8156,2.7925,2.8023,2.8375,2.8342,2.7936,2.7893,2.786,2.7685,2.6922,2.6081,2.5281,2.5033,2.4749,2.429,2.3919,2.394,2.4366,2.4377,2.4388,2.4388,2.4351,2.4425,2.4626,2.4341,2.4209,2.4206,2.4513,2.445,2.3911,2.492,2.5521,2.5179,2.5631,2.5999,2.6077,2.5467,2.4745,2.4087,2.4179,2.4247,2.407,2.4125,2.3982,2.3519,2.3567,2.3604,2.3482,2.3482,2.3519,2.3519,2.3494,2.3446,2.3457,2.374,2.3861,2.3776,2.4274,2.4695,2.4706,2.4586,2.4658,2.4706,2.4381,2.408,2.4409,2.4588,2.4541,2.4439,2.4593,2.4782,2.4877,2.4658,2.4677,2.4762,2.4377,2.4223,2.4688,2.5087,2.5508,2.5645,2.5985,2.5926,2.5781,2.5366,2.5194,2.5032,2.5005,2.5005,2.5005,2.5005,2.5005,2.8804,2.8535,2.7862,2.7592,2.7631,2.8055,2.8395,2.8606,2.8481,2.8337,2.8267,2.8612,2.8803,2.876,2.8254,2.7991,2.798,2.7729,2.7654,2.7609,2.7643,2.7894,2.8309,2.81,2.8132,2.8429,2.8683,2.8694,2.844,2.8429,2.8309,2.7969,2.7293,2.6649,2.5994,2.5699,2.5459,2.5251,2.476,2.4618,2.4858,2.4909,2.4898,2.4898,2.4726,2.464,2.4736,2.4615,2.4447,2.4343,2.4655,2.4601,2.4236,2.5087,2.554,2.5389,2.5716,2.5859,2.5801,2.5305,2.4859,2.4509,2.4628,2.4635,2.4475,2.4081,2.3714,2.3335,2.3372,2.3409,2.3309,2.3298,2.3298,2.3298,2.3298,2.3261,2.3187,2.3261,2.3372,2.3324,2.3813,2.4189,2.4152,2.4189,2.4309,2.4526,2.4284,2.4164,2.4309,2.4317,2.4378,2.4478,2.4784,2.4988,2.4985,2.4847,2.4811,2.4858,2.4393,2.4381,2.4921,2.5438,2.5923,2.6559,2.6649,2.6499,2.6217,2.5812,2.541,2.5046,2.5005,2.5005,2.5005,2.5005,2.5005,2.8794,2.8545,2.7959,2.7745,2.7831,2.8113,2.8395,2.8617,2.8653,2.8571,2.8395,2.8664,2.8803,2.876,2.8364,2.82,2.8145,2.7807,2.7632,2.7643,2.7632,2.7839,2.8167,2.82,2.8407,2.8771,2.8803,2.8803,2.8803,2.8803,2.8506,2.8002,2.7609,2.725,2.678,2.6299,2.607,2.6026,2.5579,2.5338,2.5338,2.5338,2.5327,2.5357,2.5128,2.4988,2.5028,2.4918,2.4814,2.4647,2.4831,2.4814,2.4642,2.5269,2.5624,2.5617,2.5771,2.576,2.5492,2.5325,2.5127,2.4943,2.5004,2.4976,2.4859,2.4252,2.3761,2.356,2.356,2.3516,2.332,2.3335,2.3335,2.3261,2.3298,2.3224,2.3038,2.3001,2.3001,2.3075,2.3409,2.3703,2.3787,2.3861,2.397,2.4127,2.4127,2.408,2.408,2.408,2.42,2.449,2.4873,2.5016,2.5075,2.49,2.4779,2.4835,2.4347,2.4415,2.5056,2.5532,2.5972,2.6635,2.6905,2.6583,2.6209,2.5871,2.5482,2.5069,2.492,2.4878,2.4977,2.4977,2.5005,2.9363,2.8709,2.8682,2.865,2.8239,2.7867,2.7809,2.8092,2.8348,2.829,2.8092,2.856,2.8803,2.8803,2.8749,2.8716,2.8716,2.8683,2.8639,2.8628,2.8661,2.8694,2.8705,2.8727,2.876,2.8803,2.8803,2.8803,2.8803,2.8803,2.8517,2.8045,2.7947,2.7696,2.725,2.6748,2.6508,2.6508,2.6081,2.583,2.583,2.5841,2.583,2.583,2.5828,2.5889,2.5989,2.5665,2.548,2.5659,2.567,2.5572,2.544,2.5875,2.6038,2.5861,2.5874,2.5771,2.5547,2.57,2.5513,2.484,2.5029,2.5015,2.4642,2.4613,2.4493,2.4285,2.4212,2.3951,2.3412,2.3446,2.3409,2.3113,2.3187,2.3224,2.3038,2.3001,2.3001,2.3001,2.3113,2.3161,2.3335,2.3298,2.3261,2.353,2.3677,2.3703,2.3703,2.3703,2.3714,2.3824,2.4189,2.4442,2.4384,2.4319,2.435,2.4391,2.4064,2.4099,2.4405,2.4678,2.4828,2.5618,2.5602,2.5712,2.5402,2.5103,2.5008,2.4924,2.4765,2.4679,2.492,2.5005,2.5005,2.8452,2.8116,2.7695,2.7507,2.7452,2.7289,2.7336,2.7563,2.7998,2.8092,2.8092,2.856,2.8803,2.8803,2.8803,2.8803,2.8803,2.8803,2.8803,2.8803,2.8803,2.8803,2.8803,2.8803,2.8803,2.8803,2.8803,2.8803,2.8803,2.8803,2.8694,2.8484,2.8462,2.8222,2.7752,2.7227,2.6857,2.6573,2.6157,2.5895,2.5895,2.5895,2.5895,2.5895,2.5895,2.5948,2.601,2.5823,2.5716,2.5636,2.5776,2.5757,2.551,2.5851,2.599,2.5895,2.5895,2.585,2.5736,2.5839,2.5773,2.5428,2.5522,2.5513,2.5349,2.5387,2.5301,2.5014,2.4586,2.4066,2.3583,2.3567,2.3482,2.3224,2.3261,2.3235,2.3038,2.3012,2.3001,2.3001,2.3001,2.3049,2.3113,2.315,2.3224,2.3335,2.3494,2.3578,2.3593,2.3593,2.3556,2.3482,2.3629,2.3776,2.3801,2.3859,2.3939,2.4024,2.3943,2.3945,2.4385,2.4662,2.4881,2.5117,2.5282,2.5189,2.4855,2.4651,2.4529,2.4546,2.4793,2.485,2.4977,2.5005,2.5005,2.8025,2.7693,2.6868,2.6678,2.6955,2.6812,2.6955,2.7241,2.7678,2.7857,2.8034,2.8477,2.871,2.8803,2.8803,2.8803,2.8803,2.8803,2.8803,2.8803,2.8803,2.8803,2.8803,2.8606,2.8571,2.856,2.856,2.8653,2.8803,2.8803,2.8803,2.8803,2.8803,2.8628,2.8233,2.7752,2.7304,2.6977,2.6497,2.6289,2.6299,2.6289,2.6168,2.5961,2.6157,2.6234,2.6114,2.6223,2.6112,2.5818,2.6001,2.5968,2.5642,2.5913,2.6103,2.6103,2.6092,2.6037,2.5917,2.5895,2.5895,2.5895,2.5895,2.5895,2.5895,2.5895,2.5801,2.5459,2.4965,2.4464,2.3973,2.3959,2.3839,2.3504,2.3548,2.3577,2.3279,2.3296,2.3449,2.3416,2.3504,2.3405,2.3454,2.3563,2.3627,2.3511,2.3519,2.3568,2.3479,2.3409,2.3372,2.3224,2.3213,2.3298,2.342,2.3497,2.3567,2.3703,2.3745,2.4024,2.4526,2.4707,2.4945,2.5022,2.5142,2.5022,2.4593,2.435,2.4131,2.4144,2.4363,2.4708,2.465,2.475,2.4778,2.8579,2.7673,2.6868,2.6736,2.7146,2.6699,2.6784,2.7167,2.7299,2.7573,2.7951,2.829,2.8571,2.8746,2.8757,2.8803,2.8803,2.8803,2.8803,2.8803,2.8803,2.8803,2.8757,2.8279,2.8092,2.8196,2.8239,2.8405,2.8814,2.8803,2.8803,2.8803,2.8803,2.8792,2.8672,2.82,2.7936,2.7783,2.7347,2.7206,2.7217,2.7228,2.6813,2.6147,2.6758,2.6988,2.6649,2.702,2.7009,2.6573,2.653,2.6376,2.5983,2.6343,2.6551,2.6594,2.6562,2.6398,2.6005,2.595,2.5917,2.5895,2.5895,2.5895,2.5895,2.5895,2.5793,2.5555,2.5455,2.5167,2.4747,2.4704,2.4498,2.3881,2.4266,2.4227,2.3744,2.405,2.4377,2.4355,2.429,2.4246,2.4334,2.4421,2.4154,2.3859,2.3689,2.3618,2.3317,2.3163,2.313,2.313,2.3071,2.3038,2.3038,2.3187,2.3298,2.3446,2.3666,2.3897,2.4127,2.4345,2.461,2.4849,2.4968,2.4795,2.4384,2.409,2.3885,2.3865,2.3946,2.4147,2.4234,2.4189,2.4276,2.7702,2.6902,2.6577,2.6388,2.6237,2.6369,2.6388,2.6314,2.664,2.687,2.7156,2.7809,2.8186,2.8326,2.8664,2.8803,2.8803,2.8803,2.8803,2.8803,2.8803,2.8803,2.8836,2.8864,2.8795,2.8589,2.8827,2.8911,2.8779,2.8803,2.8803,2.8803,2.8803,2.8803,2.8716,2.8276,2.7991,2.7947,2.7555,2.7315,2.737,2.7576,2.7457,2.6867,2.713,2.7239,2.7075,2.7228,2.7228,2.7075,2.702,2.6988,2.6846,2.6966,2.7064,2.7064,2.7075,2.6856,2.6399,2.6322,2.6223,2.5939,2.5895,2.5895,2.5895,2.5895,2.585,2.5749,2.5757,2.5648,2.5458,2.5174,2.4826,2.447,2.4536,2.4596,2.4329,2.4388,2.4526,2.4526,2.4526,2.4526,2.4541,2.4526,2.441,2.4257,2.4213,2.4115,2.3962,2.37,2.3471,2.3378,2.3209,2.3001,2.3001,2.3038,2.315,2.3261,2.3446,2.3593,2.3751,2.3861,2.4116,2.4189,2.4419,2.4354,2.3835,2.3556,2.3413,2.3381,2.3479,2.3765,2.3783,2.3955,2.4106,2.7334,2.6816,2.665,2.6426,2.6182,2.6318,2.6348,2.6241,2.6326,2.6528,2.6909,2.7409,2.7668,2.7799,2.8139,2.8279,2.8326,2.842,2.842,2.8279,2.8279,2.8279,2.8355,2.8774,2.8657,2.8151,2.8364,2.8401,2.8312,2.8466,2.8571,2.8524,2.871,2.8803,2.8738,2.8429,2.8265,2.82,2.7938,2.7785,2.7829,2.8091,2.8123,2.7839,2.7774,2.7687,2.7566,2.7687,2.7697,2.7577,2.7555,2.7479,2.7326,2.7315,2.7315,2.7315,2.7315,2.7108,2.6639,2.6453,2.6245,2.595,2.5895,2.5895,2.5895,2.5895,2.5895,2.5895,2.5895,2.5895,2.5817,2.5529,2.5156,2.4966,2.4992,2.4985,2.4778,2.4869,2.4967,2.5,2.5011,2.4978,2.4945,2.4956,2.4891,2.4749,2.4716,2.4712,2.4476,2.4235,2.3973,2.3962,2.3744,2.3613,2.3547,2.3542,2.3213,2.326,2.3309,2.3372,2.3446,2.3519,2.3556,2.3629,2.3613,2.3555,2.3373,2.3092,2.2956,2.2931,2.3189,2.357,2.3677,2.3863,2.4004,2.7708,2.7601,2.7197,2.6963,2.6816,2.6562,2.6772,2.7002,2.6418,2.6483,2.7055,2.7081,2.7051,2.7194,2.7388,2.732,2.7336,2.7757,2.7747,2.7384,2.7326,2.7326,2.7357,2.791,2.779,2.6965,2.6671,2.6911,2.7398,2.7783,2.7998,2.8092,2.8466,2.8664,2.8757,2.8656,2.8702,2.8577,2.8511,2.8601,2.8792,2.8691,2.8669,2.8705,2.8694,2.8451,2.8023,2.844,2.844,2.8056,2.8002,2.7818,2.7501,2.7446,2.7381,2.7446,2.7392,2.714,2.6682,2.6365,2.6212,2.5994,2.5939,2.595,2.5906,2.5895,2.5895,2.5895,2.5895,2.5895,2.5895,2.585,2.5653,2.5347,2.5532,2.5587,2.5401,2.559,2.5874,2.5797,2.5753,2.5863,2.5863,2.5742,2.5568,2.5273,2.5215,2.5065,2.4781,2.4596,2.4497,2.4486,2.4312,2.4126,2.4115,2.4061,2.3591,2.3257,2.3264,2.3298,2.3298,2.3335,2.3409,2.3446,2.3519,2.3475,2.3391,2.312,2.3159,2.3188,2.3385,2.3547,2.3766,2.3935,2.388,2.7728,2.7708,2.7519,2.7109,2.665,2.6748,2.6642,2.6231,2.5918,2.5995,2.6279,2.6508,2.6688,2.6855,2.7359,2.729,2.6767,2.7156,2.73,2.7177,2.7194,2.7156,2.7287,2.7728,2.7989,2.7803,2.729,2.7215,2.7534,2.7529,2.7431,2.7563,2.7998,2.8045,2.7799,2.8186,2.829,2.7799,2.7857,2.8055,2.8233,2.8279,2.842,2.8757,2.8803,2.8727,2.8606,2.8727,2.8716,2.8563,2.8528,2.8462,2.8366,2.8355,2.8344,2.8355,2.8298,2.8091,2.762,2.7369,2.6955,2.6519,2.6398,2.6223,2.595,2.5895,2.5895,2.5895,2.5895,2.5895,2.5895,2.5895,2.5841,2.5699,2.5808,2.5852,2.5688,2.5797,2.5884,2.5895,2.5895,2.5895,2.5895,2.5895,2.583,2.5699,2.5633,2.5535,2.5437,2.512,2.5007,2.4996,2.48,2.4618,2.4585,2.4508,2.4192,2.3722,2.3514,2.3326,2.3308,2.3187,2.3224,2.3298,2.3372,2.3399,2.3319,2.3293,2.3363,2.3425,2.355,2.3737,2.3985,2.4151,2.4262,2.79,2.79,2.7953,2.7598,2.708,2.707,2.6816,2.6387,2.5879,2.583,2.5986,2.6141,2.6217,2.6355,2.7008,2.6899,2.6297,2.6616,2.6762,2.6721,2.6833,2.6921,2.6952,2.7205,2.7627,2.7828,2.711,2.6772,2.7063,2.7013,2.6907,2.7061,2.7468,2.7563,2.7231,2.7657,2.7715,2.7526,2.7668,2.7914,2.8222,2.8279,2.8466,2.8757,2.8803,2.8803,2.8803,2.8803,2.8803,2.8771,2.865,2.8484,2.8495,2.8462,2.8495,2.8495,2.8473,2.832,2.8023,2.774,2.7457,2.6791,2.6627,2.6409,2.6016,2.5895,2.5895,2.5895,2.5895,2.5972,2.6136,2.6179,2.6168,2.6168,2.5994,2.5917,2.5895,2.5895,2.5895,2.5895,2.5895,2.5895,2.5895,2.5895,2.5895,2.5895,2.5895,2.5895,2.5841,2.5664,2.5543,2.5445,2.5347,2.5175,2.5054,2.4923,2.476,2.4334,2.3897,2.3629,2.3421,2.3185,2.3113,2.3224,2.3298,2.3508,2.3474,2.3512,2.3567,2.3665,2.3817,2.4162,2.4504,2.4855,2.4953,2.8291,2.8301,2.8291,2.8213,2.8027,2.7393,2.7178,2.7256,2.6328,2.5986,2.6162,2.5938,2.5781,2.5879,2.6438,2.6418,2.5967,2.6407,2.6398,2.6163,2.63,2.6566,2.6625,2.6674,2.6953,2.7072,2.633,2.5889,2.6104,2.6315,2.6448,2.6496,2.6907,2.7136,2.7051,2.7136,2.7468,2.7657,2.7846,2.8186,2.8606,2.8664,2.871,2.8803,2.8803,2.8803,2.8803,2.8803,2.8803,2.8749,2.8396,2.8233,2.8089,2.8045,2.8178,2.8211,2.8067,2.8122,2.8014,2.7861,2.7337,2.678,2.6682,2.6431,2.6016,2.5895,2.5895,2.5906,2.5972,2.6115,2.6453,2.6649,2.6638,2.6519,2.6168,2.5928,2.5895,2.5895,2.5939,2.5961,2.5939,2.5928,2.5961,2.5972,2.5895,2.5895,2.5895,2.5895,2.5895,2.5819,2.5874,2.5797,2.5655,2.5611,2.5448,2.5371,2.5218,2.5022,2.453,2.4115,2.3722,2.3405,2.3045,2.3183,2.3261,2.3471,2.3596,2.359,2.3822,2.4117,2.4365,2.4673,2.4988,2.5314,2.5373,2.8301,2.8301,2.8301,2.8115,2.7885,2.7559,2.7229,2.6728,2.6396,2.6094,2.5888,2.5752,2.5918,2.625,2.6641,2.6777,2.6748,2.709,2.6894,2.6367,2.665,2.6836,2.6855,2.6846,2.6887,2.696,2.6476,2.6221,2.6182,2.6016,2.5936,2.5927,2.6448,2.6486,2.6255,2.7003,2.7204,2.7013,2.7489,2.7857,2.8139,2.8222,2.842,2.8757,2.8803,2.8803,2.8803,2.8803,2.8803,2.8803,2.8694,2.8571,2.8538,2.8538,2.8517,2.8528,2.8538,2.856,2.8528,2.8464,2.8016,2.7239,2.7097,2.678,2.5972,2.5906,2.5906,2.5961,2.619,2.6453,2.6628,2.69,2.6966,2.6627,2.6278,2.5972,2.5939,2.5906,2.6026,2.6321,2.6136,2.6125,2.6245,2.6114,2.5917,2.5895,2.5895,2.5895,2.5895,2.5895,2.5895,2.5895,2.583,2.5863,2.583,2.5764,2.5688,2.5622,2.5229,2.4767,2.4279,2.3831,2.3416,2.3196,2.3172,2.3324,2.3372,2.3375,2.3886,2.4334,2.4481,2.4613,2.5211,2.5605,2.5608,2.8301,2.8301,2.8301,2.8154,2.791,2.7796,2.7275,2.6709,2.6445,2.6143,2.5752,2.5684,2.5986,2.6416,2.6826,2.7002,2.707,2.7471,2.7275,2.6826,2.709,2.7168,2.71,2.7168,2.7207,2.6973,2.6592,2.6396,2.6299,2.5947,2.5703,2.5732,2.6024,2.5975,2.5839,2.6352,2.6736,2.6592,2.6928,2.7299,2.761,2.7893,2.8128,2.8466,2.8653,2.8803,2.8803,2.8803,2.8803,2.8803,2.8803,2.8803,2.8803,2.8803,2.8803,2.8803,2.8803,2.8803,2.8803,2.8803,2.8407,2.7752,2.7468,2.7064,2.6594,2.6354,2.6234,2.6529,2.6769,2.6944,2.7184,2.7424,2.7424,2.7227,2.6791,2.642,2.6245,2.6409,2.6594,2.6725,2.6551,2.6289,2.6562,2.6201,2.5972,2.5895,2.5895,2.5895,2.5895,2.5895,2.5895,2.5895,2.5895,2.5895,2.5895,2.5852,2.583,2.5797,2.5688,2.527,2.4738,2.4235,2.3826,2.347,2.324,2.3172,2.3327,2.3475,2.3751,2.4127,2.4273,2.455,2.5111,2.5394,2.5432,2.8301,2.8301,2.8301,2.8301,2.8223,2.7891,2.7461,2.6982,2.6641,2.6201,2.5781,2.5732,2.6113,2.6475,2.6973,2.7129,2.7207,2.7637,2.7461,2.7295,2.7393,2.7451,2.7226,2.7568,2.749,2.7139,2.666,2.6465,2.6309,2.5957,2.5703,2.5732,2.5732,2.5732,2.5732,2.5878,2.6062,2.6448,2.6688,2.6965,2.7326,2.7752,2.8034,2.8128,2.856,2.8803,2.8757,2.8699,2.8664,2.8699,2.8746,2.8803,2.8803,2.8803,2.8803,2.8803,2.8803,2.8803,2.8803,2.8792,2.8549,2.8036,2.7565,2.7348,2.7173,2.6878,2.6813,2.7097,2.7326,2.7555,2.796,2.8056,2.798,2.7838,2.7577,2.7282,2.6922,2.7097,2.7326,2.7315,2.6933,2.6715,2.6595,2.6301,2.5952,2.6147,2.6059,2.5895,2.5895,2.5895,2.5895,2.5895,2.5895,2.5895,2.5895,2.5895,2.5884,2.5874,2.5863,2.5557,2.5065,2.4585,2.4215,2.3914,2.3777,2.3611,2.3519,2.3698,2.3801,2.3751,2.3861,2.4238,2.4695,2.4862,2.4933,2.8301,2.8301,2.8301,2.8301,2.8281,2.8184,2.7725,2.7031,2.6934,2.6465,2.5898,2.6094,2.6484,2.6885,2.7295,2.7695,2.792,2.8057,2.793,2.7588,2.764,2.7689,2.7607,2.7949,2.7891,2.751,2.709,2.6719,2.6387,2.6025,2.5693,2.5713,2.5703,2.5693,2.5762,2.6043,2.6352,2.6544,2.6822,2.6955,2.7146,2.761,2.794,2.8045,2.8466,2.8746,2.871,2.8373,2.8186,2.8279,2.8513,2.8757,2.8757,2.8803,2.8803,2.8803,2.8803,2.8803,2.8803,2.8781,2.8606,2.81,2.7882,2.7674,2.7337,2.7261,2.7217,2.7392,2.7609,2.8034,2.8462,2.8628,2.8418,2.82,2.8244,2.82,2.7762,2.7456,2.7566,2.7608,2.7334,2.7105,2.7521,2.6661,2.639,2.642,2.6223,2.5961,2.5928,2.595,2.5895,2.5895,2.5895,2.5895,2.5895,2.5895,2.5895,2.5895,2.5895,2.5874,2.5393,2.5087,2.4745,2.4533,2.4329,2.415,2.389,2.3671,2.3736,2.3579,2.3501,2.3833,2.4173,2.4296,2.4575,2.8301,2.8301,2.8301,2.8301,2.8301,2.8281,2.791,2.7402,2.7324,2.6836,2.626,2.6494,2.6816,2.7041,2.7471,2.7933,2.8213,2.8291,2.8184,2.7988,2.7969,2.7969,2.7978,2.8144,2.8144,2.79,2.7529,2.71,2.667,2.6279,2.6064,2.6016,2.585,2.5889,2.5957,2.6074,2.6072,2.612,2.6352,2.6486,2.6582,2.7013,2.762,2.7951,2.8279,2.8513,2.871,2.8571,2.842,2.8373,2.842,2.842,2.8513,2.8653,2.8803,2.8803,2.8803,2.8803,2.8803,2.8792,2.8694,2.8386,2.8143,2.8034,2.7905,2.7807,2.7796,2.7971,2.8233,2.8506,2.8771,2.8803,2.8628,2.8506,2.8639,2.8661,2.8386,2.8134,2.8023,2.8085,2.7789,2.7636,2.7462,2.6962,2.6889,2.6878,2.654,2.6278,2.6179,2.6168,2.595,2.5895,2.5895,2.5895,2.5895,2.5895,2.5895,2.5895,2.5895,2.5895,2.571,2.5513,2.5327,2.5095,2.4778,2.446,2.4171,2.3962,2.3853,2.3903,2.3901,2.3749,2.3661,2.386,2.4233,2.8301,2.8301,2.8301,2.8301,2.8301,2.8291,2.8047,2.7748,2.7728,2.7239,2.668,2.6934,2.7139,2.7236,2.7598,2.7978,2.8203,2.8301,2.8242,2.8232,2.8223,2.8223,2.8242,2.8262,2.8271,2.8242,2.7875,2.7412,2.708,2.6719,2.6494,2.6416,2.6055,2.6055,2.6211,2.5967,2.5781,2.583,2.583,2.583,2.5927,2.6362,2.7013,2.7668,2.7846,2.8045,2.8279,2.8373,2.8466,2.8513,2.8186,2.8034,2.8081,2.8269,2.8617,2.8617,2.8617,2.8664,2.8803,2.8803,2.8792,2.8781,2.8418,2.8353,2.8506,2.8375,2.8353,2.8563,2.8749,2.8749,2.8803,2.8803,2.8803,2.8781,2.8792,2.8803,2.8803,2.8803,2.8552,2.8369,2.8074,2.7888,2.7731,2.7396,2.7389,2.7326,2.6933,2.666,2.653,2.6388,2.6256,2.6081,2.6103,2.5939,2.5895,2.5961,2.595,2.595,2.5939,2.5917,2.5917,2.5775,2.5579,2.5423,2.5128,2.4825,2.4607,2.4432,2.4366,2.4355,2.4056,2.3699,2.3577,2.3511,2.3846,2.8301,2.8301,2.8301,2.8301,2.8301,2.8301,2.8066,2.7767,2.7757,2.7393,2.7021,2.7363,2.7601,2.7637,2.7998,2.8232,2.8281,2.8301,2.8301,2.8301,2.8301,2.8301,2.8301,2.8301,2.8301,2.8184,2.791,2.7646,2.7451,2.7148,2.6934,2.6826,2.6484,2.6377,2.6328,2.5986,2.5752,2.5752,2.5713,2.5684,2.583,2.6159,2.6678,2.7289,2.7326,2.7421,2.7468,2.7526,2.7478,2.7526,2.7799,2.794,2.7893,2.7704,2.7799,2.8139,2.8233,2.8373,2.871,2.8803,2.8803,2.8781,2.8683,2.8661,2.8749,2.8727,2.8683,2.8727,2.8803,2.8803,2.8803,2.8803,2.8803,2.8803,2.8803,2.8803,2.871,2.8571,2.8395,2.8175,2.8043,2.8004,2.7803,2.7715,2.769,2.7597,2.7282,2.7129,2.7097,2.69,2.6715,2.6529,2.6376,2.6125,2.5895,2.5983,2.6026,2.6037,2.6026,2.5972,2.595,2.5917,2.5764,2.559,2.5565,2.5404,2.5185,2.4923,2.4814,2.476,2.4235,2.3656,2.376,2.387,2.3495,2.8301,2.8301,2.8301,2.8301,2.8301,2.8291,2.8184,2.8008,2.7978,2.7744,2.7578,2.7773,2.7904,2.7822,2.8105,2.8291,2.8301,2.8301,2.8301,2.8301,2.8301,2.8301,2.8301,2.8301,2.8301,2.8242,2.8076,2.7842,2.7666,2.7471,2.7353,2.7256,2.6924,2.6826,2.6846,2.6435,2.6123,2.6035,2.581,2.5684,2.5684,2.5965,2.6352,2.6678,2.686,2.6955,2.7183,2.7183,2.7183,2.7278,2.7468,2.7573,2.7515,2.7468,2.7563,2.8139,2.8139,2.8233,2.8699,2.8803,2.8803,2.8803,2.8803,2.8803,2.8803,2.8792,2.8803,2.8803,2.8803,2.8803,2.8803,2.8803,2.8803,2.8803,2.8803,2.8664,2.843,2.8149,2.7961,2.782,2.7861,2.7829,2.7887,2.7825,2.7953,2.7809,2.7619,2.7609,2.762,2.7358,2.7075,2.6966,2.6802,2.6704,2.6452,2.6409,2.6354,2.6299,2.6245,2.619,2.6037,2.6016,2.595,2.5819,2.5808,2.5753,2.56,2.5284,2.5229,2.5109,2.4607,2.4235,2.429,2.4209,2.3837,2.8301,2.8301,2.8301,2.8301,2.8301,2.8301,2.8291,2.8301,2.8281,2.8096,2.7924,2.8158,2.8096,2.7959,2.8105,2.8301,2.8301,2.8301,2.8301,2.8301,2.8301,2.8301,2.8301,2.8301,2.8301,2.8291,2.8262,2.8115,2.79,2.7803,2.7793,2.7676,2.7363,2.7217,2.7256,2.666,2.6465,2.626,2.5918,2.5693,2.5684,2.5732,2.5878,2.6255,2.6352,2.6496,2.6716,2.6955,2.7003,2.7051,2.7136,2.7231,2.7183,2.7183,2.7657,2.8373,2.8186,2.8326,2.8617,2.871,2.8664,2.8664,2.871,2.871,2.8768,2.8768,2.8803,2.8803,2.8803,2.8803,2.8803,2.8803,2.8803,2.8757,2.8653,2.8466,2.8092,2.7762,2.7384,2.7384,2.7573,2.761,2.7552,2.7717,2.7771,2.8042,2.782,2.7967,2.7991,2.773,2.749,2.737,2.7282,2.7304,2.7173,2.7031,2.6922,2.678,2.6704,2.6627,2.6365,2.6136,2.607,2.6037,2.5895,2.583,2.5721,2.5677,2.5579,2.536,2.4978,2.477,2.4738,2.4541,2.4198,2.8301,2.8301,2.8301,2.8301,2.8301,2.8301,2.8301,2.8301,2.8301,2.8281,2.8174,2.8262,2.8252,2.8213,2.8232,2.8301,2.8301,2.8301,2.8301,2.8301,2.8301,2.8301,2.8301,2.8301,2.8301,2.8301,2.8301,2.8281,2.8164,2.8154,2.8184,2.8086,2.7783,2.749,2.7305,2.6865,2.6396,2.6328,2.5967,2.5693,2.5713,2.5703,2.5742,2.583,2.583,2.5878,2.613,2.644,2.6643,2.664,2.6976,2.7156,2.7183,2.7183,2.7526,2.7904,2.8092,2.8233,2.8617,2.8571,2.8477,2.8488,2.8441,2.843,2.843,2.8524,2.8606,2.8803,2.8757,2.8803,2.8757,2.8757,2.8803,2.856,2.8315,2.8139,2.782,2.7347,2.6965,2.6774,2.6907,2.7098,2.7194,2.7394,2.759,2.7903,2.8128,2.8267,2.834,2.8102,2.7916,2.7807,2.7807,2.7829,2.7818,2.7687,2.7479,2.7249,2.7151,2.7075,2.6769,2.6496,2.631,2.6245,2.6125,2.6037,2.5983,2.5939,2.5884,2.5666,2.5338,2.5185,2.515,2.4898,2.4679,2.8301,2.8301,2.8301,2.8301,2.8301,2.8301,2.8301,2.8301,2.8301,2.8301,2.8301,2.8301,2.8301,2.8301,2.8301,2.8301,2.8301,2.8301,2.8301,2.8301,2.8301,2.8301,2.8301,2.8301,2.8301,2.8301,2.8301,2.8291,2.8301,2.8301,2.8301,2.8262,2.8125,2.7969,2.7588,2.7295,2.7002,2.665,2.6113,2.5849,2.5977,2.583,2.5684,2.5684,2.5684,2.5684,2.583,2.6153,2.627,2.6249,2.6677,2.7008,2.6931,2.7051,2.7326,2.7515,2.7846,2.8139,2.8488,2.8441,2.8348,2.8207,2.816,2.8092,2.8008,2.7983,2.8124,2.8326,2.8326,2.8477,2.8617,2.8513,2.8373,2.8175,2.7846,2.7526,2.7299,2.6965,2.663,2.64,2.6304,2.6486,2.6774,2.7127,2.7394,2.7645,2.8057,2.8383,2.8533,2.8538,2.8431,2.8344,2.8377,2.8386,2.841,2.8333,2.8047,2.785,2.7696,2.7511,2.7195,2.6933,2.678,2.6769,2.6824,2.666,2.6333,2.6114,2.5972,2.5852,2.5721,2.559,2.5511,2.5565,2.5357,2.8301,2.8301,2.8301,2.8301,2.8301,2.8301,2.8301,2.8301,2.8301,2.8301,2.8301,2.8301,2.8301,2.8301,2.8301,2.8301,2.8301,2.8301,2.8301,2.8301,2.8301,2.8301,2.8301,2.8301,2.8301,2.8301,2.8301,2.8301,2.8301,2.8301,2.8301,2.8301,2.8262,2.8154,2.8037,2.7734,2.7373,2.6934,2.6426,2.625,2.626,2.5947,2.5732,2.5684,2.5684,2.5684,2.5752,2.6133,2.6152,2.6173,2.6507,2.6763,2.6612,2.6818,2.6965,2.7146,2.7431,2.7752,2.8008,2.8102,2.8149,2.7993,2.7894,2.7877,2.7965,2.762,2.7575,2.8063,2.8031,2.8205,2.8218,2.7987,2.7893,2.761,2.7336,2.6907,2.6582,2.64,2.6255,2.611,2.5965,2.6014,2.6352,2.6822,2.7183,2.7421,2.7867,2.8348,2.8617,2.8792,2.8716,2.8585,2.8617,2.8672,2.8672,2.8639,2.844,2.8353,2.8233,2.798,2.7643,2.7457,2.7337,2.7381,2.7413,2.7151,2.6759,2.6366,2.6037,2.5917,2.5819,2.5852,2.5841,2.5895,2.5977,2.8301,2.8301,2.8291,2.8281,2.8301,2.8301,2.8301,2.8301,2.8301,2.8301,2.8301,2.8301,2.8301,2.8301,2.8301,2.8301,2.8301,2.8301,2.8301,2.8301,2.8301,2.8301,2.8301,2.8301,2.8301,2.8301,2.8301,2.8301,2.8301,2.8301,2.8301,2.8301,2.8301,2.8047,2.7881,2.7806,2.7549,2.7207,2.6865,2.6621,2.6406,2.6055,2.5742,2.5684,2.5684,2.5693,2.5713,2.6152,2.6299,2.6201,2.6476,2.6536,2.6507,2.6563,2.6675,2.6752,2.7023,2.7204,2.7289,2.782,2.8008,2.7794,2.7683,2.7829,2.7904,2.827,2.8216,2.7862,2.7786,2.7668,2.7519,2.7278,2.7278,2.7146,2.687,2.6582,2.6255,2.6014,2.5878,2.5732,2.5732,2.582,2.5868,2.64,2.6955,2.7194,2.7904,2.843,2.8617,2.8803,2.8803,2.8749,2.876,2.8781,2.8781,2.8716,2.865,2.8582,2.8528,2.8331,2.808,2.7949,2.7883,2.7741,2.7697,2.7457,2.7216,2.6944,2.6638,2.6125,2.5928,2.6016,2.5961,2.5895,2.6063,2.791,2.791,2.79,2.8057,2.8301,2.8301,2.8301,2.8301,2.8301,2.8301,2.8301,2.8301,2.8301,2.8301,2.8301,2.8301,2.8301,2.8301,2.8301,2.8301,2.8301,2.8301,2.8301,2.8301,2.8301,2.8301,2.8301,2.8301,2.8301,2.8301,2.8301,2.8301,2.8301,2.8223,2.8037,2.7832,2.7715,2.7646,2.7295,2.6904,2.6768,2.6357,2.6006,2.5693,2.5684,2.5684,2.5752,2.6172,2.6172,2.6201,2.6504,2.6533,2.6445,2.6458,2.6458,2.6447,2.6716,2.6729,2.6794,2.7367,2.7726,2.7656,2.7667,2.7852,2.7743,2.7422,2.7592,2.748,2.7405,2.725,2.762,2.715,2.6726,2.663,2.6468,2.6208,2.6005,2.582,2.5752,2.5703,2.5693,2.5732,2.583,2.5975,2.6534,2.704,2.7752,2.8373,2.8513,2.871,2.8664,2.8757,2.8757,2.8803,2.8803,2.8803,2.8803,2.8803,2.8803,2.8628,2.8396,2.8495,2.8442,2.8256,2.8069,2.7981,2.7839,2.7609,2.7184,2.6605,2.631,2.6245,2.6125,2.595,2.6093,2.7471,2.7523,2.7523,2.7715,2.8096,2.8242,2.8301,2.8301,2.8301,2.8301,2.8301,2.8301,2.8301,2.8301,2.8301,2.8301,2.8301,2.8301,2.8301,2.8301,2.8301,2.8301,2.8301,2.8301,2.8301,2.8301,2.8301,2.8301,2.8301,2.8301,2.8301,2.8301,2.8291,2.8271,2.8203,2.8057,2.8008,2.8027,2.7656,2.7109,2.7002,2.6582,2.6152,2.5762,2.5684,2.5684,2.5801,2.6123,2.624,2.626,2.6416,2.667,2.6592,2.6475,2.6396,2.6428,2.6428,2.6455,2.6619,2.6883,2.7369,2.7644,2.758,2.7603,2.741,2.7076,2.7615,2.764,2.7282,2.7111,2.7679,2.7041,2.6644,2.6566,2.6379,2.6183,2.5996,2.5859,2.581,2.5732,2.5771,2.5928,2.5975,2.612,2.6526,2.689,2.7061,2.762,2.794,2.8186,2.842,2.8513,2.8653,2.8757,2.8803,2.8803,2.8803,2.8803,2.8803,2.8803,2.8727,2.8803,2.8803,2.8606,2.8508,2.8517,2.8396,2.8178,2.7643,2.6955,2.6704,2.6474,2.631,2.6136,2.6065,2.7021,2.7031,2.7041,2.7295,2.7715,2.8115,2.8271,2.8291,2.8301,2.8301,2.8301,2.8301,2.8301,2.8301,2.8301,2.8301,2.8301,2.8301,2.8301,2.8301,2.8301,2.8301,2.8301,2.8301,2.8301,2.8301,2.8301,2.8301,2.8301,2.8301,2.8301,2.8301,2.8301,2.8291,2.8281,2.8281,2.8281,2.8223,2.7832,2.748,2.7012,2.6641,2.6269,2.5791,2.5684,2.5684,2.5781,2.6055,2.6172,2.6211,2.6338,2.6611,2.6855,2.6602,2.6514,2.6564,2.6446,2.6427,2.6418,2.6495,2.7037,2.7801,2.7814,2.7724,2.8265,2.8235,2.7943,2.7868,2.757,2.7361,2.7231,2.7006,2.6791,2.6584,2.6406,2.6338,2.6221,2.6035,2.6006,2.5928,2.6103,2.626,2.6309,2.6372,2.6701,2.6787,2.6613,2.688,2.7536,2.7987,2.8373,2.8513,2.8653,2.8757,2.8803,2.8803,2.8803,2.8803,2.8803,2.8803,2.8803,2.8803,2.8803,2.8803,2.8771,2.8694,2.8738,2.8749,2.8145,2.7599,2.6944,2.6628,2.6453,2.6409,2.6449,2.6592,2.6631,2.6894,2.71,2.7285,2.7705,2.808,2.8262,2.8301,2.8301,2.8301,2.8301,2.8301,2.8301,2.8301,2.8301,2.8301,2.8301,2.8301,2.8301,2.8301,2.8301,2.8301,2.8301,2.8301,2.8301,2.8301,2.8301,2.8301,2.8301,2.8301,2.8301,2.8301,2.8301,2.8291,2.8301,2.8291,2.8271,2.8076,2.7764,2.71,2.6836,2.6484,2.5791,2.5752,2.5801,2.5781,2.6065,2.6104,2.6202,2.6379,2.6712,2.7014,2.6918,2.6984,2.6994,2.6855,2.6387,2.6377,2.6507,2.6923,2.7642,2.8153,2.8058,2.814,2.7996,2.7953,2.7973,2.7764,2.7545,2.7476,2.7304,2.7128,2.6906,2.6797,2.6787,2.668,2.6426,2.6269,2.6143,2.6201,2.6232,2.6249,2.6984,2.7357,2.7614,2.7593,2.7444,2.7905,2.8312,2.8653,2.8653,2.8746,2.8803,2.8803,2.8803,2.8803,2.8803,2.8803,2.8803,2.8803,2.8803,2.8803,2.8803,2.8803,2.8803,2.8803,2.8792,2.8694,2.8267,2.7621,2.7173,2.7031,2.7009,2.7042,2.6162,2.6191,2.6455,2.6758,2.708,2.7637,2.811,2.8271,2.8301,2.8301,2.8301,2.8301,2.8301,2.8301,2.8301,2.8301,2.8301,2.8301,2.8301,2.8301,2.8301,2.8301,2.8301,2.8301,2.8301,2.8301,2.8301,2.8301,2.8301,2.8301,2.8301,2.8301,2.8301,2.8301,2.8301,2.8301,2.8291,2.8281,2.8174,2.7939,2.7461,2.7158,2.6904,2.6435,2.6211,2.6202,2.6202,2.6192,2.6251,2.6438,2.6754,2.7082,2.7378,2.7728,2.7734,2.757,2.7246,2.6855,2.6926,2.7151,2.7552,2.7934,2.8446,2.84,2.8048,2.8084,2.8129,2.8061,2.7865,2.7842,2.7829,2.769,2.757,2.7344,2.7236,2.7226,2.7021,2.6768,2.6681,2.6534,2.6516,2.6448,2.6553,2.7394,2.8113,2.8439,2.8662,2.8487,2.829,2.8513,2.8696,2.8653,2.8757,2.8803,2.8803,2.8803,2.8803,2.8803,2.8803,2.8803,2.8803,2.8803,2.8803,2.8803,2.8803,2.8803,2.8803,2.8771,2.8727,2.8617,2.8265,2.7894,2.7632,2.7512,2.7468,2.5684,2.5693,2.5703,2.6269,2.7041,2.7773,2.8193,2.8291,2.8301,2.8301,2.8301,2.8301,2.8301,2.8301,2.8301,2.8301,2.8301,2.8301,2.8301,2.8301,2.8301,2.8301,2.8301,2.8301,2.8301,2.8301,2.8301,2.8301,2.8301,2.8301,2.8301,2.8301,2.8301,2.8301,2.8301,2.8301,2.8301,2.8301,2.8262,2.7998,2.7617,2.7611,2.7256,2.6914,2.6768,2.6822,2.6834,2.6874,2.718,2.7447,2.7783,2.8055,2.8452,2.8952,2.8468,2.8001,2.765,2.7601,2.7591,2.7764,2.8041,2.8127,2.8006,2.8166,2.8318,2.828,2.8276,2.8305,2.8225,2.8251,2.8227,2.8182,2.8084,2.7914,2.7705,2.7549,2.7324,2.7209,2.7163,2.7106,2.722,2.7272,2.7416,2.8064,2.9027,2.9222,2.94,2.9246,2.8957,2.8496,2.8661,2.8477,2.8571,2.8803,2.8803,2.8803,2.8803,2.8803,2.8803,2.8803,2.8803,2.8803,2.8803,2.8803,2.8803,2.8803,2.8803,2.8803,2.8792,2.8672,2.8552,2.8453,2.808,2.7839,2.7764,2.5684,2.5713,2.6064,2.6348,2.6631,2.7158,2.7705,2.8242,2.8301,2.8291,2.8301,2.8291,2.8271,2.8301,2.8301,2.8301,2.8301,2.8301,2.8301,2.8301,2.8301,2.8301,2.8301,2.8301,2.8301,2.8301,2.8301,2.8301,2.8301,2.8301,2.8301,2.8301,2.8301,2.8301,2.8301,2.8301,2.8301,2.8301,2.8301,2.8066,2.7875,2.7777,2.7451,2.7236,2.7139,2.7135,2.7128,2.717,2.7331,2.7382,2.7392,2.7517,2.7922,2.8063,2.7865,2.7823,2.7718,2.7718,2.7685,2.7836,2.8041,2.8295,2.8144,2.8227,2.8315,2.8344,2.8301,2.8344,2.8398,2.8398,2.8398,2.8295,2.8256,2.8168,2.7998,2.791,2.7705,2.7588,2.7584,2.7809,2.7882,2.8096,2.8258,2.9139,2.9952,3.0092,3.0106,2.999,2.9667,2.9192,2.8711,2.8553,2.8621,2.8899,2.8836,2.8803,2.8803,2.8803,2.8803,2.8803,2.8803,2.8803,2.8803,2.8803,2.8803,2.8803,2.8803,2.8803,2.8803,2.8803,2.8716,2.8683,2.8596,2.8322,2.8134,2.5684,2.5723,2.6016,2.623,2.6445,2.6836,2.7344,2.7744,2.7783,2.7861,2.8037,2.8037,2.8135,2.8291,2.8301,2.8301,2.8301,2.8301,2.8301,2.8301,2.8301,2.8301,2.8301,2.8301,2.8301,2.8301,2.8301,2.8301,2.8301,2.8301,2.8301,2.8301,2.8301,2.8301,2.8301,2.8301,2.8301,2.8301,2.8262,2.8125,2.8008,2.79,2.7715,2.7549,2.748,2.7464,2.7481,2.7513,2.7615,2.783,2.7881,2.7978,2.8189,2.8131,2.8173,2.815,2.8055,2.816,2.8275,2.8055,2.8245,2.8416,2.8398,2.8281,2.8281,2.8291,2.8301,2.8291,2.8398,2.8514,2.8461,2.8408,2.8344,2.8335,2.8281,2.8281,2.8154,2.8037,2.8219,2.8468,2.8666,2.8875,2.94,3.0266,3.0737,3.0675,3.0691,3.0697,3.0389,2.9921,2.9237,2.8762,2.8918,2.911,2.8989,2.8858,2.8825,2.8825,2.8803,2.8803,2.8803,2.8803,2.8803,2.8803,2.8803,2.8803,2.8803,2.8803,2.8803,2.8803,2.8803,2.876,2.8738,2.8672,2.8617,2.5684,2.5684,2.5684,2.5977,2.6357,2.6709,2.6885,2.6914,2.6914,2.7217,2.7607,2.7748,2.7982,2.8232,2.8301,2.8301,2.8301,2.8301,2.8301,2.8301,2.8301,2.8301,2.8301,2.8301,2.8301,2.8301,2.8301,2.8301,2.8301,2.8301,2.8301,2.8301,2.8301,2.8301,2.8301,2.8301,2.8301,2.8301,2.8301,2.8242,2.8262,2.8262,2.8301,2.8232,2.8217,2.8235,2.8306,2.8405,2.8612,2.8983,2.9096,2.8896,2.871,2.8489,2.8605,2.8595,2.8353,2.8449,2.8502,2.8343,2.8479,2.8591,2.8601,2.8344,2.8301,2.8301,2.8301,2.8301,2.8408,2.8408,2.8354,2.8354,2.8291,2.8291,2.8291,2.8301,2.8242,2.839,2.8872,2.9229,2.9712,2.9836,2.9621,3.0346,3.0766,3.0895,3.0965,3.1088,3.0895,3.0427,2.9969,2.9216,2.9314,2.9412,2.9153,2.9033,2.8902,2.8858,2.8825,2.8803,2.8803,2.8803,2.8803,2.8803,2.8803,2.8803,2.8803,2.8803,2.8803,2.8803,2.8803,2.8803,2.8803,2.8803,2.8803,2.5684,2.5684,2.5684,2.5762,2.5849,2.5947,2.6015,2.5996,2.5996,2.668,2.7519,2.7738,2.79,2.8252,2.8291,2.8301,2.8301,2.8301,2.8301,2.8301,2.8301,2.8301,2.8301,2.8301,2.8301,2.8301,2.8301,2.8301,2.8301,2.8301,2.8301,2.8301,2.8301,2.8301,2.8301,2.8301,2.8301,2.8301,2.8359,2.833,2.8301,2.8301,2.8301,2.8301,2.8315,2.8305,2.8351,2.837,2.838,2.8506,2.8506,2.8459,2.8441,2.8344,2.8344,2.8451,2.8398,2.8451,2.8504,2.8451,2.8504,2.8451,2.8398,2.8344,2.8301,2.8301,2.8301,2.8301,2.8301,2.8301,2.8301,2.8301,2.8301,2.8301,2.8291,2.8291,2.8291,2.8883,2.9444,2.9974,3.0549,3.0423,3.0102,3.0259,3.0678,3.0836,3.0826,3.0925,3.0946,3.0662,3.0684,3.0155,2.9947,2.9882,2.95,2.9183,2.9121,2.8935,2.8858,2.8836,2.8814,2.8803,2.8803,2.8803,2.8803,2.8803,2.8803,2.8803,2.8803,2.8803,2.8803,2.8803,2.8803,2.8803,2.8803,2.5684,2.5684,2.5684,2.5684,2.5684,2.5684,2.5684,2.5713,2.5937,2.6416,2.707,2.7324,2.7705,2.8213,2.8291,2.8301,2.8301,2.8301,2.8301,2.8301,2.8301,2.8301,2.8301,2.8301,2.8301,2.8301,2.8301,2.8301,2.8301,2.8301,2.8301,2.8301,2.8301,2.8301,2.8301,2.8301,2.8301,2.8301,2.8457,2.8467,2.8369,2.832,2.8301,2.8301,2.8301,2.8301,2.8301,2.8301,2.8291,2.8291,2.8315,2.8315,2.8344,2.8291,2.8291,2.8291,2.8354,2.8408,2.8534,2.85,2.8447,2.85,2.8374,2.833,2.8301,2.8301,2.8301,2.8301,2.8301,2.8301,2.8301,2.8301,2.8301,2.8301,2.8344,2.8398,2.8611,2.8986,2.9504,2.9964,3.0192,3.0026,2.985,2.9922,3.0339,3.0495,3.0547,3.095,3.0995,3.099,3.0997,3.0902,3.0619,3.027,2.9925,2.9587,2.9383,2.9175,2.9011,2.888,2.8858,2.8825,2.8803,2.8803,2.8803,2.8803,2.8803,2.8803,2.8803,2.8803,2.8803,2.8803,2.8803,2.8803,2.8803,2.5684,2.5684,2.5684,2.5684,2.5693,2.581,2.584,2.5859,2.6279,2.6514,2.6699,2.6922,2.7458,2.7978,2.8291,2.8291,2.8301,2.8301,2.8301,2.8301,2.8301,2.8301,2.8301,2.8301,2.8301,2.8301,2.8301,2.8301,2.8301,2.8301,2.8301,2.8301,2.8301,2.8301,2.8301,2.8301,2.831,2.8496,2.8633,2.8701,2.8564,2.8379,2.8369,2.835,2.8301,2.8301,2.8301,2.8301,2.8301,2.8301,2.8301,2.8301,2.8301,2.8301,2.8398,2.8408,2.8476,2.8731,2.8922,2.8785,2.8848,2.8813,2.8569,2.8481,2.8447,2.8398,2.8408,2.8398,2.8398,2.832,2.832,2.833,2.833,2.831,2.8364,2.8504,2.8814,2.9079,2.9501,2.9911,2.9858,2.9754,2.9669,2.9732,2.9931,3.0099,3.0401,3.0909,3.1238,3.1224,3.1258,3.12,3.0987,3.0656,3.0362,3.01,2.9816,2.9598,2.9434,2.9153,2.8935,2.9033,2.9011,2.8803,2.8803,2.8803,2.8803,2.8803,2.8803,2.8803,2.8803,2.8803,2.8803,2.8803,2.8803,2.5684,2.5684,2.5684,2.5684,2.5732,2.6094,2.6269,2.6328,2.6689,2.708,2.7136,2.6875,2.7117,2.7865,2.8174,2.8262,2.8203,2.8252,2.8301,2.8301,2.8301,2.8301,2.8301,2.8301,2.8301,2.8301,2.8301,2.8301,2.8301,2.8301,2.8301,2.8301,2.8301,2.8301,2.831,2.8359,2.8506,2.874,2.8955,2.9053,2.9189,2.8965,2.8584,2.8457,2.8301,2.8301,2.8301,2.8301,2.8301,2.8301,2.8301,2.8301,2.832,2.8359,2.8496,2.8682,2.874,2.9045,2.9188,2.9211,2.9252,2.9055,2.8887,2.9068,2.8955,2.8809,2.8799,2.876,2.8682,2.8457,2.8418,2.8447,2.8457,2.8379,2.8393,2.8621,2.892,2.9089,2.9311,2.9679,2.99,2.9657,2.9371,2.9509,2.9722,2.9931,3.0193,3.0651,3.1157,3.1311,3.1476,3.14,3.1323,3.1135,3.0854,3.0679,3.0428,3.0188,2.9915,2.9609,2.9412,2.9358,2.9307,2.9066,2.8869,2.8803,2.8803,2.8803,2.8803,2.8803,2.8803,2.8803,2.8803,2.8803,2.8803]}]]